Time,TemperatureF,DewpointF,PressureIn,WindDirection,WindDirectionDegrees,WindSpeedMPH,WindSpeedGustMPH,Humidity,HourlyPrecipIn,Conditions,Clouds,dailyrainin,SoftwareType,DateUTC
2013-02-23 00:00:00,17.7,15.3,29.74,NW,307,0.0,3.0,90,0.00,,OVC045,0.06,VWS V14.01,2013-02-23 06:00:00,
2013-02-23 00:01:00,17.7,15.3,29.74,NW,307,0.0,1.0,90,0.00,,OVC045,0.00,VWS V14.01,2013-02-23 06:01:00,
2013-02-23 00:02:00,17.7,15.3,29.74,NW,307,0.0,1.0,90,0.00,,OVC045,0.00,VWS V14.01,2013-02-23 06:02:00,
2013-02-23 00:03:00,17.7,15.3,29.74,NW,307,0.0,2.0,90,0.00,,OVC045,0.00,VWS V14.01,2013-02-23 06:03:00,
2013-02-23 00:04:00,17.7,15.0,29.74,NW,307,0.0,3.0,89,0.00,,OVC045,0.00,VWS V14.01,2013-02-23 06:04:00,
2013-02-23 00:05:00,17.5,14.8,29.74,NW,307,1.0,4.0,89,0.00,,OVC045,0.00,VWS V14.01,2013-02-23 06:05:00,
2013-02-23 00:06:00,17.5,14.8,29.74,NW,307,3.0,4.0,89,0.00,,OVC045,0.00,VWS V14.01,2013-02-23 06:06:00,
2013-02-23 00:07:00,17.7,15.0,29.74,NW,307,6.0,6.0,89,0.00,,OVC045,0.00,VWS V14.01,2013-02-23 06:07:00,
2013-02-23 00:08:00,17.5,14.8,29.74,NW,307,2.0,6.0,89,0.00,,OVC045,0.00,VWS V14.01,2013-02-23 06:08:00,
2013-02-23 00:09:00,17.5,14.8,29.74,NW,307,2.0,6.0,89,0.00,,OVC045,0.00,VWS V14.01,2013-02-23 06:09:00,
2013-02-23 00:10:00,17.5,14.8,29.74,NW,307,3.0,6.0,89,0.00,,OVC045,0.00,VWS V14.01,2013-02-23 06:10:00,
2013-02-23 00:11:00,17.5,14.8,29.74,NW,307,0.0,6.0,89,0.00,,OVC045,0.00,VWS V14.01,2013-02-23 06:11:00,
2013-02-23 00:12:00,17.5,14.8,29.74,NW,307,0.0,6.0,89,0.00,,OVC045,0.00,VWS V14.01,2013-02-23 06:12:00,
2013-02-23 00:13:00,17.5,14.8,29.74,NW,307,0.0,6.0,89,0.00,,OVC045,0.00,VWS V14.01,2013-02-23 06:13:00,
2013-02-23 00:14:00,17.5,14.8,29.74,NW,307,0.0,6.0,89,0.00,,OVC045,0.00,VWS V14.01,2013-02-23 06:14:00,
2013-02-23 00:15:00,17.5,14.8,29.73,NW,307,0.0,6.0,89,0.00,,OVC045,0.00,VWS V14.01,2013-02-23 06:15:00,
2013-02-23 00:16:00,17.5,14.8,29.73,NW,307,0.0,6.0,89,0.00,,OVC045,0.00,VWS V14.01,2013-02-23 06:16:00,
2013-02-23 00:17:00,17.5,14.8,29.73,NW,307,1.0,6.0,89,0.00,,OVC045,0.00,VWS V14.01,2013-02-23 06:17:00,
2013-02-23 00:18:00,17.5,14.8,29.73,NW,307,2.0,6.0,89,0.00,,OVC045,0.00,VWS V14.01,2013-02-23 06:18:00,
2013-02-23 00:19:00,17.5,14.8,29.73,NW,307,0.0,6.0,89,0.00,,OVC045,0.00,VWS V14.01,2013-02-23 06:19:00,
2013-02-23 00:20:00,17.7,15.0,29.73,NW,307,1.0,6.0,89,0.00,,OVC045,0.00,VWS V14.01,2013-02-23 06:20:00,
2013-02-23 00:21:00,17.7,15.0,29.73,NW,307,2.0,6.0,89,0.00,,OVC045,0.00,VWS V14.01,2013-02-23 06:21:00,
2013-02-23 00:22:00,17.7,15.0,29.73,NW,307,0.0,6.0,89,0.00,,OVC045,0.00,VWS V14.01,2013-02-23 06:22:00,
2013-02-23 00:23:00,17.7,15.0,29.73,NW,307,2.0,6.0,89,0.00,,OVC045,0.00,VWS V14.01,2013-02-23 06:23:00,
2013-02-23 00:24:00,17.7,15.0,29.73,NW,307,0.0,6.0,89,0.00,,OVC045,0.00,VWS V14.01,2013-02-23 06:24:00,
2013-02-23 00:25:00,17.7,15.0,29.73,NW,307,2.0,6.0,89,0.00,,OVC045,0.00,VWS V14.01,2013-02-23 06:25:00,
2013-02-23 00:26:00,17.7,15.0,29.73,NW,307,1.0,6.0,89,0.00,,OVC045,0.00,VWS V14.01,2013-02-23 06:26:00,
2013-02-23 00:27:00,17.7,15.0,29.73,NW,307,3.0,6.0,89,0.00,,OVC045,0.00,VWS V14.01,2013-02-23 06:27:00,
2013-02-23 00:28:00,17.7,15.0,29.73,NW,307,0.0,6.0,89,0.00,,OVC045,0.00,VWS V14.01,2013-02-23 06:28:00,
2013-02-23 00:29:00,17.7,15.0,29.73,NW,307,0.0,6.0,89,0.00,,OVC045,0.00,VWS V14.01,2013-02-23 06:29:00,
2013-02-23 00:30:00,17.7,15.0,29.73,NW,307,1.0,6.0,89,0.00,,OVC045,0.00,VWS V14.01,2013-02-23 06:30:00,
2013-02-23 00:31:00,17.7,15.0,29.73,NW,307,0.0,1.0,89,0.00,,OVC045,0.00,VWS V14.01,2013-02-23 06:31:00,
2013-02-23 00:32:00,17.7,15.0,29.73,NW,307,0.0,2.0,89,0.00,,OVC045,0.00,VWS V14.01,2013-02-23 06:32:00,
2013-02-23 00:33:00,17.7,15.0,29.73,NW,307,1.0,5.0,89,0.00,,OVC045,0.00,VWS V14.01,2013-02-23 06:33:00,
2013-02-23 00:34:00,17.7,15.0,29.73,NW,307,0.0,5.0,89,0.00,,OVC045,0.00,VWS V14.01,2013-02-23 06:34:00,
2013-02-23 00:35:00,17.7,15.0,29.73,NW,307,2.0,5.0,89,0.00,,OVC045,0.00,VWS V14.01,2013-02-23 06:35:00,
2013-02-23 00:36:00,17.7,15.0,29.73,NW,307,0.0,5.0,89,0.00,,OVC045,0.00,VWS V14.01,2013-02-23 06:36:00,
2013-02-23 00:37:00,17.7,15.0,29.73,NW,307,0.0,5.0,89,0.00,,OVC045,0.00,VWS V14.01,2013-02-23 06:37:00,
2013-02-23 00:38:00,17.7,15.0,29.73,NW,307,2.0,5.0,89,0.00,,OVC045,0.00,VWS V14.01,2013-02-23 06:38:00,
2013-02-23 00:39:00,17.8,15.1,29.73,NW,307,0.0,5.0,89,0.00,,OVC045,0.00,VWS V14.01,2013-02-23 06:39:00,
2013-02-23 00:40:00,17.8,15.1,29.73,NW,307,0.0,5.0,89,0.00,,OVC045,0.00,VWS V14.01,2013-02-23 06:40:00,
2013-02-23 00:41:00,17.8,15.1,29.73,NW,307,0.0,5.0,89,0.00,,OVC045,0.00,VWS V14.01,2013-02-23 06:41:00,
2013-02-23 00:42:00,17.8,15.1,29.73,NW,307,0.0,5.0,89,0.00,,OVC045,0.00,VWS V14.01,2013-02-23 06:42:00,
2013-02-23 00:43:00,17.8,15.1,29.73,NW,307,0.0,5.0,89,0.00,,OVC045,0.00,VWS V14.01,2013-02-23 06:43:00,
2013-02-23 00:44:00,17.8,15.1,29.73,NW,307,0.0,5.0,89,0.00,,OVC045,0.00,VWS V14.01,2013-02-23 06:44:00,
2013-02-23 00:45:00,17.8,15.1,29.73,NW,307,1.0,5.0,89,0.00,,OVC045,0.00,VWS V14.01,2013-02-23 06:45:00,
2013-02-23 00:46:00,17.8,15.1,29.73,NW,307,0.0,5.0,89,0.00,,OVC045,0.00,VWS V14.01,2013-02-23 06:46:00,
2013-02-23 00:47:00,17.8,15.1,29.73,NW,307,0.0,5.0,89,0.00,,OVC045,0.00,VWS V14.01,2013-02-23 06:47:00,
2013-02-23 00:48:00,17.8,15.1,29.73,NW,307,0.0,5.0,89,0.00,,OVC045,0.00,VWS V14.01,2013-02-23 06:48:00,
2013-02-23 00:49:00,17.8,15.1,29.73,NW,307,0.0,5.0,89,0.00,,OVC045,0.00,VWS V14.01,2013-02-23 06:49:00,
2013-02-23 00:50:00,17.8,15.1,29.73,NW,307,0.0,5.0,89,0.00,,OVC045,0.00,VWS V14.01,2013-02-23 06:50:00,
2013-02-23 00:51:00,17.8,15.1,29.73,NW,307,1.0,5.0,89,0.00,,OVC045,0.00,VWS V14.01,2013-02-23 06:51:00,
2013-02-23 00:52:00,17.8,15.1,29.73,NW,307,1.0,5.0,89,0.00,,OVC045,0.00,VWS V14.01,2013-02-23 06:52:00,
2013-02-23 00:53:00,17.8,15.1,29.73,NW,307,0.0,5.0,89,0.00,,OVC045,0.00,VWS V14.01,2013-02-23 06:53:00,
2013-02-23 00:54:00,17.8,15.1,29.73,NW,307,0.0,5.0,89,0.00,,OVC045,0.00,VWS V14.01,2013-02-23 06:54:00,
2013-02-23 00:55:00,17.8,15.1,29.73,NW,307,1.0,5.0,89,0.00,,OVC045,0.00,VWS V14.01,2013-02-23 06:55:00,
2013-02-23 00:56:00,17.8,15.1,29.73,NW,307,0.0,5.0,89,0.00,,OVC045,0.00,VWS V14.01,2013-02-23 06:56:00,
2013-02-23 00:57:00,17.8,15.1,29.73,NW,307,1.0,5.0,89,0.00,,OVC045,0.00,VWS V14.01,2013-02-23 06:57:00,
2013-02-23 00:58:00,17.8,15.1,29.73,NW,307,0.0,5.0,89,0.00,,OVC045,0.00,VWS V14.01,2013-02-23 06:58:00,
2013-02-23 00:59:00,17.8,15.1,29.73,NW,307,0.0,5.0,89,0.00,,OVC045,0.00,VWS V14.01,2013-02-23 06:59:00,
2013-02-23 01:00:00,17.8,15.1,29.73,NW,307,0.0,5.0,89,0.00,,OVC045,0.00,VWS V14.01,2013-02-23 07:00:00,
2013-02-23 01:01:00,18.0,15.3,29.73,NW,307,0.0,0.0,89,0.00,,OVC045,0.00,VWS V14.01,2013-02-23 07:01:00,
2013-02-23 01:02:00,18.0,15.3,29.73,NW,307,2.0,5.0,89,0.00,,OVC045,0.00,VWS V14.01,2013-02-23 07:02:00,
2013-02-23 01:03:00,18.0,15.3,29.73,NW,307,2.0,5.0,89,0.00,,OVC045,0.00,VWS V14.01,2013-02-23 07:03:00,
2013-02-23 01:04:00,18.0,15.3,29.73,NW,307,2.0,5.0,89,0.00,,OVC045,0.00,VWS V14.01,2013-02-23 07:04:00,
2013-02-23 01:05:00,18.0,15.3,29.73,NW,307,0.0,5.0,89,0.00,,OVC045,0.00,VWS V14.01,2013-02-23 07:05:00,
2013-02-23 01:06:00,18.0,15.3,29.73,NW,307,0.0,5.0,89,0.00,,OVC045,0.00,VWS V14.01,2013-02-23 07:06:00,
2013-02-23 01:07:00,18.0,15.3,29.73,NW,307,0.0,5.0,89,0.00,,OVC045,0.00,VWS V14.01,2013-02-23 07:07:00,
2013-02-23 01:08:00,18.0,15.3,29.73,NW,307,0.0,5.0,89,0.00,,OVC045,0.00,VWS V14.01,2013-02-23 07:08:00,
2013-02-23 01:09:00,18.0,15.3,29.73,NW,307,1.0,5.0,89,0.00,,OVC045,0.00,VWS V14.01,2013-02-23 07:09:00,
2013-02-23 01:10:00,18.0,15.3,29.73,NW,307,0.0,5.0,89,0.00,,OVC045,0.00,VWS V14.01,2013-02-23 07:10:00,
2013-02-23 01:11:00,18.0,15.3,29.73,NW,307,0.0,5.0,89,0.00,,OVC045,0.00,VWS V14.01,2013-02-23 07:11:00,
2013-02-23 01:12:00,18.0,15.3,29.73,NW,307,0.0,5.0,89,0.00,,OVC045,0.00,VWS V14.01,2013-02-23 07:12:00,
2013-02-23 01:13:00,18.0,15.3,29.73,NW,307,0.0,5.0,89,0.00,,OVC045,0.00,VWS V14.01,2013-02-23 07:13:00,
2013-02-23 01:14:00,18.0,15.3,29.73,NW,307,0.0,5.0,89,0.00,,OVC045,0.00,VWS V14.01,2013-02-23 07:14:00,
2013-02-23 01:15:00,18.0,15.3,29.73,NW,307,1.0,5.0,89,0.00,,OVC045,0.00,VWS V14.01,2013-02-23 07:15:00,
2013-02-23 01:16:00,18.0,15.3,29.73,NW,307,0.0,5.0,89,0.00,,OVC045,0.00,VWS V14.01,2013-02-23 07:16:00,
2013-02-23 01:17:00,18.0,15.3,29.73,NW,307,0.0,5.0,89,0.00,,OVC045,0.00,VWS V14.01,2013-02-23 07:17:00,
2013-02-23 01:18:00,18.0,15.3,29.73,NW,307,2.0,5.0,89,0.00,,OVC045,0.00,VWS V14.01,2013-02-23 07:18:00,
2013-02-23 01:19:00,18.1,15.4,29.73,NW,307,0.0,5.0,89,0.00,,OVC045,0.00,VWS V14.01,2013-02-23 07:19:00,
2013-02-23 01:20:00,18.1,15.4,29.73,NW,307,0.0,5.0,89,0.00,,OVC045,0.00,VWS V14.01,2013-02-23 07:20:00,
2013-02-23 01:21:00,18.1,15.4,29.73,NW,307,0.0,5.0,89,0.00,,OVC045,0.00,VWS V14.01,2013-02-23 07:21:00,
2013-02-23 01:22:00,18.1,15.4,29.73,NW,307,0.0,5.0,89,0.00,,OVC045,0.00,VWS V14.01,2013-02-23 07:22:00,
2013-02-23 01:23:00,18.1,15.4,29.73,NW,307,0.0,5.0,89,0.00,,OVC045,0.00,VWS V14.01,2013-02-23 07:23:00,
2013-02-23 01:24:00,18.1,15.4,29.73,NW,307,0.0,5.0,89,0.00,,OVC045,0.00,VWS V14.01,2013-02-23 07:24:00,
2013-02-23 01:25:00,18.1,15.4,29.73,NW,307,0.0,5.0,89,0.00,,OVC045,0.00,VWS V14.01,2013-02-23 07:25:00,
2013-02-23 01:26:00,18.1,15.4,29.73,NW,307,0.0,5.0,89,0.00,,OVC045,0.00,VWS V14.01,2013-02-23 07:26:00,
2013-02-23 01:27:00,18.1,15.4,29.73,NW,307,0.0,5.0,89,0.00,,OVC045,0.00,VWS V14.01,2013-02-23 07:27:00,
2013-02-23 01:28:00,18.1,15.4,29.73,NW,307,0.0,5.0,89,0.00,,OVC045,0.00,VWS V14.01,2013-02-23 07:28:00,
2013-02-23 01:29:00,18.1,15.4,29.73,NW,307,2.0,5.0,89,0.00,,OVC045,0.00,VWS V14.01,2013-02-23 07:29:00,
2013-02-23 01:30:00,18.1,15.4,29.73,NW,307,0.0,5.0,89,0.00,,OVC045,0.00,VWS V14.01,2013-02-23 07:30:00,
2013-02-23 01:31:00,18.3,15.6,29.73,NW,307,0.0,0.0,89,0.00,,OVC045,0.00,VWS V14.01,2013-02-23 07:31:00,
2013-02-23 01:32:00,18.3,15.6,29.73,NW,307,0.0,1.0,89,0.00,,OVC045,0.00,VWS V14.01,2013-02-23 07:32:00,
2013-02-23 01:33:00,18.3,15.6,29.73,NW,307,0.0,1.0,89,0.00,,OVC045,0.00,VWS V14.01,2013-02-23 07:33:00,
2013-02-23 01:34:00,18.3,15.6,29.73,NW,307,0.0,2.0,89,0.00,,OVC045,0.00,VWS V14.01,2013-02-23 07:34:00,
2013-02-23 01:35:00,18.3,15.6,29.73,NW,307,0.0,2.0,89,0.00,,OVC045,0.00,VWS V14.01,2013-02-23 07:35:00,
2013-02-23 01:36:00,18.3,15.6,29.73,NW,307,0.0,2.0,89,0.00,,OVC045,0.00,VWS V14.01,2013-02-23 07:36:00,
2013-02-23 01:37:00,18.3,15.6,29.73,NW,307,0.0,2.0,89,0.00,,OVC045,0.00,VWS V14.01,2013-02-23 07:37:00,
2013-02-23 01:38:00,18.3,15.6,29.73,NW,307,0.0,2.0,89,0.00,,OVC045,0.00,VWS V14.01,2013-02-23 07:38:00,
2013-02-23 01:39:00,18.3,15.6,29.73,NW,307,0.0,2.0,89,0.00,,OVC045,0.00,VWS V14.01,2013-02-23 07:39:00,
2013-02-23 01:40:00,18.3,15.6,29.73,NW,307,2.0,2.0,89,0.00,,OVC045,0.00,VWS V14.01,2013-02-23 07:40:00,
2013-02-23 01:41:00,18.3,15.6,29.73,NW,307,0.0,2.0,89,0.00,,OVC045,0.00,VWS V14.01,2013-02-23 07:41:00,
2013-02-23 01:42:00,18.3,15.6,29.73,NW,307,0.0,2.0,89,0.00,,OVC045,0.00,VWS V14.01,2013-02-23 07:42:00,
2013-02-23 01:43:00,18.3,15.6,29.73,NW,307,1.0,2.0,89,0.00,,OVC012,0.00,VWS V14.01,2013-02-23 07:43:00,
2013-02-23 01:44:00,18.3,15.6,29.73,NW,307,1.0,2.0,89,0.00,,OVC012,0.00,VWS V14.01,2013-02-23 07:44:00,
2013-02-23 01:45:00,18.3,15.6,29.73,NW,307,0.0,2.0,89,0.00,,OVC012,0.00,VWS V14.01,2013-02-23 07:45:00,
2013-02-23 01:46:00,18.3,15.6,29.73,NW,307,0.0,2.0,89,0.00,,OVC012,0.00,VWS V14.01,2013-02-23 07:46:00,
2013-02-23 01:47:00,18.3,15.6,29.73,NW,307,0.0,2.0,89,0.00,,OVC012,0.00,VWS V14.01,2013-02-23 07:47:00,
2013-02-23 01:48:00,18.4,15.7,29.73,NW,307,2.0,5.0,89,0.00,,OVC012,0.00,VWS V14.01,2013-02-23 07:48:00,
2013-02-23 01:49:00,18.4,15.7,29.73,NW,307,0.0,5.0,89,0.00,,OVC012,0.00,VWS V14.01,2013-02-23 07:49:00,
2013-02-23 01:50:00,18.4,15.7,29.73,NW,307,1.0,5.0,89,0.00,,OVC012,0.00,VWS V14.01,2013-02-23 07:50:00,
2013-02-23 01:51:00,18.4,15.7,29.73,NW,307,1.0,5.0,89,0.00,,OVC012,0.00,VWS V14.01,2013-02-23 07:51:00,
2013-02-23 01:52:00,18.4,15.7,29.73,NW,307,2.0,5.0,89,0.00,,OVC012,0.00,VWS V14.01,2013-02-23 07:52:00,
2013-02-23 01:53:00,18.4,15.7,29.73,NW,307,0.0,5.0,89,0.00,,OVC012,0.00,VWS V14.01,2013-02-23 07:53:00,
2013-02-23 01:54:00,18.4,15.7,29.73,NW,307,0.0,5.0,89,0.00,,OVC012,0.00,VWS V14.01,2013-02-23 07:54:00,
2013-02-23 01:55:00,18.4,15.7,29.73,NW,307,0.0,5.0,89,0.00,,OVC012,0.00,VWS V14.01,2013-02-23 07:55:00,
2013-02-23 01:56:00,18.4,15.7,29.73,NW,307,0.0,5.0,89,0.00,,OVC012,0.00,VWS V14.01,2013-02-23 07:56:00,
2013-02-23 01:57:00,18.4,15.7,29.73,NW,307,0.0,5.0,89,0.00,,OVC012,0.00,VWS V14.01,2013-02-23 07:57:00,
2013-02-23 01:58:00,18.4,15.7,29.73,NW,307,0.0,5.0,89,0.00,,OVC012,0.00,VWS V14.01,2013-02-23 07:58:00,
2013-02-23 01:59:00,18.4,15.7,29.73,NW,307,0.0,5.0,89,0.00,,OVC012,0.00,VWS V14.01,2013-02-23 07:59:00,
2013-02-23 02:00:00,18.4,15.7,29.73,NW,307,0.0,5.0,89,0.00,,OVC012,0.00,VWS V14.01,2013-02-23 08:00:00,
2013-02-23 02:01:00,18.4,15.7,29.73,NW,307,0.0,0.0,89,0.00,,OVC012,0.00,VWS V14.01,2013-02-23 08:01:00,
2013-02-23 02:02:00,18.4,15.7,29.73,NW,307,0.0,0.0,89,0.00,,OVC012,0.00,VWS V14.01,2013-02-23 08:02:00,
2013-02-23 02:03:00,18.4,15.7,29.73,NW,307,0.0,0.0,89,0.00,,OVC012,0.00,VWS V14.01,2013-02-23 08:03:00,
2013-02-23 02:04:00,18.4,15.7,29.73,NW,307,0.0,0.0,89,0.00,,OVC012,0.00,VWS V14.01,2013-02-23 08:04:00,
2013-02-23 02:05:00,18.4,15.4,29.73,NW,307,1.0,1.0,88,0.00,,OVC012,0.00,VWS V14.01,2013-02-23 08:05:00,
2013-02-23 02:06:00,18.4,15.4,29.73,NW,307,0.0,2.0,88,0.00,,OVC012,0.00,VWS V14.01,2013-02-23 08:06:00,
2013-02-23 02:07:00,18.4,15.4,29.73,NW,307,0.0,2.0,88,0.00,,OVC012,0.00,VWS V14.01,2013-02-23 08:07:00,
2013-02-23 02:08:00,18.4,15.4,29.73,NW,307,0.0,2.0,88,0.00,,OVC012,0.00,VWS V14.01,2013-02-23 08:08:00,
2013-02-23 02:09:00,18.4,15.4,29.73,NW,307,0.0,2.0,88,0.00,,OVC012,0.00,VWS V14.01,2013-02-23 08:09:00,
2013-02-23 02:10:00,18.3,15.4,29.73,NW,307,0.0,2.0,88,0.00,,OVC012,0.00,VWS V14.01,2013-02-23 08:10:00,
2013-02-23 02:11:00,18.3,15.4,29.73,NW,307,0.0,2.0,88,0.00,,OVC012,0.00,VWS V14.01,2013-02-23 08:11:00,
2013-02-23 02:12:00,18.3,15.4,29.73,NW,307,0.0,2.0,88,0.00,,OVC012,0.00,VWS V14.01,2013-02-23 08:12:00,
2013-02-23 02:13:00,18.3,15.4,29.73,NW,307,2.0,6.0,88,0.00,,OVC012,0.00,VWS V14.01,2013-02-23 08:13:00,
2013-02-23 02:14:00,18.3,15.4,29.73,NW,307,0.0,6.0,88,0.00,,OVC012,0.00,VWS V14.01,2013-02-23 08:14:00,
2013-02-23 02:15:00,18.3,15.4,29.72,NW,307,2.0,6.0,88,0.00,,OVC012,0.00,VWS V14.01,2013-02-23 08:15:00,
2013-02-23 02:16:00,18.3,15.4,29.72,NW,307,0.0,6.0,88,0.00,,OVC012,0.00,VWS V14.01,2013-02-23 08:16:00,
2013-02-23 02:17:00,18.3,15.4,29.72,NW,307,0.0,6.0,88,0.00,,OVC012,0.00,VWS V14.01,2013-02-23 08:17:00,
2013-02-23 02:18:00,18.3,15.4,29.72,NW,307,1.0,6.0,88,0.00,,OVC012,0.00,VWS V14.01,2013-02-23 08:18:00,
2013-02-23 02:19:00,18.3,15.4,29.72,NW,307,0.0,6.0,88,0.00,,OVC012,0.00,VWS V14.01,2013-02-23 08:19:00,
2013-02-23 02:20:00,18.1,15.1,29.72,NW,307,0.0,6.0,88,0.00,,OVC012,0.00,VWS V14.01,2013-02-23 08:20:00,
2013-02-23 02:21:00,18.1,15.1,29.72,NW,307,1.0,6.0,88,0.00,,OVC012,0.00,VWS V14.01,2013-02-23 08:21:00,
2013-02-23 02:22:00,18.1,15.1,29.72,NW,307,1.0,6.0,88,0.00,,OVC012,0.00,VWS V14.01,2013-02-23 08:22:00,
2013-02-23 02:23:00,18.1,15.1,29.72,NW,307,0.0,6.0,88,0.00,,OVC012,0.00,VWS V14.01,2013-02-23 08:23:00,
2013-02-23 02:24:00,18.1,15.1,29.72,NW,307,0.0,6.0,88,0.00,,OVC012,0.00,VWS V14.01,2013-02-23 08:24:00,
2013-02-23 02:25:00,18.1,15.1,29.72,NW,307,0.0,6.0,88,0.00,,OVC012,0.00,VWS V14.01,2013-02-23 08:25:00,
2013-02-23 02:26:00,18.1,15.1,29.72,NW,307,0.0,6.0,88,0.00,,OVC012,0.00,VWS V14.01,2013-02-23 08:26:00,
2013-02-23 02:27:00,18.1,15.1,29.72,NW,307,0.0,6.0,88,0.00,,OVC012,0.00,VWS V14.01,2013-02-23 08:27:00,
2013-02-23 02:28:00,18.0,15.1,29.72,NW,307,1.0,6.0,88,0.00,,OVC012,0.00,VWS V14.01,2013-02-23 08:28:00,
2013-02-23 02:29:00,18.0,15.1,29.72,NW,307,0.0,6.0,88,0.00,,OVC012,0.00,VWS V14.01,2013-02-23 08:29:00,
2013-02-23 02:30:00,18.0,15.1,29.72,NW,307,2.0,6.0,88,0.00,,OVC012,0.00,VWS V14.01,2013-02-23 08:30:00,
2013-02-23 02:31:00,18.0,15.1,29.72,NW,307,0.0,2.0,88,0.00,,OVC012,0.00,VWS V14.01,2013-02-23 08:31:00,
2013-02-23 02:32:00,18.0,15.1,29.72,NW,307,1.0,3.0,88,0.00,,OVC012,0.00,VWS V14.01,2013-02-23 08:32:00,
2013-02-23 02:33:00,18.0,15.1,29.72,NW,307,0.0,3.0,88,0.00,,OVC012,0.00,VWS V14.01,2013-02-23 08:33:00,
2013-02-23 02:34:00,18.0,15.1,29.72,NW,307,0.0,3.0,88,0.00,,OVC012,0.00,VWS V14.01,2013-02-23 08:34:00,
2013-02-23 02:35:00,18.0,15.1,29.72,NW,307,0.0,3.0,88,0.00,,OVC012,0.00,VWS V14.01,2013-02-23 08:35:00,
2013-02-23 02:36:00,18.0,15.1,29.72,NW,307,0.0,3.0,88,0.00,,OVC012,0.00,VWS V14.01,2013-02-23 08:36:00,
2013-02-23 02:37:00,18.0,15.1,29.72,NW,307,0.0,3.0,88,0.00,,OVC012,0.00,VWS V14.01,2013-02-23 08:37:00,
2013-02-23 02:38:00,17.8,14.9,29.72,NW,307,2.0,3.0,88,0.00,,OVC012,0.00,VWS V14.01,2013-02-23 08:38:00,
2013-02-23 02:39:00,17.8,14.9,29.72,NW,307,0.0,3.0,88,0.00,,OVC012,0.00,VWS V14.01,2013-02-23 08:39:00,
2013-02-23 02:40:00,17.8,14.9,29.72,NW,307,0.0,3.0,88,0.00,,OVC012,0.00,VWS V14.01,2013-02-23 08:40:00,
2013-02-23 02:41:00,17.8,14.9,29.72,NW,307,4.0,4.0,88,0.00,,OVC012,0.00,VWS V14.01,2013-02-23 08:41:00,
2013-02-23 02:42:00,17.8,14.9,29.72,NW,307,1.0,4.0,88,0.00,,OVC012,0.00,VWS V14.01,2013-02-23 08:42:00,
2013-02-23 02:43:00,17.8,14.9,29.72,NW,307,0.0,4.0,88,0.00,,OVC012,0.00,VWS V14.01,2013-02-23 08:43:00,
2013-02-23 02:44:00,17.8,14.9,29.72,NW,307,0.0,4.0,88,0.00,,OVC012,0.00,VWS V14.01,2013-02-23 08:44:00,
2013-02-23 02:45:00,17.8,14.9,29.72,NW,307,3.0,4.0,88,0.00,,OVC012,0.00,VWS V14.01,2013-02-23 08:45:00,
2013-02-23 02:46:00,17.8,14.9,29.72,NW,307,2.0,5.0,88,0.00,,OVC012,0.00,VWS V14.01,2013-02-23 08:46:00,
2013-02-23 02:47:00,17.8,14.9,29.72,NW,307,0.0,5.0,88,0.00,,OVC012,0.00,VWS V14.01,2013-02-23 08:47:00,
2013-02-23 02:48:00,17.8,14.9,29.72,NW,307,0.0,5.0,88,0.00,,OVC012,0.00,VWS V14.01,2013-02-23 08:48:00,
2013-02-23 02:49:00,17.8,14.9,29.72,NW,307,1.0,5.0,88,0.00,,OVC012,0.00,VWS V14.01,2013-02-23 08:49:00,
2013-02-23 02:50:00,17.8,14.9,29.72,NW,307,0.0,5.0,88,0.00,,OVC012,0.00,VWS V14.01,2013-02-23 08:50:00,
2013-02-23 02:51:00,17.8,14.9,29.72,NW,307,1.0,5.0,88,0.00,,OVC012,0.00,VWS V14.01,2013-02-23 08:51:00,
2013-02-23 02:52:00,17.8,14.9,29.72,NW,307,1.0,5.0,88,0.00,,OVC012,0.00,VWS V14.01,2013-02-23 08:52:00,
2013-02-23 02:53:00,17.8,14.9,29.72,NW,307,5.0,5.0,88,0.00,,OVC012,0.00,VWS V14.01,2013-02-23 08:53:00,
2013-02-23 02:54:00,17.8,14.9,29.72,NW,307,4.0,6.0,88,0.00,,OVC012,0.00,VWS V14.01,2013-02-23 08:54:00,
2013-02-23 02:55:00,17.8,14.6,29.72,NW,307,1.0,6.0,87,0.00,,OVC012,0.00,VWS V14.01,2013-02-23 08:55:00,
2013-02-23 02:56:00,17.8,14.6,29.72,NW,307,2.0,6.0,87,0.00,,OVC012,0.00,VWS V14.01,2013-02-23 08:56:00,
2013-02-23 02:57:00,17.8,14.6,29.72,NW,307,0.0,6.0,87,0.00,,OVC012,0.00,VWS V14.01,2013-02-23 08:57:00,
2013-02-23 02:58:00,17.8,14.6,29.72,NW,307,0.0,6.0,87,0.00,,OVC012,0.00,VWS V14.01,2013-02-23 08:58:00,
2013-02-23 02:59:00,17.8,14.6,29.72,NW,307,3.0,6.0,87,0.00,,OVC012,0.00,VWS V14.01,2013-02-23 08:59:00,
2013-02-23 03:00:00,17.8,14.6,29.72,NW,307,0.0,6.0,87,0.00,,OVC012,0.00,VWS V14.01,2013-02-23 09:00:00,
2013-02-23 03:01:00,17.7,14.5,29.72,NW,307,0.0,1.0,87,0.00,,OVC012,0.00,VWS V14.01,2013-02-23 09:01:00,
2013-02-23 03:02:00,17.7,14.5,29.72,NW,307,0.0,4.0,87,0.00,,OVC012,0.00,VWS V14.01,2013-02-23 09:02:00,
2013-02-23 03:03:00,17.7,14.5,29.72,NW,307,2.0,4.0,87,0.00,,OVC012,0.00,VWS V14.01,2013-02-23 09:03:00,
2013-02-23 03:04:00,17.7,14.5,29.72,NW,307,0.0,4.0,87,0.00,,OVC012,0.00,VWS V14.01,2013-02-23 09:04:00,
2013-02-23 03:05:00,17.7,14.5,29.72,NW,307,0.0,4.0,87,0.00,,OVC012,0.00,VWS V14.01,2013-02-23 09:05:00,
2013-02-23 03:06:00,17.7,14.5,29.72,NW,307,1.0,4.0,87,0.00,,OVC012,0.00,VWS V14.01,2013-02-23 09:06:00,
2013-02-23 03:07:00,17.7,14.5,29.72,NW,307,0.0,4.0,87,0.00,,OVC012,0.00,VWS V14.01,2013-02-23 09:07:00,
2013-02-23 03:08:00,17.7,14.5,29.72,NW,307,0.0,4.0,87,0.00,,OVC012,0.00,VWS V14.01,2013-02-23 09:08:00,
2013-02-23 03:09:00,17.7,14.5,29.72,NW,307,0.0,4.0,87,0.00,,OVC012,0.00,VWS V14.01,2013-02-23 09:09:00,
2013-02-23 03:10:00,17.7,14.5,29.72,NW,307,2.0,4.0,87,0.00,,OVC012,0.00,VWS V14.01,2013-02-23 09:10:00,
2013-02-23 03:11:00,17.5,14.3,29.72,NW,307,2.0,7.0,87,0.00,,OVC012,0.00,VWS V14.01,2013-02-23 09:11:00,
2013-02-23 03:12:00,17.5,14.3,29.72,NW,307,0.0,7.0,87,0.00,,OVC012,0.00,VWS V14.01,2013-02-23 09:12:00,
2013-02-23 03:13:00,17.5,14.3,29.72,NW,307,0.0,7.0,87,0.00,,OVC012,0.00,VWS V14.01,2013-02-23 09:13:00,
2013-02-23 03:14:00,17.5,14.3,29.72,NW,307,3.0,7.0,87,0.00,,OVC012,0.00,VWS V14.01,2013-02-23 09:14:00,
2013-02-23 03:15:00,17.5,14.3,29.72,NW,305,0.0,7.0,87,0.00,,OVC012,0.00,VWS V14.01,2013-02-23 09:15:00,
2013-02-23 03:16:00,17.5,14.3,29.72,NW,305,0.0,7.0,87,0.00,,OVC012,0.00,VWS V14.01,2013-02-23 09:16:00,
2013-02-23 03:17:00,17.3,14.1,29.72,NW,305,2.0,7.0,87,0.00,,OVC012,0.00,VWS V14.01,2013-02-23 09:17:00,
2013-02-23 03:18:00,17.3,14.1,29.72,NW,305,0.0,7.0,87,0.00,,OVC012,0.00,VWS V14.01,2013-02-23 09:18:00,
2013-02-23 03:19:00,17.3,14.1,29.72,NW,305,6.0,7.0,87,0.00,,OVC012,0.00,VWS V14.01,2013-02-23 09:19:00,
2013-02-23 03:20:00,17.3,14.1,29.72,NW,307,0.0,7.0,87,0.00,,OVC012,0.00,VWS V14.01,2013-02-23 09:20:00,
2013-02-23 03:21:00,17.3,14.1,29.72,NW,305,2.0,7.0,87,0.00,,OVC012,0.00,VWS V14.01,2013-02-23 09:21:00,
2013-02-23 03:22:00,17.3,14.1,29.72,NW,307,0.0,7.0,87,0.00,,OVC012,0.00,VWS V14.01,2013-02-23 09:22:00,
2013-02-23 03:23:00,17.3,14.1,29.72,NW,305,0.0,7.0,87,0.00,,OVC012,0.00,VWS V14.01,2013-02-23 09:23:00,
2013-02-23 03:24:00,17.2,14.0,29.72,NW,305,0.0,7.0,87,0.00,,OVC012,0.00,VWS V14.01,2013-02-23 09:24:00,
2013-02-23 03:25:00,17.2,14.0,29.72,WNW,302,3.0,7.0,87,0.00,,OVC012,0.00,VWS V14.01,2013-02-23 09:25:00,
2013-02-23 03:26:00,17.2,14.0,29.72,WNW,301,0.0,7.0,87,0.00,,OVC012,0.00,VWS V14.01,2013-02-23 09:26:00,
2013-02-23 03:27:00,17.2,14.0,29.72,WNW,301,0.0,7.0,87,0.00,,OVC012,0.00,VWS V14.01,2013-02-23 09:27:00,
2013-02-23 03:28:00,17.2,14.0,29.72,WNW,301,3.0,7.0,87,0.00,,OVC012,0.00,VWS V14.01,2013-02-23 09:28:00,
2013-02-23 03:29:00,17.0,13.8,29.72,WNW,301,3.0,7.0,87,0.00,,OVC012,0.00,VWS V14.01,2013-02-23 09:29:00,
2013-02-23 03:30:00,17.0,13.8,29.72,WNW,301,4.0,7.0,87,0.00,,OVC012,0.00,VWS V14.01,2013-02-23 09:30:00,
2013-02-23 03:31:00,17.0,13.8,29.72,WNW,301,2.0,5.0,87,0.00,,OVC012,0.00,VWS V14.01,2013-02-23 09:31:00,
2013-02-23 03:32:00,17.0,13.8,29.72,WNW,301,6.0,6.0,87,0.00,,OVC012,0.00,VWS V14.01,2013-02-23 09:32:00,
2013-02-23 03:33:00,17.0,13.8,29.72,WNW,301,0.0,6.0,87,0.00,,OVC012,0.00,VWS V14.01,2013-02-23 09:33:00,
2013-02-23 03:34:00,17.0,13.8,29.72,WNW,301,6.0,6.0,87,0.00,,OVC012,0.00,VWS V14.01,2013-02-23 09:34:00,
2013-02-23 03:35:00,17.0,13.8,29.72,WNW,301,1.0,6.0,87,0.00,,OVC012,0.00,VWS V14.01,2013-02-23 09:35:00,
2013-02-23 03:36:00,17.0,13.8,29.72,WNW,301,3.0,6.0,87,0.00,,OVC012,0.00,VWS V14.01,2013-02-23 09:36:00,
2013-02-23 03:37:00,16.9,13.7,29.72,WNW,301,0.0,6.0,87,0.00,,OVC012,0.00,VWS V14.01,2013-02-23 09:37:00,
2013-02-23 03:38:00,16.9,13.7,29.72,WNW,301,0.0,6.0,87,0.00,,OVC012,0.00,VWS V14.01,2013-02-23 09:38:00,
2013-02-23 03:39:00,16.9,13.7,29.72,WNW,300,5.0,6.0,87,0.00,,OVC012,0.00,VWS V14.01,2013-02-23 09:39:00,
2013-02-23 03:40:00,16.9,13.7,29.72,WNW,300,0.0,6.0,87,0.00,,OVC012,0.00,VWS V14.01,2013-02-23 09:40:00,
2013-02-23 03:41:00,16.9,13.7,29.72,WNW,300,1.0,6.0,87,0.00,,OVC012,0.00,VWS V14.01,2013-02-23 09:41:00,
2013-02-23 03:42:00,16.9,13.7,29.72,WNW,300,0.0,6.0,87,0.00,,OVC012,0.00,VWS V14.01,2013-02-23 09:42:00,
2013-02-23 03:43:00,16.9,13.7,29.72,WNW,300,0.0,6.0,87,0.00,,OVC010,0.00,VWS V14.01,2013-02-23 09:43:00,
2013-02-23 03:44:00,16.9,13.7,29.72,WNW,300,0.0,6.0,87,0.00,,OVC010,0.00,VWS V14.01,2013-02-23 09:44:00,
2013-02-23 03:45:00,16.9,13.7,29.73,WNW,300,5.0,6.0,87,0.00,,OVC010,0.00,VWS V14.01,2013-02-23 09:45:00,
2013-02-23 03:46:00,16.9,13.7,29.73,WNW,300,0.0,6.0,87,0.00,,OVC010,0.00,VWS V14.01,2013-02-23 09:46:00,
2013-02-23 03:47:00,16.9,13.7,29.73,WNW,300,0.0,6.0,87,0.00,,OVC010,0.00,VWS V14.01,2013-02-23 09:47:00,
2013-02-23 03:48:00,16.9,13.7,29.73,WNW,300,0.0,6.0,87,0.00,,OVC010,0.00,VWS V14.01,2013-02-23 09:48:00,
2013-02-23 03:49:00,16.9,13.7,29.73,WNW,300,3.0,6.0,87,0.00,,OVC010,0.00,VWS V14.01,2013-02-23 09:49:00,
2013-02-23 03:50:00,16.9,13.7,29.73,WNW,300,2.0,6.0,87,0.00,,OVC010,0.00,VWS V14.01,2013-02-23 09:50:00,
2013-02-23 03:51:00,16.9,13.7,29.73,WNW,300,0.0,6.0,87,0.00,,OVC010,0.00,VWS V14.01,2013-02-23 09:51:00,
2013-02-23 03:52:00,16.9,13.7,29.73,WNW,300,1.0,6.0,87,0.00,,OVC010,0.00,VWS V14.01,2013-02-23 09:52:00,
2013-02-23 03:53:00,16.9,13.7,29.73,WNW,300,0.0,6.0,87,0.00,,OVC010,0.00,VWS V14.01,2013-02-23 09:53:00,
2013-02-23 03:54:00,16.9,13.7,29.73,WNW,300,0.0,6.0,87,0.00,,OVC010,0.00,VWS V14.01,2013-02-23 09:54:00,
2013-02-23 03:55:00,16.9,13.7,29.73,WNW,300,0.0,6.0,87,0.00,,OVC010,0.00,VWS V14.01,2013-02-23 09:55:00,
2013-02-23 03:56:00,16.9,13.7,29.73,WNW,300,0.0,6.0,87,0.00,,OVC010,0.00,VWS V14.01,2013-02-23 09:56:00,
2013-02-23 03:57:00,16.9,13.7,29.73,WNW,300,0.0,6.0,87,0.00,,OVC010,0.00,VWS V14.01,2013-02-23 09:57:00,
2013-02-23 03:58:00,16.9,13.7,29.73,WNW,300,1.0,6.0,87,0.00,,OVC010,0.00,VWS V14.01,2013-02-23 09:58:00,
2013-02-23 03:59:00,16.9,13.7,29.73,WNW,300,0.0,6.0,87,0.00,,OVC010,0.00,VWS V14.01,2013-02-23 09:59:00,
2013-02-23 04:00:00,16.9,13.7,29.73,WNW,300,0.0,6.0,87,0.00,,OVC010,0.00,VWS V14.01,2013-02-23 10:00:00,
2013-02-23 04:01:00,16.9,13.7,29.73,WNW,300,5.0,7.0,87,0.00,,OVC010,0.00,VWS V14.01,2013-02-23 10:01:00,
2013-02-23 04:02:00,16.9,13.7,29.73,WNW,300,0.0,7.0,87,0.00,,OVC010,0.00,VWS V14.01,2013-02-23 10:02:00,
2013-02-23 04:03:00,16.9,13.7,29.73,WNW,300,0.0,7.0,87,0.00,,OVC010,0.00,VWS V14.01,2013-02-23 10:03:00,
2013-02-23 04:04:00,16.9,13.7,29.73,WNW,300,0.0,7.0,87,0.00,,OVC010,0.00,VWS V14.01,2013-02-23 10:04:00,
2013-02-23 04:05:00,16.9,13.7,29.73,WNW,300,0.0,7.0,87,0.00,,OVC010,0.00,VWS V14.01,2013-02-23 10:05:00,
2013-02-23 04:06:00,16.9,13.7,29.73,WNW,300,3.0,7.0,87,0.00,,OVC010,0.00,VWS V14.01,2013-02-23 10:06:00,
2013-02-23 04:07:00,16.9,13.7,29.73,WNW,300,1.0,7.0,87,0.00,,OVC010,0.00,VWS V14.01,2013-02-23 10:07:00,
2013-02-23 04:08:00,16.9,13.7,29.73,WNW,300,0.0,7.0,87,0.00,,OVC010,0.00,VWS V14.01,2013-02-23 10:08:00,
2013-02-23 04:09:00,16.9,13.7,29.73,WNW,300,2.0,7.0,87,0.00,,OVC010,0.00,VWS V14.01,2013-02-23 10:09:00,
2013-02-23 04:10:00,16.9,13.7,29.73,WNW,300,0.0,7.0,87,0.00,,OVC010,0.00,VWS V14.01,2013-02-23 10:10:00,
2013-02-23 04:11:00,16.9,13.7,29.73,WNW,300,0.0,7.0,87,0.00,,OVC010,0.00,VWS V14.01,2013-02-23 10:11:00,
2013-02-23 04:12:00,16.9,13.7,29.73,WNW,300,3.0,7.0,87,0.00,,OVC010,0.00,VWS V14.01,2013-02-23 10:12:00,
2013-02-23 04:13:00,16.9,13.7,29.73,WNW,300,2.0,7.0,87,0.00,,OVC010,0.00,VWS V14.01,2013-02-23 10:13:00,
2013-02-23 04:14:00,16.9,13.7,29.73,WNW,300,1.0,7.0,87,0.00,,OVC010,0.00,VWS V14.01,2013-02-23 10:14:00,
2013-02-23 04:15:00,16.9,13.7,29.73,WNW,300,1.0,7.0,87,0.00,,OVC010,0.00,VWS V14.01,2013-02-23 10:15:00,
2013-02-23 04:16:00,16.9,13.7,29.73,WNW,300,3.0,7.0,87,0.00,,OVC010,0.00,VWS V14.01,2013-02-23 10:16:00,
2013-02-23 04:17:00,16.9,13.7,29.73,WNW,300,2.0,7.0,87,0.00,,OVC010,0.00,VWS V14.01,2013-02-23 10:17:00,
2013-02-23 04:18:00,17.0,13.8,29.73,WNW,300,0.0,7.0,87,0.00,,OVC010,0.00,VWS V14.01,2013-02-23 10:18:00,
2013-02-23 04:19:00,17.0,13.8,29.73,WNW,300,0.0,7.0,87,0.00,,OVC010,0.00,VWS V14.01,2013-02-23 10:19:00,
2013-02-23 04:20:00,17.0,13.8,29.73,WNW,300,1.0,7.0,87,0.00,,OVC010,0.00,VWS V14.01,2013-02-23 10:20:00,
2013-02-23 04:21:00,17.0,13.8,29.73,WNW,300,0.0,7.0,87,0.00,,OVC010,0.00,VWS V14.01,2013-02-23 10:21:00,
2013-02-23 04:22:00,17.0,13.8,29.73,WNW,300,0.0,7.0,87,0.00,,OVC010,0.00,VWS V14.01,2013-02-23 10:22:00,
2013-02-23 04:23:00,17.0,13.8,29.73,WNW,300,0.0,7.0,87,0.00,,OVC010,0.00,VWS V14.01,2013-02-23 10:23:00,
2013-02-23 04:24:00,17.0,13.8,29.73,WNW,300,0.0,7.0,87,0.00,,OVC010,0.00,VWS V14.01,2013-02-23 10:24:00,
2013-02-23 04:25:00,17.0,13.8,29.73,WNW,300,0.0,7.0,87,0.00,,OVC010,0.00,VWS V14.01,2013-02-23 10:25:00,
2013-02-23 04:26:00,17.0,13.8,29.73,WNW,300,2.0,7.0,87,0.00,,OVC010,0.00,VWS V14.01,2013-02-23 10:26:00,
2013-02-23 04:27:00,17.0,13.8,29.73,WNW,300,1.0,7.0,87,0.00,,OVC010,0.00,VWS V14.01,2013-02-23 10:27:00,
2013-02-23 04:28:00,17.0,13.8,29.73,WNW,300,1.0,7.0,87,0.00,,OVC010,0.00,VWS V14.01,2013-02-23 10:28:00,
2013-02-23 04:29:00,17.0,13.8,29.73,WNW,300,0.0,7.0,87,0.00,,,0.00,VWS V14.01,2013-02-23 10:29:00,
2013-02-23 04:30:00,17.0,13.8,29.73,WNW,300,1.0,7.0,87,0.00,,,0.00,VWS V14.01,2013-02-23 10:30:00,
2013-02-23 04:31:00,17.0,13.8,29.73,WNW,300,0.0,1.0,87,0.00,,,0.00,VWS V14.01,2013-02-23 10:31:00,
2013-02-23 04:32:00,17.0,13.8,29.73,WNW,300,1.0,3.0,87,0.00,,,0.00,VWS V14.01,2013-02-23 10:32:00,
2013-02-23 04:33:00,17.0,13.8,29.73,WNW,300,1.0,3.0,87,0.00,,,0.00,VWS V14.01,2013-02-23 10:33:00,
2013-02-23 04:34:00,17.0,13.8,29.73,WNW,300,2.0,3.0,87,0.00,,,0.00,VWS V14.01,2013-02-23 10:34:00,
2013-02-23 04:35:00,17.0,13.8,29.73,WNW,300,2.0,4.0,87,0.00,,,0.00,VWS V14.01,2013-02-23 10:35:00,
2013-02-23 04:36:00,17.0,13.8,29.73,WNW,300,1.0,5.0,87,0.00,,,0.00,VWS V14.01,2013-02-23 10:36:00,
2013-02-23 04:37:00,17.0,13.8,29.73,WNW,300,0.0,5.0,87,0.00,,,0.00,VWS V14.01,2013-02-23 10:37:00,
2013-02-23 04:38:00,17.0,13.8,29.73,WNW,300,0.0,5.0,87,0.00,,,0.00,VWS V14.01,2013-02-23 10:38:00,
2013-02-23 04:39:00,17.0,13.8,29.73,WNW,300,0.0,5.0,87,0.00,,,0.00,VWS V14.01,2013-02-23 10:39:00,
2013-02-23 04:40:00,17.0,13.8,29.73,WNW,300,5.0,5.0,87,0.00,,,0.00,VWS V14.01,2013-02-23 10:40:00,
2013-02-23 04:41:00,17.0,13.8,29.73,WNW,300,0.0,5.0,87,0.00,,,0.00,VWS V14.01,2013-02-23 10:41:00,
2013-02-23 04:42:00,17.0,13.8,29.73,WNW,300,3.0,5.0,87,0.00,,,0.00,VWS V14.01,2013-02-23 10:42:00,
2013-02-23 04:43:00,17.0,13.8,29.73,WNW,300,0.0,5.0,87,0.00,,,0.00,VWS V14.01,2013-02-23 10:43:00,
2013-02-23 04:44:00,17.0,13.8,29.73,WNW,300,0.0,5.0,87,0.00,,,0.00,VWS V14.01,2013-02-23 10:44:00,
2013-02-23 04:45:00,17.0,13.8,29.73,WNW,300,3.0,5.0,87,0.00,,,0.00,VWS V14.01,2013-02-23 10:45:00,
2013-02-23 04:46:00,17.0,13.8,29.73,WNW,300,0.0,5.0,87,0.00,,,0.00,VWS V14.01,2013-02-23 10:46:00,
2013-02-23 04:47:00,17.0,13.8,29.73,WNW,300,0.0,5.0,87,0.00,,,0.00,VWS V14.01,2013-02-23 10:47:00,
2013-02-23 04:48:00,17.0,13.8,29.73,WNW,300,0.0,5.0,87,0.00,,,0.00,VWS V14.01,2013-02-23 10:48:00,
2013-02-23 04:49:00,17.0,13.8,29.73,WNW,300,1.0,5.0,87,0.00,,,0.00,VWS V14.01,2013-02-23 10:49:00,
2013-02-23 04:50:00,17.0,13.8,29.73,WNW,300,3.0,5.0,87,0.00,,,0.00,VWS V14.01,2013-02-23 10:50:00,
2013-02-23 04:51:00,17.0,13.8,29.73,WNW,300,2.0,5.0,87,0.00,,,0.00,VWS V14.01,2013-02-23 10:51:00,
2013-02-23 04:52:00,17.0,13.8,29.73,WNW,300,0.0,5.0,87,0.00,,,0.00,VWS V14.01,2013-02-23 10:52:00,
2013-02-23 04:53:00,17.0,13.8,29.73,WNW,300,0.0,5.0,87,0.00,,,0.00,VWS V14.01,2013-02-23 10:53:00,
2013-02-23 04:54:00,16.9,13.7,29.73,WNW,300,0.0,5.0,87,0.00,,,0.00,VWS V14.01,2013-02-23 10:54:00,
2013-02-23 04:55:00,16.9,13.7,29.73,WNW,300,2.0,5.0,87,0.00,,,0.00,VWS V14.01,2013-02-23 10:55:00,
2013-02-23 04:56:00,16.9,13.7,29.73,WNW,300,4.0,5.0,87,0.00,,,0.00,VWS V14.01,2013-02-23 10:56:00,
2013-02-23 04:57:00,16.9,13.7,29.73,WNW,300,0.0,5.0,87,0.00,,,0.00,VWS V14.01,2013-02-23 10:57:00,
2013-02-23 04:58:00,16.9,13.7,29.73,WNW,300,0.0,5.0,87,0.00,,,0.00,VWS V14.01,2013-02-23 10:58:00,
2013-02-23 04:59:00,16.9,13.7,29.73,WNW,300,0.0,5.0,87,0.00,,,0.00,VWS V14.01,2013-02-23 10:59:00,
2013-02-23 05:00:00,16.9,13.7,29.73,WNW,300,1.0,5.0,87,0.00,,,0.00,VWS V14.01,2013-02-23 11:00:00,
2013-02-23 05:01:00,16.9,13.7,29.73,WNW,300,1.0,2.0,87,0.00,,,0.00,VWS V14.01,2013-02-23 11:01:00,
2013-02-23 05:02:00,16.9,13.7,29.73,WNW,300,0.0,2.0,87,0.00,,,0.00,VWS V14.01,2013-02-23 11:02:00,
2013-02-23 05:03:00,16.9,13.7,29.73,WNW,300,0.0,2.0,87,0.00,,,0.00,VWS V14.01,2013-02-23 11:03:00,
2013-02-23 05:04:00,16.9,13.7,29.73,WNW,300,2.0,3.0,87,0.00,,,0.00,VWS V14.01,2013-02-23 11:04:00,
2013-02-23 05:05:00,16.9,13.7,29.73,WNW,300,0.0,5.0,87,0.00,,,0.00,VWS V14.01,2013-02-23 11:05:00,
2013-02-23 05:06:00,16.9,13.7,29.73,WNW,300,0.0,5.0,87,0.00,,,0.00,VWS V14.01,2013-02-23 11:06:00,
2013-02-23 05:07:00,16.9,13.7,29.73,WNW,300,1.0,6.0,87,0.00,,,0.00,VWS V14.01,2013-02-23 11:07:00,
2013-02-23 05:08:00,16.7,13.5,29.73,WNW,300,6.0,6.0,87,0.00,,,0.00,VWS V14.01,2013-02-23 11:08:00,
2013-02-23 05:09:00,16.7,13.5,29.73,WNW,300,1.0,6.0,87,0.00,,,0.00,VWS V14.01,2013-02-23 11:09:00,
2013-02-23 05:10:00,16.7,13.5,29.73,WNW,300,0.0,6.0,87,0.00,,,0.00,VWS V14.01,2013-02-23 11:10:00,
2013-02-23 05:11:00,16.7,13.5,29.73,WNW,300,0.0,6.0,87,0.00,,,0.00,VWS V14.01,2013-02-23 11:11:00,
2013-02-23 05:12:00,16.7,13.5,29.73,WNW,300,0.0,6.0,87,0.00,,,0.00,VWS V14.01,2013-02-23 11:12:00,
2013-02-23 05:13:00,16.7,13.5,29.73,WNW,300,0.0,6.0,87,0.00,,,0.00,VWS V14.01,2013-02-23 11:13:00,
2013-02-23 05:14:00,16.7,13.2,29.73,WNW,300,0.0,6.0,86,0.00,,,0.00,VWS V14.01,2013-02-23 11:14:00,
2013-02-23 05:15:00,16.7,13.5,29.73,WNW,300,0.0,6.0,87,0.00,,,0.00,VWS V14.01,2013-02-23 11:15:00,
2013-02-23 05:16:00,16.7,13.2,29.73,WNW,300,0.0,6.0,86,0.00,,,0.00,VWS V14.01,2013-02-23 11:16:00,
2013-02-23 05:17:00,16.7,13.5,29.73,WNW,300,2.0,6.0,87,0.00,,,0.00,VWS V14.01,2013-02-23 11:17:00,
2013-02-23 05:18:00,16.7,13.5,29.73,WNW,300,0.0,6.0,87,0.00,,,0.00,VWS V14.01,2013-02-23 11:18:00,
2013-02-23 05:19:00,16.5,13.1,29.73,WNW,300,0.0,6.0,86,0.00,,,0.00,VWS V14.01,2013-02-23 11:19:00,
2013-02-23 05:20:00,16.5,13.1,29.73,WNW,300,1.0,6.0,86,0.00,,,0.00,VWS V14.01,2013-02-23 11:20:00,
2013-02-23 05:21:00,16.5,13.1,29.73,WNW,300,0.0,6.0,86,0.00,,,0.00,VWS V14.01,2013-02-23 11:21:00,
2013-02-23 05:22:00,16.5,13.1,29.73,WNW,300,1.0,6.0,86,0.00,,,0.00,VWS V14.01,2013-02-23 11:22:00,
2013-02-23 05:23:00,16.5,13.1,29.73,WNW,300,1.0,6.0,86,0.00,,,0.00,VWS V14.01,2013-02-23 11:23:00,
2013-02-23 05:24:00,16.5,13.1,29.73,WNW,300,0.0,6.0,86,0.00,,,0.00,VWS V14.01,2013-02-23 11:24:00,
2013-02-23 05:25:00,16.5,13.1,29.73,WNW,300,0.0,6.0,86,0.00,,,0.00,VWS V14.01,2013-02-23 11:25:00,
2013-02-23 05:26:00,16.4,12.9,29.73,WNW,300,0.0,6.0,86,0.00,,,0.00,VWS V14.01,2013-02-23 11:26:00,
2013-02-23 05:27:00,16.4,12.9,29.73,WNW,300,0.0,6.0,86,0.00,,,0.00,VWS V14.01,2013-02-23 11:27:00,
2013-02-23 05:28:00,16.4,12.9,29.73,WNW,300,1.0,6.0,86,0.00,,,0.00,VWS V14.01,2013-02-23 11:28:00,
2013-02-23 05:29:00,16.4,12.9,29.73,WNW,300,0.0,6.0,86,0.00,,,0.00,VWS V14.01,2013-02-23 11:29:00,
2013-02-23 05:30:00,16.4,12.9,29.73,WNW,300,0.0,6.0,86,0.00,,,0.00,VWS V14.01,2013-02-23 11:30:00,
2013-02-23 05:31:00,16.2,12.8,29.73,WNW,300,0.0,0.0,86,0.00,,,0.00,VWS V14.01,2013-02-23 11:31:00,
2013-02-23 05:32:00,16.2,12.8,29.73,WNW,300,0.0,0.0,86,0.00,,,0.00,VWS V14.01,2013-02-23 11:32:00,
2013-02-23 05:33:00,16.2,12.8,29.73,WNW,300,0.0,0.0,86,0.00,,,0.00,VWS V14.01,2013-02-23 11:33:00,
2013-02-23 05:34:00,16.2,12.8,29.73,WNW,300,0.0,0.0,86,0.00,,,0.00,VWS V14.01,2013-02-23 11:34:00,
2013-02-23 05:35:00,16.2,12.8,29.73,WNW,300,0.0,0.0,86,0.00,,,0.00,VWS V14.01,2013-02-23 11:35:00,
2013-02-23 05:36:00,16.2,12.8,29.73,WNW,300,0.0,0.0,86,0.00,,,0.00,VWS V14.01,2013-02-23 11:36:00,
2013-02-23 05:37:00,16.2,12.8,29.73,WNW,300,0.0,0.0,86,0.00,,,0.00,VWS V14.01,2013-02-23 11:37:00,
2013-02-23 05:38:00,16.2,12.8,29.73,WNW,300,0.0,0.0,86,0.00,,,0.00,VWS V14.01,2013-02-23 11:38:00,
2013-02-23 05:39:00,16.1,12.7,29.73,WNW,300,0.0,1.0,86,0.00,,,0.00,VWS V14.01,2013-02-23 11:39:00,
2013-02-23 05:40:00,16.1,12.7,29.73,WNW,300,0.0,1.0,86,0.00,,,0.00,VWS V14.01,2013-02-23 11:40:00,
2013-02-23 05:41:00,16.1,12.7,29.73,WNW,300,1.0,1.0,86,0.00,,,0.00,VWS V14.01,2013-02-23 11:41:00,
2013-02-23 05:42:00,16.1,12.7,29.73,WNW,300,0.0,1.0,86,0.00,,,0.00,VWS V14.01,2013-02-23 11:42:00,
2013-02-23 05:43:00,16.1,12.7,29.73,WNW,300,0.0,1.0,86,0.00,,OVC010,0.00,VWS V14.01,2013-02-23 11:43:00,
2013-02-23 05:44:00,16.1,12.7,29.73,WNW,300,0.0,1.0,86,0.00,,OVC010,0.00,VWS V14.01,2013-02-23 11:44:00,
2013-02-23 05:45:00,16.1,12.7,29.73,WNW,300,0.0,1.0,86,0.00,,OVC010,0.00,VWS V14.01,2013-02-23 11:45:00,
2013-02-23 05:46:00,16.1,12.7,29.73,WNW,300,2.0,3.0,86,0.00,,OVC010,0.00,VWS V14.01,2013-02-23 11:46:00,
2013-02-23 05:47:00,16.1,12.7,29.73,WNW,300,1.0,3.0,86,0.00,,OVC010,0.00,VWS V14.01,2013-02-23 11:47:00,
2013-02-23 05:48:00,15.9,12.5,29.73,WNW,300,0.0,3.0,86,0.00,,OVC010,0.00,VWS V14.01,2013-02-23 11:48:00,
2013-02-23 05:49:00,15.9,12.5,29.73,WNW,300,0.0,3.0,86,0.00,,OVC010,0.00,VWS V14.01,2013-02-23 11:49:00,
2013-02-23 05:50:00,15.9,12.5,29.73,WNW,300,0.0,3.0,86,0.00,,OVC010,0.00,VWS V14.01,2013-02-23 11:50:00,
2013-02-23 05:51:00,15.9,12.5,29.73,WNW,300,0.0,3.0,86,0.00,,OVC010,0.00,VWS V14.01,2013-02-23 11:51:00,
2013-02-23 05:52:00,15.9,12.5,29.73,WNW,300,0.0,3.0,86,0.00,,OVC010,0.00,VWS V14.01,2013-02-23 11:52:00,
2013-02-23 05:53:00,15.9,12.5,29.73,WNW,300,0.0,3.0,86,0.00,,OVC010,0.00,VWS V14.01,2013-02-23 11:53:00,
2013-02-23 05:54:00,15.9,12.5,29.73,WNW,300,0.0,3.0,86,0.00,,OVC010,0.00,VWS V14.01,2013-02-23 11:54:00,
2013-02-23 05:55:00,15.9,12.5,29.73,WNW,300,0.0,3.0,86,0.00,,OVC010,0.00,VWS V14.01,2013-02-23 11:55:00,
2013-02-23 05:56:00,15.7,12.3,29.73,WNW,300,0.0,3.0,86,0.00,,OVC010,0.00,VWS V14.01,2013-02-23 11:56:00,
2013-02-23 05:57:00,15.7,12.3,29.73,WNW,300,0.0,3.0,86,0.00,,OVC010,0.00,VWS V14.01,2013-02-23 11:57:00,
2013-02-23 05:58:00,15.7,12.3,29.73,WNW,300,0.0,3.0,86,0.00,,OVC010,0.00,VWS V14.01,2013-02-23 11:58:00,
2013-02-23 05:59:00,15.7,12.3,29.73,WNW,300,0.0,3.0,86,0.00,,OVC010,0.00,VWS V14.01,2013-02-23 11:59:00,
2013-02-23 06:00:00,15.7,12.3,29.74,WNW,300,0.0,4.0,86,0.00,,OVC010,0.00,VWS V14.01,2013-02-23 12:00:00,
2013-02-23 06:01:00,15.7,12.3,29.74,WNW,300,0.0,1.0,86,0.00,,OVC010,0.00,VWS V14.01,2013-02-23 12:01:00,
2013-02-23 06:02:00,15.7,12.3,29.74,WNW,300,0.0,1.0,86,0.00,,OVC010,0.00,VWS V14.01,2013-02-23 12:02:00,
2013-02-23 06:03:00,15.7,12.3,29.74,WNW,300,0.0,1.0,86,0.00,,OVC010,0.00,VWS V14.01,2013-02-23 12:03:00,
2013-02-23 06:04:00,15.7,12.3,29.74,WNW,300,1.0,3.0,86,0.00,,OVC010,0.00,VWS V14.01,2013-02-23 12:04:00,
2013-02-23 06:05:00,15.7,12.3,29.74,WNW,300,3.0,3.0,86,0.00,,OVC010,0.00,VWS V14.01,2013-02-23 12:05:00,
2013-02-23 06:06:00,15.7,12.3,29.74,WNW,300,0.0,3.0,86,0.00,,OVC010,0.00,VWS V14.01,2013-02-23 12:06:00,
2013-02-23 06:07:00,15.7,12.3,29.74,WNW,300,0.0,3.0,86,0.00,,OVC010,0.00,VWS V14.01,2013-02-23 12:07:00,
2013-02-23 06:08:00,15.7,12.3,29.74,WNW,300,0.0,3.0,86,0.00,,OVC010,0.00,VWS V14.01,2013-02-23 12:08:00,
2013-02-23 06:09:00,15.7,12.3,29.74,WNW,300,1.0,3.0,86,0.00,,OVC010,0.00,VWS V14.01,2013-02-23 12:09:00,
2013-02-23 06:10:00,15.7,12.3,29.74,WNW,300,2.0,3.0,86,0.00,,OVC010,0.00,VWS V14.01,2013-02-23 12:10:00,
2013-02-23 06:11:00,15.7,12.3,29.74,WNW,300,0.0,3.0,86,0.00,,OVC010,0.00,VWS V14.01,2013-02-23 12:11:00,
2013-02-23 06:12:00,15.7,12.3,29.74,WNW,300,0.0,3.0,86,0.00,,OVC010,0.00,VWS V14.01,2013-02-23 12:12:00,
2013-02-23 06:13:00,15.7,12.3,29.74,WNW,300,0.0,3.0,86,0.00,,OVC010,0.00,VWS V14.01,2013-02-23 12:13:00,
2013-02-23 06:14:00,15.7,12.3,29.74,WNW,300,0.0,3.0,86,0.00,,OVC010,0.00,VWS V14.01,2013-02-23 12:14:00,
2013-02-23 06:15:00,15.7,12.3,29.73,WNW,300,0.0,3.0,86,0.00,,OVC010,0.00,VWS V14.01,2013-02-23 12:15:00,
2013-02-23 06:16:00,15.7,12.3,29.73,WNW,300,0.0,3.0,86,0.00,,OVC010,0.00,VWS V14.01,2013-02-23 12:16:00,
2013-02-23 06:17:00,15.7,12.3,29.73,WNW,300,0.0,3.0,86,0.00,,OVC010,0.00,VWS V14.01,2013-02-23 12:17:00,
2013-02-23 06:18:00,15.7,12.3,29.73,WNW,300,0.0,3.0,86,0.00,,OVC010,0.00,VWS V14.01,2013-02-23 12:18:00,
2013-02-23 06:19:00,15.7,12.3,29.73,WNW,300,0.0,3.0,86,0.00,,OVC010,0.00,VWS V14.01,2013-02-23 12:19:00,
2013-02-23 06:20:00,15.7,12.3,29.73,WNW,300,1.0,3.0,86,0.00,,OVC010,0.00,VWS V14.01,2013-02-23 12:20:00,
2013-02-23 06:21:00,15.7,12.3,29.73,WNW,300,0.0,3.0,86,0.00,,OVC010,0.00,VWS V14.01,2013-02-23 12:21:00,
2013-02-23 06:22:00,15.6,12.2,29.73,WNW,300,0.0,3.0,86,0.00,,OVC010,0.00,VWS V14.01,2013-02-23 12:22:00,
2013-02-23 06:23:00,15.6,12.2,29.73,WNW,300,0.0,3.0,86,0.00,,OVC010,0.00,VWS V14.01,2013-02-23 12:23:00,
2013-02-23 06:24:00,15.6,12.2,29.73,WNW,300,0.0,3.0,86,0.00,,OVC010,0.00,VWS V14.01,2013-02-23 12:24:00,
2013-02-23 06:25:00,15.6,12.2,29.73,WNW,300,0.0,3.0,86,0.00,,OVC010,0.00,VWS V14.01,2013-02-23 12:25:00,
2013-02-23 06:26:00,15.6,12.2,29.73,WNW,300,0.0,3.0,86,0.00,,OVC010,0.00,VWS V14.01,2013-02-23 12:26:00,
2013-02-23 06:27:00,15.6,12.2,29.73,WNW,300,0.0,3.0,86,0.00,,OVC010,0.00,VWS V14.01,2013-02-23 12:27:00,
2013-02-23 06:28:00,15.6,12.2,29.73,WNW,300,0.0,3.0,86,0.00,,OVC010,0.00,VWS V14.01,2013-02-23 12:28:00,
2013-02-23 06:29:00,15.6,12.2,29.73,WNW,300,0.0,3.0,86,0.00,,OVC010,0.00,VWS V14.01,2013-02-23 12:29:00,
2013-02-23 06:30:00,15.6,12.2,29.73,WNW,300,0.0,3.0,86,0.00,,OVC010,0.00,VWS V14.01,2013-02-23 12:30:00,
2013-02-23 06:31:00,15.6,12.2,29.73,WNW,300,0.0,0.0,86,0.00,,OVC010,0.00,VWS V14.01,2013-02-23 12:31:00,
2013-02-23 06:32:00,15.6,12.2,29.73,WNW,300,0.0,0.0,86,0.00,,OVC010,0.00,VWS V14.01,2013-02-23 12:32:00,
2013-02-23 06:33:00,15.6,12.2,29.73,WNW,300,0.0,0.0,86,0.00,,OVC010,0.00,VWS V14.01,2013-02-23 12:33:00,
2013-02-23 06:34:00,15.6,12.2,29.73,WNW,300,0.0,1.0,86,0.00,,OVC010,0.00,VWS V14.01,2013-02-23 12:34:00,
2013-02-23 06:35:00,15.6,12.2,29.73,WNW,300,0.0,1.0,86,0.00,,OVC010,0.00,VWS V14.01,2013-02-23 12:35:00,
2013-02-23 06:36:00,15.6,12.2,29.73,WNW,300,0.0,1.0,86,0.00,,OVC010,0.00,VWS V14.01,2013-02-23 12:36:00,
2013-02-23 06:37:00,15.6,12.2,29.73,WNW,300,0.0,1.0,86,0.00,,OVC010,0.00,VWS V14.01,2013-02-23 12:37:00,
2013-02-23 06:38:00,15.6,12.2,29.73,WNW,300,0.0,1.0,86,0.00,,OVC010,0.00,VWS V14.01,2013-02-23 12:38:00,
2013-02-23 06:39:00,15.6,12.2,29.73,WNW,300,0.0,1.0,86,0.00,,OVC010,0.00,VWS V14.01,2013-02-23 12:39:00,
2013-02-23 06:40:00,15.6,12.2,29.73,WNW,300,0.0,1.0,86,0.00,,OVC010,0.00,VWS V14.01,2013-02-23 12:40:00,
2013-02-23 06:41:00,15.6,12.2,29.73,WNW,300,0.0,1.0,86,0.00,,OVC010,0.00,VWS V14.01,2013-02-23 12:41:00,
2013-02-23 06:42:00,15.6,12.2,29.73,WNW,300,0.0,1.0,86,0.00,,OVC010,0.00,VWS V14.01,2013-02-23 12:42:00,
2013-02-23 06:43:00,15.6,12.2,29.73,WNW,300,0.0,1.0,86,0.00,,OVC010,0.00,VWS V14.01,2013-02-23 12:43:00,
2013-02-23 06:44:00,15.6,12.2,29.73,WNW,300,1.0,1.0,86,0.00,,OVC010,0.00,VWS V14.01,2013-02-23 12:44:00,
2013-02-23 06:45:00,15.6,12.2,29.73,WNW,300,2.0,2.0,86,0.00,,OVC010,0.00,VWS V14.01,2013-02-23 12:45:00,
2013-02-23 06:46:00,15.6,12.2,29.73,WNW,300,0.0,2.0,86,0.00,,OVC010,0.00,VWS V14.01,2013-02-23 12:46:00,
2013-02-23 06:47:00,15.7,12.3,29.73,WNW,300,0.0,2.0,86,0.00,,OVC010,0.00,VWS V14.01,2013-02-23 12:47:00,
2013-02-23 06:48:00,15.7,12.3,29.73,WNW,300,0.0,2.0,86,0.00,,OVC010,0.00,VWS V14.01,2013-02-23 12:48:00,
2013-02-23 06:49:00,15.7,12.3,29.73,WNW,300,0.0,2.0,86,0.00,,OVC010,0.00,VWS V14.01,2013-02-23 12:49:00,
2013-02-23 06:50:00,15.7,12.3,29.73,WNW,300,0.0,2.0,86,0.00,,OVC010,0.00,VWS V14.01,2013-02-23 12:50:00,
2013-02-23 06:51:00,15.7,12.3,29.73,WNW,300,0.0,2.0,86,0.00,,OVC010,0.00,VWS V14.01,2013-02-23 12:51:00,
2013-02-23 06:52:00,15.7,12.3,29.73,WNW,300,0.0,2.0,86,0.00,,OVC010,0.00,VWS V14.01,2013-02-23 12:52:00,
2013-02-23 06:53:00,15.7,12.3,29.73,WNW,300,0.0,2.0,86,0.00,,OVC010,0.00,VWS V14.01,2013-02-23 12:53:00,
2013-02-23 06:54:00,15.7,12.3,29.73,WNW,300,0.0,2.0,86,0.00,,OVC010,0.00,VWS V14.01,2013-02-23 12:54:00,
2013-02-23 06:55:00,15.7,12.3,29.73,WNW,300,0.0,2.0,86,0.00,,OVC010,0.00,VWS V14.01,2013-02-23 12:55:00,
2013-02-23 06:56:00,15.7,12.3,29.73,WNW,300,0.0,2.0,86,0.00,,OVC010,0.00,VWS V14.01,2013-02-23 12:56:00,
2013-02-23 06:57:00,15.7,12.3,29.73,WNW,300,0.0,2.0,86,0.00,,OVC010,0.00,VWS V14.01,2013-02-23 12:57:00,
2013-02-23 06:58:00,15.9,12.5,29.73,WNW,300,0.0,2.0,86,0.00,,OVC010,0.00,VWS V14.01,2013-02-23 12:58:00,
2013-02-23 06:59:00,15.9,12.5,29.73,WNW,300,0.0,2.0,86,0.00,,OVC010,0.00,VWS V14.01,2013-02-23 12:59:00,
2013-02-23 07:00:00,15.9,12.5,29.73,WNW,300,0.0,2.0,86,0.00,,OVC010,0.00,VWS V14.01,2013-02-23 13:00:00,
2013-02-23 07:01:00,15.9,12.5,29.73,WNW,300,0.0,0.0,86,0.00,,OVC010,0.00,VWS V14.01,2013-02-23 13:01:00,
2013-02-23 07:02:00,15.9,12.5,29.73,WNW,300,1.0,1.0,86,0.00,,OVC010,0.00,VWS V14.01,2013-02-23 13:02:00,
2013-02-23 07:03:00,15.9,12.5,29.73,WNW,300,0.0,1.0,86,0.00,,OVC010,0.00,VWS V14.01,2013-02-23 13:03:00,
2013-02-23 07:04:00,16.1,12.7,29.73,WNW,300,0.0,1.0,86,0.00,,OVC010,0.00,VWS V14.01,2013-02-23 13:04:00,
2013-02-23 07:05:00,16.1,12.7,29.73,WNW,300,0.0,1.0,86,0.00,,OVC010,0.00,VWS V14.01,2013-02-23 13:05:00,
2013-02-23 07:06:00,16.1,12.7,29.73,WNW,300,0.0,1.0,86,0.00,,OVC010,0.00,VWS V14.01,2013-02-23 13:06:00,
2013-02-23 07:07:00,16.1,12.7,29.73,WNW,300,0.0,1.0,86,0.00,,OVC010,0.00,VWS V14.01,2013-02-23 13:07:00,
2013-02-23 07:08:00,16.1,12.7,29.73,WNW,300,0.0,1.0,86,0.00,,OVC010,0.00,VWS V14.01,2013-02-23 13:08:00,
2013-02-23 07:09:00,16.1,12.7,29.73,WNW,300,0.0,1.0,86,0.00,,OVC010,0.00,VWS V14.01,2013-02-23 13:09:00,
2013-02-23 07:10:00,16.1,12.7,29.73,WNW,300,0.0,1.0,86,0.00,,OVC010,0.00,VWS V14.01,2013-02-23 13:10:00,
2013-02-23 07:11:00,16.2,12.8,29.73,WNW,300,0.0,1.0,86,0.00,,OVC010,0.00,VWS V14.01,2013-02-23 13:11:00,
2013-02-23 07:12:00,16.2,12.8,29.73,WNW,300,0.0,1.0,86,0.00,,OVC010,0.00,VWS V14.01,2013-02-23 13:12:00,
2013-02-23 07:13:00,16.2,12.8,29.73,WNW,300,0.0,1.0,86,0.00,,,0.00,VWS V14.01,2013-02-23 13:13:00,
2013-02-23 07:14:00,16.2,12.8,29.73,WNW,300,0.0,1.0,86,0.00,,,0.00,VWS V14.01,2013-02-23 13:14:00,
2013-02-23 07:15:00,16.2,12.8,29.74,WNW,300,0.0,1.0,86,0.00,,,0.00,VWS V14.01,2013-02-23 13:15:00,
2013-02-23 07:16:00,16.2,12.8,29.74,WNW,300,0.0,1.0,86,0.00,,,0.00,VWS V14.01,2013-02-23 13:16:00,
2013-02-23 07:17:00,16.2,12.8,29.74,WNW,300,0.0,1.0,86,0.00,,,0.00,VWS V14.01,2013-02-23 13:17:00,
2013-02-23 07:18:00,16.2,12.8,29.74,WNW,300,0.0,1.0,86,0.00,,,0.00,VWS V14.01,2013-02-23 13:18:00,
2013-02-23 07:19:00,16.4,12.9,29.74,WNW,300,0.0,2.0,86,0.00,,,0.00,VWS V14.01,2013-02-23 13:19:00,
2013-02-23 07:20:00,16.4,12.9,29.74,WNW,300,2.0,2.0,86,0.00,,,0.00,VWS V14.01,2013-02-23 13:20:00,
2013-02-23 07:21:00,16.4,12.9,29.74,WNW,300,0.0,2.0,86,0.00,,,0.00,VWS V14.01,2013-02-23 13:21:00,
2013-02-23 07:22:00,16.4,12.9,29.74,WNW,300,3.0,3.0,86,0.00,,,0.00,VWS V14.01,2013-02-23 13:22:00,
2013-02-23 07:23:00,16.4,12.9,29.74,WNW,300,0.0,3.0,86,0.00,,,0.00,VWS V14.01,2013-02-23 13:23:00,
2013-02-23 07:24:00,16.4,12.9,29.74,WNW,300,0.0,3.0,86,0.00,,,0.00,VWS V14.01,2013-02-23 13:24:00,
2013-02-23 07:25:00,16.4,12.9,29.74,WNW,300,0.0,3.0,86,0.00,,,0.00,VWS V14.01,2013-02-23 13:25:00,
2013-02-23 07:26:00,16.4,12.9,29.74,WNW,300,0.0,3.0,86,0.00,,,0.00,VWS V14.01,2013-02-23 13:26:00,
2013-02-23 07:27:00,16.4,12.9,29.74,WNW,300,0.0,3.0,86,0.00,,,0.00,VWS V14.01,2013-02-23 13:27:00,
2013-02-23 07:28:00,16.4,12.9,29.74,WNW,300,0.0,3.0,86,0.00,,,0.00,VWS V14.01,2013-02-23 13:28:00,
2013-02-23 07:29:00,16.4,12.7,29.74,WNW,300,1.0,3.0,85,0.00,,,0.00,VWS V14.01,2013-02-23 13:29:00,
2013-02-23 07:30:00,16.4,12.9,29.73,WNW,300,0.0,3.0,86,0.00,,,0.00,VWS V14.01,2013-02-23 13:30:00,
2013-02-23 07:31:00,16.5,13.1,29.73,WNW,300,0.0,1.0,86,0.00,,,0.00,VWS V14.01,2013-02-23 13:31:00,
2013-02-23 07:32:00,16.5,13.1,29.73,WNW,300,0.0,1.0,86,0.00,,,0.00,VWS V14.01,2013-02-23 13:32:00,
2013-02-23 07:33:00,16.5,13.1,29.73,WNW,300,0.0,1.0,86,0.00,,,0.00,VWS V14.01,2013-02-23 13:33:00,
2013-02-23 07:34:00,16.5,13.1,29.73,WNW,300,0.0,1.0,86,0.00,,,0.00,VWS V14.01,2013-02-23 13:34:00,
2013-02-23 07:35:00,16.5,13.1,29.73,WNW,300,0.0,1.0,86,0.00,,,0.00,VWS V14.01,2013-02-23 13:35:00,
2013-02-23 07:36:00,16.7,13.2,29.73,WNW,300,0.0,1.0,86,0.00,,,0.00,VWS V14.01,2013-02-23 13:36:00,
2013-02-23 07:37:00,16.7,13.2,29.73,WNW,300,0.0,1.0,86,0.00,,,0.00,VWS V14.01,2013-02-23 13:37:00,
2013-02-23 07:38:00,16.7,13.2,29.73,WNW,300,0.0,1.0,86,0.00,,,0.00,VWS V14.01,2013-02-23 13:38:00,
2013-02-23 07:39:00,16.9,13.4,29.73,WNW,300,0.0,1.0,86,0.00,,,0.00,VWS V14.01,2013-02-23 13:39:00,
2013-02-23 07:40:00,16.9,13.2,29.73,WNW,300,0.0,1.0,85,0.00,,,0.00,VWS V14.01,2013-02-23 13:40:00,
2013-02-23 07:41:00,16.9,13.4,29.73,WNW,300,0.0,1.0,86,0.00,,,0.00,VWS V14.01,2013-02-23 13:41:00,
2013-02-23 07:42:00,16.9,13.4,29.73,WNW,300,0.0,1.0,86,0.00,,,0.00,VWS V14.01,2013-02-23 13:42:00,
2013-02-23 07:43:00,17.0,13.3,29.73,WNW,300,0.0,2.0,85,0.00,,,0.00,VWS V14.01,2013-02-23 13:43:00,
2013-02-23 07:44:00,17.0,13.3,29.73,WNW,300,0.0,2.0,85,0.00,,,0.00,VWS V14.01,2013-02-23 13:44:00,
2013-02-23 07:45:00,17.0,13.3,29.74,WNW,300,0.0,2.0,85,0.00,,,0.00,VWS V14.01,2013-02-23 13:45:00,
2013-02-23 07:46:00,17.2,13.5,29.74,WNW,300,0.0,2.0,85,0.00,,,0.00,VWS V14.01,2013-02-23 13:46:00,
2013-02-23 07:47:00,17.2,13.5,29.74,WNW,300,2.0,2.0,85,0.00,,,0.00,VWS V14.01,2013-02-23 13:47:00,
2013-02-23 07:48:00,17.2,13.5,29.74,WNW,300,2.0,3.0,85,0.00,,,0.00,VWS V14.01,2013-02-23 13:48:00,
2013-02-23 07:49:00,17.2,13.5,29.74,WNW,300,2.0,5.0,85,0.00,,,0.00,VWS V14.01,2013-02-23 13:49:00,
2013-02-23 07:50:00,17.2,13.2,29.74,WNW,300,2.0,5.0,84,0.00,,,0.00,VWS V14.01,2013-02-23 13:50:00,
2013-02-23 07:51:00,17.2,13.2,29.74,WNW,300,1.0,5.0,84,0.00,,,0.00,VWS V14.01,2013-02-23 13:51:00,
2013-02-23 07:52:00,17.2,13.2,29.74,WNW,300,0.0,5.0,84,0.00,,,0.00,VWS V14.01,2013-02-23 13:52:00,
2013-02-23 07:53:00,17.2,13.2,29.74,WNW,300,0.0,5.0,84,0.00,,,0.00,VWS V14.01,2013-02-23 13:53:00,
2013-02-23 07:54:00,17.2,13.2,29.74,WNW,300,0.0,5.0,84,0.00,,,0.00,VWS V14.01,2013-02-23 13:54:00,
2013-02-23 07:55:00,17.2,13.2,29.74,WNW,300,0.0,5.0,84,0.00,,,0.00,VWS V14.01,2013-02-23 13:55:00,
2013-02-23 07:56:00,17.2,13.2,29.74,WNW,300,1.0,5.0,84,0.00,,,0.00,VWS V14.01,2013-02-23 13:56:00,
2013-02-23 07:57:00,17.2,13.2,29.74,WNW,300,0.0,5.0,84,0.00,,,0.00,VWS V14.01,2013-02-23 13:57:00,
2013-02-23 07:58:00,17.2,13.2,29.74,WNW,300,0.0,5.0,84,0.00,,,0.00,VWS V14.01,2013-02-23 13:58:00,
2013-02-23 07:59:00,17.2,13.2,29.74,WNW,300,0.0,5.0,84,0.00,,,0.00,VWS V14.01,2013-02-23 13:59:00,
2013-02-23 08:00:00,17.2,13.2,29.74,WNW,300,0.0,5.0,84,0.00,,,0.00,VWS V14.01,2013-02-23 14:00:00,
2013-02-23 08:01:00,17.3,13.3,29.74,WNW,300,1.0,1.0,84,0.00,,,0.00,VWS V14.01,2013-02-23 14:01:00,
2013-02-23 08:02:00,17.3,13.3,29.74,WNW,300,0.0,1.0,84,0.00,,,0.00,VWS V14.01,2013-02-23 14:02:00,
2013-02-23 08:03:00,17.3,13.3,29.74,WNW,300,0.0,1.0,84,0.00,,,0.00,VWS V14.01,2013-02-23 14:03:00,
2013-02-23 08:04:00,17.3,13.0,29.74,WNW,300,0.0,1.0,83,0.00,,,0.00,VWS V14.01,2013-02-23 14:04:00,
2013-02-23 08:05:00,17.3,13.3,29.74,WNW,300,0.0,1.0,84,0.00,,,0.00,VWS V14.01,2013-02-23 14:05:00,
2013-02-23 08:06:00,17.3,13.3,29.74,WNW,300,0.0,1.0,84,0.00,,,0.00,VWS V14.01,2013-02-23 14:06:00,
2013-02-23 08:07:00,17.5,13.5,29.74,WNW,300,0.0,1.0,84,0.00,,,0.00,VWS V14.01,2013-02-23 14:07:00,
2013-02-23 08:08:00,17.5,13.5,29.74,WNW,300,0.0,2.0,84,0.00,,,0.00,VWS V14.01,2013-02-23 14:08:00,
2013-02-23 08:09:00,17.5,13.5,29.74,WNW,300,1.0,2.0,84,0.00,,,0.00,VWS V14.01,2013-02-23 14:09:00,
2013-02-23 08:10:00,17.7,13.7,29.74,WNW,300,0.0,2.0,84,0.00,,,0.00,VWS V14.01,2013-02-23 14:10:00,
2013-02-23 08:11:00,17.7,13.7,29.74,WNW,300,0.0,2.0,84,0.00,,,0.00,VWS V14.01,2013-02-23 14:11:00,
2013-02-23 08:12:00,17.8,13.5,29.74,WNW,300,0.0,2.0,83,0.00,,,0.00,VWS V14.01,2013-02-23 14:12:00,
2013-02-23 08:13:00,17.8,13.5,29.74,WNW,300,0.0,2.0,83,0.00,,,0.00,VWS V14.01,2013-02-23 14:13:00,
2013-02-23 08:14:00,17.8,13.5,29.74,WNW,300,0.0,2.0,83,0.00,,,0.00,VWS V14.01,2013-02-23 14:14:00,
2013-02-23 08:15:00,18.0,13.7,29.74,WNW,300,2.0,3.0,83,0.00,,,0.00,VWS V14.01,2013-02-23 14:15:00,
2013-02-23 08:16:00,18.0,13.7,29.74,WNW,300,0.0,3.0,83,0.00,,,0.00,VWS V14.01,2013-02-23 14:16:00,
2013-02-23 08:17:00,18.0,13.7,29.74,WNW,300,2.0,3.0,83,0.00,,,0.00,VWS V14.01,2013-02-23 14:17:00,
2013-02-23 08:18:00,18.0,13.4,29.74,WNW,300,3.0,3.0,82,0.00,,,0.00,VWS V14.01,2013-02-23 14:18:00,
2013-02-23 08:19:00,17.8,13.2,29.74,WNW,300,1.0,5.0,82,0.00,,,0.00,VWS V14.01,2013-02-23 14:19:00,
2013-02-23 08:20:00,17.8,13.2,29.74,WNW,300,0.0,5.0,82,0.00,,,0.00,VWS V14.01,2013-02-23 14:20:00,
2013-02-23 08:21:00,17.8,13.2,29.74,WNW,300,3.0,5.0,82,0.00,,,0.00,VWS V14.01,2013-02-23 14:21:00,
2013-02-23 08:22:00,17.8,13.2,29.74,WNW,300,3.0,5.0,82,0.00,,,0.00,VWS V14.01,2013-02-23 14:22:00,
2013-02-23 08:23:00,17.8,13.5,29.74,WNW,300,0.0,5.0,83,0.00,,,0.00,VWS V14.01,2013-02-23 14:23:00,
2013-02-23 08:24:00,17.8,13.5,29.74,WNW,300,0.0,5.0,83,0.00,,,0.00,VWS V14.01,2013-02-23 14:24:00,
2013-02-23 08:25:00,17.8,13.5,29.74,WNW,300,1.0,5.0,83,0.00,,,0.00,VWS V14.01,2013-02-23 14:25:00,
2013-02-23 08:26:00,17.8,13.5,29.74,WNW,300,0.0,5.0,83,0.00,,,0.00,VWS V14.01,2013-02-23 14:26:00,
2013-02-23 08:27:00,18.0,13.7,29.74,WNW,300,0.0,5.0,83,0.00,,,0.00,VWS V14.01,2013-02-23 14:27:00,
2013-02-23 08:28:00,18.0,13.7,29.74,WNW,300,2.0,5.0,83,0.00,,,0.00,VWS V14.01,2013-02-23 14:28:00,
2013-02-23 08:29:00,18.0,13.7,29.74,WNW,300,1.0,5.0,83,0.00,,,0.00,VWS V14.01,2013-02-23 14:29:00,
2013-02-23 08:30:00,18.0,13.7,29.74,WNW,300,1.0,5.0,83,0.00,,,0.00,VWS V14.01,2013-02-23 14:30:00,
2013-02-23 08:31:00,18.0,13.7,29.74,WNW,300,0.0,3.0,83,0.00,,,0.00,VWS V14.01,2013-02-23 14:31:00,
2013-02-23 08:32:00,18.1,13.8,29.74,WNW,300,0.0,3.0,83,0.00,,,0.00,VWS V14.01,2013-02-23 14:32:00,
2013-02-23 08:33:00,18.1,13.8,29.74,WNW,300,0.0,3.0,83,0.00,,,0.00,VWS V14.01,2013-02-23 14:33:00,
2013-02-23 08:34:00,18.1,13.8,29.74,WNW,300,0.0,3.0,83,0.00,,,0.00,VWS V14.01,2013-02-23 14:34:00,
2013-02-23 08:35:00,18.3,14.0,29.74,WNW,300,1.0,3.0,83,0.00,,,0.00,VWS V14.01,2013-02-23 14:35:00,
2013-02-23 08:36:00,18.3,14.0,29.74,WNW,300,0.0,3.0,83,0.00,,,0.00,VWS V14.01,2013-02-23 14:36:00,
2013-02-23 08:37:00,18.3,14.0,29.74,WNW,300,0.0,3.0,83,0.00,,,0.00,VWS V14.01,2013-02-23 14:37:00,
2013-02-23 08:38:00,18.3,13.7,29.74,WNW,295,1.0,8.0,82,0.00,,,0.00,VWS V14.01,2013-02-23 14:38:00,
2013-02-23 08:39:00,18.3,13.5,29.74,WNW,295,0.0,8.0,81,0.00,,,0.00,VWS V14.01,2013-02-23 14:39:00,
2013-02-23 08:40:00,18.3,13.5,29.74,WNW,295,0.0,8.0,81,0.00,,,0.00,VWS V14.01,2013-02-23 14:40:00,
2013-02-23 08:41:00,18.3,13.5,29.74,WNW,295,0.0,8.0,81,0.00,,,0.00,VWS V14.01,2013-02-23 14:41:00,
2013-02-23 08:42:00,18.1,13.3,29.74,WNW,295,3.0,8.0,81,0.00,,,0.00,VWS V14.01,2013-02-23 14:42:00,
2013-02-23 08:43:00,18.1,13.3,29.74,WNW,295,5.0,8.0,81,0.00,,,0.00,VWS V14.01,2013-02-23 14:43:00,
2013-02-23 08:44:00,18.1,13.3,29.74,WNW,295,0.0,8.0,81,0.00,,,0.00,VWS V14.01,2013-02-23 14:44:00,
2013-02-23 08:45:00,18.1,13.3,29.74,WNW,295,0.0,8.0,81,0.00,,,0.00,VWS V14.01,2013-02-23 14:45:00,
2013-02-23 08:46:00,18.0,12.9,29.74,WNW,295,0.0,8.0,80,0.00,,,0.00,VWS V14.01,2013-02-23 14:46:00,
2013-02-23 08:47:00,18.0,12.9,29.74,WNW,295,0.0,8.0,80,0.00,,,0.00,VWS V14.01,2013-02-23 14:47:00,
2013-02-23 08:48:00,18.0,13.2,29.74,WNW,295,0.0,8.0,81,0.00,,,0.00,VWS V14.01,2013-02-23 14:48:00,
2013-02-23 08:49:00,18.0,13.2,29.74,WNW,295,1.0,8.0,81,0.00,,,0.00,VWS V14.01,2013-02-23 14:49:00,
2013-02-23 08:50:00,17.8,13.0,29.74,WNW,295,1.0,8.0,81,0.00,,,0.00,VWS V14.01,2013-02-23 14:50:00,
2013-02-23 08:51:00,17.8,12.7,29.74,WNW,294,5.0,8.0,80,0.00,,,0.00,VWS V14.01,2013-02-23 14:51:00,
2013-02-23 08:52:00,17.7,12.6,29.74,WNW,293,1.0,8.0,80,0.00,,,0.00,VWS V14.01,2013-02-23 14:52:00,
2013-02-23 08:53:00,17.5,12.4,29.74,WNW,293,5.0,8.0,80,0.00,,,0.00,VWS V14.01,2013-02-23 14:53:00,
2013-02-23 08:54:00,17.3,12.2,29.74,WNW,293,1.0,8.0,80,0.00,,,0.00,VWS V14.01,2013-02-23 14:54:00,
2013-02-23 08:55:00,17.3,12.2,29.74,WNW,293,5.0,8.0,80,0.00,,,0.00,VWS V14.01,2013-02-23 14:55:00,
2013-02-23 08:56:00,17.2,12.1,29.74,WNW,293,6.0,8.0,80,0.00,,,0.00,VWS V14.01,2013-02-23 14:56:00,
2013-02-23 08:57:00,17.2,12.1,29.74,WNW,293,0.0,8.0,80,0.00,,,0.00,VWS V14.01,2013-02-23 14:57:00,
2013-02-23 08:58:00,17.0,11.9,29.74,WNW,293,1.0,8.0,80,0.00,,,0.00,VWS V14.01,2013-02-23 14:58:00,
2013-02-23 08:59:00,17.0,12.2,29.74,WNW,293,1.0,8.0,81,0.00,,,0.00,VWS V14.01,2013-02-23 14:59:00,
2013-02-23 09:00:00,17.0,12.2,29.75,WNW,291,5.0,8.0,81,0.00,,,0.00,VWS V14.01,2013-02-23 15:00:00,
2013-02-23 09:01:00,17.0,12.2,29.75,WNW,291,6.0,7.0,81,0.00,,,0.00,VWS V14.01,2013-02-23 15:01:00,
2013-02-23 09:02:00,17.0,12.2,29.75,WNW,291,1.0,7.0,81,0.00,,,0.00,VWS V14.01,2013-02-23 15:02:00,
2013-02-23 09:03:00,17.0,12.2,29.75,WNW,291,5.0,8.0,81,0.00,,,0.00,VWS V14.01,2013-02-23 15:03:00,
2013-02-23 09:04:00,17.0,12.2,29.75,WNW,290,5.0,8.0,81,0.00,,,0.00,VWS V14.01,2013-02-23 15:04:00,
2013-02-23 09:05:00,17.0,12.2,29.75,WNW,290,0.0,8.0,81,0.00,,,0.00,VWS V14.01,2013-02-23 15:05:00,
2013-02-23 09:06:00,17.0,12.2,29.75,WNW,290,0.0,8.0,81,0.00,,,0.00,VWS V14.01,2013-02-23 15:06:00,
2013-02-23 09:07:00,17.2,12.4,29.75,WNW,290,5.0,8.0,81,0.00,,,0.00,VWS V14.01,2013-02-23 15:07:00,
2013-02-23 09:08:00,17.2,12.4,29.75,WNW,290,0.0,8.0,81,0.00,,,0.00,VWS V14.01,2013-02-23 15:08:00,
2013-02-23 09:09:00,17.2,12.4,29.75,WNW,290,3.0,8.0,81,0.00,,,0.00,VWS V14.01,2013-02-23 15:09:00,
2013-02-23 09:10:00,17.3,12.5,29.75,WNW,290,0.0,8.0,81,0.00,,,0.00,VWS V14.01,2013-02-23 15:10:00,
2013-02-23 09:11:00,17.3,12.5,29.75,WNW,290,0.0,8.0,81,0.00,,,0.00,VWS V14.01,2013-02-23 15:11:00,
2013-02-23 09:12:00,17.3,12.5,29.75,WNW,290,0.0,8.0,81,0.00,,,0.00,VWS V14.01,2013-02-23 15:12:00,
2013-02-23 09:13:00,17.5,12.7,29.75,WNW,290,0.0,8.0,81,0.00,,,0.00,VWS V14.01,2013-02-23 15:13:00,
2013-02-23 09:14:00,17.5,12.7,29.75,WNW,290,2.0,8.0,81,0.00,,,0.00,VWS V14.01,2013-02-23 15:14:00,
2013-02-23 09:15:00,17.5,12.4,29.75,WNW,290,4.0,8.0,80,0.00,,,0.00,VWS V14.01,2013-02-23 15:15:00,
2013-02-23 09:16:00,17.5,12.4,29.75,WNW,290,1.0,8.0,80,0.00,,,0.00,VWS V14.01,2013-02-23 15:16:00,
2013-02-23 09:17:00,17.5,12.4,29.75,WNW,290,0.0,8.0,80,0.00,,,0.00,VWS V14.01,2013-02-23 15:17:00,
2013-02-23 09:18:00,17.5,12.4,29.75,WNW,290,5.0,8.0,80,0.00,,,0.00,VWS V14.01,2013-02-23 15:18:00,
2013-02-23 09:19:00,17.3,12.2,29.75,WNW,290,0.0,8.0,80,0.00,,,0.00,VWS V14.01,2013-02-23 15:19:00,
2013-02-23 09:20:00,17.3,12.2,29.75,WNW,290,1.0,8.0,80,0.00,,,0.00,VWS V14.01,2013-02-23 15:20:00,
2013-02-23 09:21:00,17.3,12.2,29.75,WNW,290,3.0,8.0,80,0.00,,,0.00,VWS V14.01,2013-02-23 15:21:00,
2013-02-23 09:22:00,17.3,12.2,29.75,WNW,290,0.0,8.0,80,0.00,,,0.00,VWS V14.01,2013-02-23 15:22:00,
2013-02-23 09:23:00,17.3,12.2,29.75,WNW,290,1.0,8.0,80,0.00,,,0.00,VWS V14.01,2013-02-23 15:23:00,
2013-02-23 09:24:00,17.3,12.2,29.75,WNW,290,0.0,8.0,80,0.00,,,0.00,VWS V14.01,2013-02-23 15:24:00,
2013-02-23 09:25:00,17.5,12.4,29.75,WNW,290,4.0,8.0,80,0.00,,,0.00,VWS V14.01,2013-02-23 15:25:00,
2013-02-23 09:26:00,17.5,12.7,29.75,WNW,290,0.0,8.0,81,0.00,,,0.00,VWS V14.01,2013-02-23 15:26:00,
2013-02-23 09:27:00,17.7,12.6,29.75,WNW,290,1.0,8.0,80,0.00,,,0.00,VWS V14.01,2013-02-23 15:27:00,
2013-02-23 09:28:00,17.7,12.6,29.75,WNW,290,1.0,8.0,80,0.00,,,0.00,VWS V14.01,2013-02-23 15:28:00,
2013-02-23 09:29:00,17.7,12.6,29.75,WNW,290,0.0,8.0,80,0.00,,,0.00,VWS V14.01,2013-02-23 15:29:00,
2013-02-23 09:30:00,17.8,12.7,29.75,WNW,290,2.0,8.0,80,0.00,,,0.00,VWS V14.01,2013-02-23 15:30:00,
2013-02-23 09:31:00,17.8,12.7,29.75,WNW,290,2.0,3.0,80,0.00,,,0.00,VWS V14.01,2013-02-23 15:31:00,
2013-02-23 09:32:00,17.8,12.4,29.75,WNW,290,0.0,5.0,79,0.00,,,0.00,VWS V14.01,2013-02-23 15:32:00,
2013-02-23 09:33:00,17.8,12.4,29.75,WNW,290,0.0,5.0,79,0.00,,,0.00,VWS V14.01,2013-02-23 15:33:00,
2013-02-23 09:34:00,17.8,12.4,29.75,WNW,290,0.0,5.0,79,0.00,,,0.00,VWS V14.01,2013-02-23 15:34:00,
2013-02-23 09:35:00,18.0,12.6,29.75,WNW,290,0.0,5.0,79,0.00,,,0.00,VWS V14.01,2013-02-23 15:35:00,
2013-02-23 09:36:00,18.0,12.6,29.75,WNW,290,0.0,5.0,79,0.00,,,0.00,VWS V14.01,2013-02-23 15:36:00,
2013-02-23 09:37:00,18.0,12.6,29.75,WNW,290,1.0,5.0,79,0.00,,,0.00,VWS V14.01,2013-02-23 15:37:00,
2013-02-23 09:38:00,18.0,12.6,29.75,WNW,290,2.0,5.0,79,0.00,,,0.00,VWS V14.01,2013-02-23 15:38:00,
2013-02-23 09:39:00,18.0,12.6,29.75,WNW,290,0.0,5.0,79,0.00,,,0.00,VWS V14.01,2013-02-23 15:39:00,
2013-02-23 09:40:00,18.0,12.6,29.75,WNW,290,0.0,5.0,79,0.00,,,0.00,VWS V14.01,2013-02-23 15:40:00,
2013-02-23 09:41:00,18.0,12.3,29.75,WNW,290,0.0,5.0,78,0.00,,,0.00,VWS V14.01,2013-02-23 15:41:00,
2013-02-23 09:42:00,17.8,12.4,29.75,WNW,290,0.0,5.0,79,0.00,,,0.00,VWS V14.01,2013-02-23 15:42:00,
2013-02-23 09:43:00,17.8,12.4,29.75,WNW,290,4.0,5.0,79,0.00,,,0.00,VWS V14.01,2013-02-23 15:43:00,
2013-02-23 09:44:00,18.0,12.6,29.75,WNW,290,0.0,6.0,79,0.00,,,0.00,VWS V14.01,2013-02-23 15:44:00,
2013-02-23 09:45:00,18.0,12.6,29.75,WNW,290,0.0,6.0,79,0.00,,,0.00,VWS V14.01,2013-02-23 15:45:00,
2013-02-23 09:46:00,18.0,12.3,29.75,WNW,290,0.0,6.0,78,0.00,,,0.00,VWS V14.01,2013-02-23 15:46:00,
2013-02-23 09:47:00,18.0,12.6,29.75,WNW,290,0.0,6.0,79,0.00,,,0.00,VWS V14.01,2013-02-23 15:47:00,
2013-02-23 09:48:00,18.0,12.6,29.75,WNW,290,0.0,6.0,79,0.00,,,0.00,VWS V14.01,2013-02-23 15:48:00,
2013-02-23 09:49:00,18.0,12.3,29.75,WNW,290,1.0,6.0,78,0.00,,,0.00,VWS V14.01,2013-02-23 15:49:00,
2013-02-23 09:50:00,17.8,12.1,29.75,WNW,290,0.0,6.0,78,0.00,,,0.00,VWS V14.01,2013-02-23 15:50:00,
2013-02-23 09:51:00,17.8,12.1,29.75,WNW,290,0.0,6.0,78,0.00,,,0.00,VWS V14.01,2013-02-23 15:51:00,
2013-02-23 09:52:00,17.8,12.1,29.75,WNW,290,0.0,6.0,78,0.00,,,0.00,VWS V14.01,2013-02-23 15:52:00,
2013-02-23 09:53:00,17.8,12.1,29.75,WNW,290,0.0,6.0,78,0.00,,,0.00,VWS V14.01,2013-02-23 15:53:00,
2013-02-23 09:54:00,17.7,12.0,29.75,WNW,290,1.0,6.0,78,0.00,,,0.00,VWS V14.01,2013-02-23 15:54:00,
2013-02-23 09:55:00,17.5,11.8,29.75,WNW,290,6.0,6.0,78,0.00,,,0.00,VWS V14.01,2013-02-23 15:55:00,
2013-02-23 09:56:00,17.5,11.8,29.75,WNW,290,0.0,7.0,78,0.00,,,0.00,VWS V14.01,2013-02-23 15:56:00,
2013-02-23 09:57:00,17.5,11.8,29.75,WNW,290,0.0,7.0,78,0.00,,,0.00,VWS V14.01,2013-02-23 15:57:00,
2013-02-23 09:58:00,17.3,11.6,29.75,WNW,290,0.0,7.0,78,0.00,,,0.00,VWS V14.01,2013-02-23 15:58:00,
2013-02-23 09:59:00,17.5,12.1,29.75,WNW,290,0.0,7.0,79,0.00,,,0.00,VWS V14.01,2013-02-23 15:59:00,
2013-02-23 10:00:00,17.5,12.1,29.75,WNW,290,3.0,7.0,79,0.00,,,0.00,VWS V14.01,2013-02-23 16:00:00,
2013-02-23 10:01:00,17.3,11.6,29.75,WNW,290,3.0,5.0,78,0.00,,,0.00,VWS V14.01,2013-02-23 16:01:00,
2013-02-23 10:02:00,17.3,11.6,29.75,WNW,290,0.0,5.0,78,0.00,,,0.00,VWS V14.01,2013-02-23 16:02:00,
2013-02-23 10:03:00,17.3,11.6,29.75,WNW,290,2.0,5.0,78,0.00,,,0.00,VWS V14.01,2013-02-23 16:03:00,
2013-02-23 10:04:00,17.3,11.6,29.75,WNW,290,0.0,5.0,78,0.00,,,0.00,VWS V14.01,2013-02-23 16:04:00,
2013-02-23 10:05:00,17.3,11.6,29.75,WNW,290,1.0,6.0,78,0.00,,,0.00,VWS V14.01,2013-02-23 16:05:00,
2013-02-23 10:06:00,17.2,11.5,29.75,WNW,290,1.0,6.0,78,0.00,,,0.00,VWS V14.01,2013-02-23 16:06:00,
2013-02-23 10:07:00,17.2,11.5,29.75,WNW,290,1.0,6.0,78,0.00,,,0.00,VWS V14.01,2013-02-23 16:07:00,
2013-02-23 10:08:00,17.0,11.3,29.75,WNW,290,0.0,6.0,78,0.00,,,0.00,VWS V14.01,2013-02-23 16:08:00,
2013-02-23 10:09:00,17.0,11.6,29.75,WNW,290,2.0,6.0,79,0.00,,,0.00,VWS V14.01,2013-02-23 16:09:00,
2013-02-23 10:10:00,17.2,11.8,29.75,WNW,290,2.0,6.0,79,0.00,,,0.00,VWS V14.01,2013-02-23 16:10:00,
2013-02-23 10:11:00,17.2,11.8,29.75,WNW,290,1.0,6.0,79,0.00,,,0.00,VWS V14.01,2013-02-23 16:11:00,
2013-02-23 10:12:00,17.2,11.8,29.75,WNW,290,0.0,6.0,79,0.00,,,0.00,VWS V14.01,2013-02-23 16:12:00,
2013-02-23 10:13:00,17.2,11.8,29.75,WNW,290,2.0,6.0,79,0.00,,,0.00,VWS V14.01,2013-02-23 16:13:00,
2013-02-23 10:14:00,17.2,11.8,29.75,WNW,290,2.0,6.0,79,0.00,,,0.00,VWS V14.01,2013-02-23 16:14:00,
2013-02-23 10:15:00,17.2,11.8,29.76,WNW,290,0.0,6.0,79,0.00,,,0.00,VWS V14.01,2013-02-23 16:15:00,
2013-02-23 10:16:00,17.3,11.9,29.76,WNW,290,5.0,6.0,79,0.00,,,0.00,VWS V14.01,2013-02-23 16:16:00,
2013-02-23 10:17:00,17.3,11.9,29.76,WNW,290,2.0,6.0,79,0.00,,,0.00,VWS V14.01,2013-02-23 16:17:00,
2013-02-23 10:18:00,17.5,12.1,29.76,WNW,290,2.0,6.0,79,0.00,,,0.00,VWS V14.01,2013-02-23 16:18:00,
2013-02-23 10:19:00,17.5,12.1,29.76,WNW,290,1.0,6.0,79,0.00,,,0.00,VWS V14.01,2013-02-23 16:19:00,
2013-02-23 10:20:00,17.7,12.3,29.76,WNW,290,2.0,6.0,79,0.00,,,0.00,VWS V14.01,2013-02-23 16:20:00,
2013-02-23 10:21:00,17.7,12.3,29.76,WNW,290,0.0,6.0,79,0.00,,,0.00,VWS V14.01,2013-02-23 16:21:00,
2013-02-23 10:22:00,17.8,12.4,29.76,WNW,290,0.0,6.0,79,0.00,,,0.00,VWS V14.01,2013-02-23 16:22:00,
2013-02-23 10:23:00,17.8,12.4,29.76,WNW,290,0.0,6.0,79,0.00,,,0.00,VWS V14.01,2013-02-23 16:23:00,
2013-02-23 10:24:00,18.0,12.6,29.76,WNW,290,0.0,6.0,79,0.00,,,0.00,VWS V14.01,2013-02-23 16:24:00,
2013-02-23 10:25:00,18.1,12.7,29.76,WNW,290,0.0,6.0,79,0.00,,,0.00,VWS V14.01,2013-02-23 16:25:00,
2013-02-23 10:26:00,18.1,12.4,29.76,WNW,290,0.0,6.0,78,0.00,,,0.00,VWS V14.01,2013-02-23 16:26:00,
2013-02-23 10:27:00,18.3,12.6,29.76,WNW,290,0.0,6.0,78,0.00,,,0.00,VWS V14.01,2013-02-23 16:27:00,
2013-02-23 10:28:00,18.3,12.6,29.76,WNW,290,2.0,6.0,78,0.00,,,0.00,VWS V14.01,2013-02-23 16:28:00,
2013-02-23 10:29:00,18.3,12.3,29.76,WNW,290,1.0,6.0,77,0.00,,,0.00,VWS V14.01,2013-02-23 16:29:00,
2013-02-23 10:30:00,18.3,12.6,29.75,WNW,290,0.0,6.0,78,0.00,,,0.00,VWS V14.01,2013-02-23 16:30:00,
2013-02-23 10:31:00,18.3,12.6,29.75,WNW,290,0.0,0.0,78,0.00,,,0.00,VWS V14.01,2013-02-23 16:31:00,
2013-02-23 10:32:00,18.3,12.6,29.75,WNW,290,0.0,0.0,78,0.00,,,0.00,VWS V14.01,2013-02-23 16:32:00,
2013-02-23 10:33:00,18.4,12.7,29.75,WNW,290,0.0,0.0,78,0.00,,,0.00,VWS V14.01,2013-02-23 16:33:00,
2013-02-23 10:34:00,18.4,12.7,29.75,WNW,290,0.0,1.0,78,0.00,,,0.00,VWS V14.01,2013-02-23 16:34:00,
2013-02-23 10:35:00,18.4,12.7,29.75,WNW,290,3.0,3.0,78,0.00,,,0.00,VWS V14.01,2013-02-23 16:35:00,
2013-02-23 10:36:00,18.4,12.4,29.75,WNW,290,0.0,5.0,77,0.00,,,0.00,VWS V14.01,2013-02-23 16:36:00,
2013-02-23 10:37:00,18.4,12.4,29.75,WNW,290,1.0,5.0,77,0.00,,,0.00,VWS V14.01,2013-02-23 16:37:00,
2013-02-23 10:38:00,18.4,12.4,29.75,WNW,290,5.0,5.0,77,0.00,,,0.00,VWS V14.01,2013-02-23 16:38:00,
2013-02-23 10:39:00,18.4,12.4,29.75,WNW,290,1.0,5.0,77,0.00,,,0.00,VWS V14.01,2013-02-23 16:39:00,
2013-02-23 10:40:00,18.4,12.4,29.75,WNW,290,1.0,5.0,77,0.00,,,0.00,VWS V14.01,2013-02-23 16:40:00,
2013-02-23 10:41:00,18.4,12.7,29.75,WNW,290,1.0,5.0,78,0.00,,,0.00,VWS V14.01,2013-02-23 16:41:00,
2013-02-23 10:42:00,18.6,12.9,29.75,WNW,290,0.0,5.0,78,0.00,,,0.00,VWS V14.01,2013-02-23 16:42:00,
2013-02-23 10:43:00,18.8,13.1,29.75,WNW,290,0.0,5.0,78,0.00,,,0.00,VWS V14.01,2013-02-23 16:43:00,
2013-02-23 10:44:00,18.8,12.8,29.75,WNW,290,2.0,5.0,77,0.00,,,0.00,VWS V14.01,2013-02-23 16:44:00,
2013-02-23 10:45:00,18.8,12.8,29.75,WNW,290,3.0,5.0,77,0.00,,,0.00,VWS V14.01,2013-02-23 16:45:00,
2013-02-23 10:46:00,18.8,12.8,29.75,WNW,290,0.0,5.0,77,0.00,,,0.00,VWS V14.01,2013-02-23 16:46:00,
2013-02-23 10:47:00,18.8,12.8,29.75,WNW,290,0.0,5.0,77,0.00,,,0.00,VWS V14.01,2013-02-23 16:47:00,
2013-02-23 10:48:00,18.9,12.9,29.75,WNW,290,1.0,5.0,77,0.00,,,0.00,VWS V14.01,2013-02-23 16:48:00,
2013-02-23 10:49:00,18.9,13.2,29.75,WNW,290,0.0,5.0,78,0.00,,,0.00,VWS V14.01,2013-02-23 16:49:00,
2013-02-23 10:50:00,18.9,12.9,29.75,WNW,290,0.0,5.0,77,0.00,,,0.00,VWS V14.01,2013-02-23 16:50:00,
2013-02-23 10:51:00,18.9,12.9,29.75,WNW,290,1.0,5.0,77,0.00,,,0.00,VWS V14.01,2013-02-23 16:51:00,
2013-02-23 10:52:00,18.9,12.9,29.75,WNW,290,3.0,5.0,77,0.00,,,0.00,VWS V14.01,2013-02-23 16:52:00,
2013-02-23 10:53:00,18.9,12.9,29.75,WNW,290,0.0,5.0,77,0.00,,,0.00,VWS V14.01,2013-02-23 16:53:00,
2013-02-23 10:54:00,18.9,13.2,29.75,WNW,290,0.0,5.0,78,0.00,,,0.00,VWS V14.01,2013-02-23 16:54:00,
2013-02-23 10:55:00,19.1,13.4,29.75,WNW,290,0.0,5.0,78,0.00,,,0.00,VWS V14.01,2013-02-23 16:55:00,
2013-02-23 10:56:00,19.1,13.4,29.75,WNW,290,0.0,5.0,78,0.00,,,0.00,VWS V14.01,2013-02-23 16:56:00,
2013-02-23 10:57:00,19.2,13.5,29.75,WNW,290,0.0,5.0,78,0.00,,,0.00,VWS V14.01,2013-02-23 16:57:00,
2013-02-23 10:58:00,19.2,13.2,29.75,WNW,290,0.0,5.0,77,0.00,,,0.00,VWS V14.01,2013-02-23 16:58:00,
2013-02-23 10:59:00,19.4,13.4,29.75,WNW,290,0.0,5.0,77,0.00,,,0.00,VWS V14.01,2013-02-23 16:59:00,
2013-02-23 11:00:00,19.5,13.8,29.75,WNW,290,2.0,5.0,78,0.00,,,0.00,VWS V14.01,2013-02-23 17:00:00,
2013-02-23 11:01:00,19.7,14.0,29.75,WNW,290,3.0,3.0,78,0.00,,,0.00,VWS V14.01,2013-02-23 17:01:00,
2013-02-23 11:02:00,19.7,14.0,29.75,WNW,290,2.0,3.0,78,0.00,,,0.00,VWS V14.01,2013-02-23 17:02:00,
2013-02-23 11:03:00,19.9,13.9,29.75,WNW,290,1.0,6.0,77,0.00,,,0.00,VWS V14.01,2013-02-23 17:03:00,
2013-02-23 11:04:00,19.9,13.9,29.75,WNW,290,0.0,6.0,77,0.00,,,0.00,VWS V14.01,2013-02-23 17:04:00,
2013-02-23 11:05:00,20.0,14.0,29.75,WNW,290,0.0,6.0,77,0.00,,,0.00,VWS V14.01,2013-02-23 17:05:00,
2013-02-23 11:06:00,20.0,14.0,29.75,WNW,290,0.0,6.0,77,0.00,,,0.00,VWS V14.01,2013-02-23 17:06:00,
2013-02-23 11:07:00,20.0,13.7,29.75,WNW,290,0.0,6.0,76,0.00,,,0.00,VWS V14.01,2013-02-23 17:07:00,
2013-02-23 11:08:00,20.0,13.7,29.75,WNW,290,0.0,6.0,76,0.00,,,0.00,VWS V14.01,2013-02-23 17:08:00,
2013-02-23 11:09:00,19.9,13.6,29.75,WNW,290,2.0,6.0,76,0.00,,,0.00,VWS V14.01,2013-02-23 17:09:00,
2013-02-23 11:10:00,19.9,13.6,29.75,WNW,290,0.0,6.0,76,0.00,,,0.00,VWS V14.01,2013-02-23 17:10:00,
2013-02-23 11:11:00,19.7,13.7,29.75,WNW,290,0.0,6.0,77,0.00,,,0.00,VWS V14.01,2013-02-23 17:11:00,
2013-02-23 11:12:00,19.7,14.0,29.75,WNW,290,0.0,6.0,78,0.00,,,0.00,VWS V14.01,2013-02-23 17:12:00,
2013-02-23 11:13:00,19.5,13.5,29.75,WNW,290,2.0,6.0,77,0.00,,,0.00,VWS V14.01,2013-02-23 17:13:00,
2013-02-23 11:14:00,19.5,13.8,29.75,WNW,290,4.0,6.0,78,0.00,,,0.00,VWS V14.01,2013-02-23 17:14:00,
2013-02-23 11:15:00,19.5,13.8,29.75,WNW,290,1.0,6.0,78,0.00,,,0.00,VWS V14.01,2013-02-23 17:15:00,
2013-02-23 11:16:00,19.5,13.8,29.75,WNW,290,1.0,6.0,78,0.00,,,0.00,VWS V14.01,2013-02-23 17:16:00,
2013-02-23 11:17:00,19.4,13.7,29.75,WNW,290,1.0,6.0,78,0.00,,,0.00,VWS V14.01,2013-02-23 17:17:00,
2013-02-23 11:18:00,19.4,13.7,29.75,WNW,290,1.0,6.0,78,0.00,,,0.00,VWS V14.01,2013-02-23 17:18:00,
2013-02-23 11:19:00,19.5,14.1,29.75,WNW,290,3.0,6.0,79,0.00,,,0.00,VWS V14.01,2013-02-23 17:19:00,
2013-02-23 11:20:00,19.5,14.1,29.75,WNW,290,0.0,6.0,79,0.00,,,0.00,VWS V14.01,2013-02-23 17:20:00,
2013-02-23 11:21:00,19.7,14.3,29.75,WNW,290,0.0,6.0,79,0.00,,,0.00,VWS V14.01,2013-02-23 17:21:00,
2013-02-23 11:22:00,19.7,14.3,29.75,WNW,290,0.0,6.0,79,0.00,,,0.00,VWS V14.01,2013-02-23 17:22:00,
2013-02-23 11:23:00,19.9,14.4,29.75,WNW,290,0.0,6.0,79,0.00,,,0.00,VWS V14.01,2013-02-23 17:23:00,
2013-02-23 11:24:00,19.9,14.2,29.75,WNW,290,2.0,6.0,78,0.00,,,0.00,VWS V14.01,2013-02-23 17:24:00,
2013-02-23 11:25:00,19.9,14.4,29.75,WNW,290,0.0,6.0,79,0.00,,,0.00,VWS V14.01,2013-02-23 17:25:00,
2013-02-23 11:26:00,19.9,14.4,29.75,WNW,290,1.0,6.0,79,0.00,,,0.00,VWS V14.01,2013-02-23 17:26:00,
2013-02-23 11:27:00,19.9,14.4,29.75,WNW,290,0.0,6.0,79,0.00,,,0.00,VWS V14.01,2013-02-23 17:27:00,
2013-02-23 11:28:00,20.0,14.6,29.75,WNW,290,0.0,6.0,79,0.00,,,0.00,VWS V14.01,2013-02-23 17:28:00,
2013-02-23 11:29:00,20.2,14.7,29.75,WNW,290,2.0,6.0,79,0.00,,,0.00,VWS V14.01,2013-02-23 17:29:00,
2013-02-23 11:30:00,20.3,14.6,29.75,WNW,290,7.0,7.0,78,0.00,,,0.00,VWS V14.01,2013-02-23 17:30:00,
2013-02-23 11:31:00,20.3,14.6,29.75,WNW,290,0.0,7.0,78,0.00,,,0.00,VWS V14.01,2013-02-23 17:31:00,
2013-02-23 11:32:00,20.3,14.6,29.75,WNW,290,0.0,7.0,78,0.00,,,0.00,VWS V14.01,2013-02-23 17:32:00,
2013-02-23 11:33:00,20.5,14.7,29.75,WNW,290,2.0,7.0,78,0.00,,,0.00,VWS V14.01,2013-02-23 17:33:00,
2013-02-23 11:34:00,20.6,14.6,29.75,WNW,290,1.0,7.0,77,0.00,,,0.00,VWS V14.01,2013-02-23 17:34:00,
2013-02-23 11:35:00,20.6,14.6,29.75,WNW,290,0.0,7.0,77,0.00,,,0.00,VWS V14.01,2013-02-23 17:35:00,
2013-02-23 11:36:00,20.8,14.7,29.75,WNW,290,0.0,7.0,77,0.00,,,0.00,VWS V14.01,2013-02-23 17:36:00,
2013-02-23 11:37:00,20.8,14.7,29.75,WNW,290,0.0,7.0,77,0.00,,,0.00,VWS V14.01,2013-02-23 17:37:00,
2013-02-23 11:38:00,20.8,14.7,29.75,WNW,290,0.0,7.0,77,0.00,,,0.00,VWS V14.01,2013-02-23 17:38:00,
2013-02-23 11:39:00,21.0,15.2,29.75,WNW,290,0.0,7.0,78,0.00,,,0.00,VWS V14.01,2013-02-23 17:39:00,
2013-02-23 11:40:00,21.0,14.9,29.75,WNW,290,1.0,7.0,77,0.00,,,0.00,VWS V14.01,2013-02-23 17:40:00,
2013-02-23 11:41:00,21.1,15.0,29.75,WNW,290,0.0,7.0,77,0.00,,,0.00,VWS V14.01,2013-02-23 17:41:00,
2013-02-23 11:42:00,21.1,14.7,29.75,WNW,290,0.0,7.0,76,0.00,,,0.00,VWS V14.01,2013-02-23 17:42:00,
2013-02-23 11:43:00,21.3,14.9,29.75,WNW,290,2.0,7.0,76,0.00,,,0.00,VWS V14.01,2013-02-23 17:43:00,
2013-02-23 11:44:00,21.4,15.0,29.75,WNW,290,0.0,7.0,76,0.00,,,0.00,VWS V14.01,2013-02-23 17:44:00,
2013-02-23 11:45:00,21.4,15.0,29.75,WNW,290,5.0,7.0,76,0.00,,,0.00,VWS V14.01,2013-02-23 17:45:00,
2013-02-23 11:46:00,21.4,15.0,29.75,WNW,290,3.0,7.0,76,0.00,,,0.00,VWS V14.01,2013-02-23 17:46:00,
2013-02-23 11:47:00,21.4,15.0,29.75,WNW,290,1.0,7.0,76,0.00,,,0.00,VWS V14.01,2013-02-23 17:47:00,
2013-02-23 11:48:00,21.4,15.0,29.75,WNW,290,5.0,7.0,76,0.00,,,0.00,VWS V14.01,2013-02-23 17:48:00,
2013-02-23 11:49:00,21.4,15.3,29.75,WNW,283,7.0,7.0,77,0.00,,,0.00,VWS V14.01,2013-02-23 17:49:00,
2013-02-23 11:50:00,21.4,15.3,29.75,West,280,7.0,8.0,77,0.00,,,0.00,VWS V14.01,2013-02-23 17:50:00,
2013-02-23 11:51:00,21.3,15.2,29.75,West,280,1.0,8.0,77,0.00,,,0.00,VWS V14.01,2013-02-23 17:51:00,
2013-02-23 11:52:00,21.4,15.3,29.75,West,280,0.0,8.0,77,0.00,,,0.00,VWS V14.01,2013-02-23 17:52:00,
2013-02-23 11:53:00,21.4,15.6,29.75,West,280,1.0,8.0,78,0.00,,,0.00,VWS V14.01,2013-02-23 17:53:00,
2013-02-23 11:54:00,21.4,15.6,29.75,West,280,1.0,8.0,78,0.00,,,0.00,VWS V14.01,2013-02-23 17:54:00,
2013-02-23 11:55:00,21.6,15.8,29.75,West,280,1.0,8.0,78,0.00,,,0.00,VWS V14.01,2013-02-23 17:55:00,
2013-02-23 11:56:00,21.6,15.5,29.75,West,280,1.0,8.0,77,0.00,,,0.00,VWS V14.01,2013-02-23 17:56:00,
2013-02-23 11:57:00,21.6,15.5,29.75,West,280,1.0,8.0,77,0.00,,,0.00,VWS V14.01,2013-02-23 17:57:00,
2013-02-23 11:58:00,21.6,15.5,29.75,West,280,1.0,8.0,77,0.00,,,0.00,VWS V14.01,2013-02-23 17:58:00,
2013-02-23 11:59:00,21.6,15.8,29.75,West,280,0.0,8.0,78,0.00,,,0.00,VWS V14.01,2013-02-23 17:59:00,
2013-02-23 12:00:00,21.6,15.5,29.75,West,280,0.0,8.0,77,0.00,,,0.00,VWS V14.01,2013-02-23 18:00:00,
2013-02-23 12:01:00,21.6,15.5,29.75,West,280,1.0,1.0,77,0.00,,,0.00,VWS V14.01,2013-02-23 18:01:00,
2013-02-23 12:02:00,21.6,15.5,29.75,West,280,0.0,3.0,77,0.00,,,0.00,VWS V14.01,2013-02-23 18:02:00,
2013-02-23 12:03:00,21.6,15.8,29.75,West,280,1.0,3.0,78,0.00,,,0.00,VWS V14.01,2013-02-23 18:03:00,
2013-02-23 12:04:00,21.6,15.8,29.75,West,280,2.0,3.0,78,0.00,,,0.00,VWS V14.01,2013-02-23 18:04:00,
2013-02-23 12:05:00,21.6,16.1,29.75,West,281,1.0,3.0,79,0.00,,,0.00,VWS V14.01,2013-02-23 18:05:00,
2013-02-23 12:06:00,21.6,16.1,29.75,West,280,1.0,3.0,79,0.00,,,0.00,VWS V14.01,2013-02-23 18:06:00,
2013-02-23 12:07:00,21.6,16.1,29.75,West,281,0.0,4.0,79,0.00,,,0.00,VWS V14.01,2013-02-23 18:07:00,
2013-02-23 12:08:00,21.6,16.1,29.75,West,281,0.0,4.0,79,0.00,,,0.00,VWS V14.01,2013-02-23 18:08:00,
2013-02-23 12:09:00,21.6,16.1,29.75,West,280,0.0,5.0,79,0.00,,,0.00,VWS V14.01,2013-02-23 18:09:00,
2013-02-23 12:10:00,21.6,16.1,29.75,West,281,0.0,6.0,79,0.00,,,0.00,VWS V14.01,2013-02-23 18:10:00,
2013-02-23 12:11:00,21.6,16.1,29.75,West,281,1.0,6.0,79,0.00,,,0.00,VWS V14.01,2013-02-23 18:11:00,
2013-02-23 12:12:00,21.6,16.1,29.75,West,280,2.0,6.0,79,0.00,,,0.00,VWS V14.01,2013-02-23 18:12:00,
2013-02-23 12:13:00,21.6,16.4,29.75,West,281,1.0,6.0,80,0.00,,OVC016,0.00,VWS V14.01,2013-02-23 18:13:00,
2013-02-23 12:14:00,21.8,16.6,29.75,West,280,1.0,6.0,80,0.00,,OVC016,0.00,VWS V14.01,2013-02-23 18:14:00,
2013-02-23 12:15:00,21.8,16.6,29.74,West,281,0.0,6.0,80,0.00,,OVC016,0.00,VWS V14.01,2013-02-23 18:15:00,
2013-02-23 12:16:00,21.9,16.7,29.74,West,281,1.0,6.0,80,0.00,,OVC016,0.00,VWS V14.01,2013-02-23 18:16:00,
2013-02-23 12:17:00,22.1,16.9,29.74,West,280,0.0,6.0,80,0.00,,OVC016,0.00,VWS V14.01,2013-02-23 18:17:00,
2013-02-23 12:18:00,22.1,17.2,29.74,West,280,0.0,6.0,81,0.00,,OVC016,0.00,VWS V14.01,2013-02-23 18:18:00,
2013-02-23 12:19:00,22.2,17.0,29.74,West,281,1.0,6.0,80,0.00,,OVC016,0.00,VWS V14.01,2013-02-23 18:19:00,
2013-02-23 12:20:00,22.4,17.2,29.74,West,281,0.0,6.0,80,0.00,,OVC016,0.00,VWS V14.01,2013-02-23 18:20:00,
2013-02-23 12:21:00,22.5,17.6,29.74,West,280,0.0,6.0,81,0.00,,OVC016,0.00,VWS V14.01,2013-02-23 18:21:00,
2013-02-23 12:22:00,22.5,17.3,29.74,West,281,1.0,6.0,80,0.00,,OVC016,0.00,VWS V14.01,2013-02-23 18:22:00,
2013-02-23 12:23:00,22.7,17.5,29.74,West,280,0.0,6.0,80,0.00,,OVC016,0.00,VWS V14.01,2013-02-23 18:23:00,
2013-02-23 12:24:00,22.7,17.5,29.74,West,280,0.0,6.0,80,0.00,,OVC016,0.00,VWS V14.01,2013-02-23 18:24:00,
2013-02-23 12:25:00,22.5,17.3,29.74,West,281,3.0,6.0,80,0.00,,OVC016,0.00,VWS V14.01,2013-02-23 18:25:00,
2013-02-23 12:26:00,22.4,17.2,29.74,West,281,2.0,6.0,80,0.00,,OVC016,0.00,VWS V14.01,2013-02-23 18:26:00,
2013-02-23 12:27:00,22.4,17.5,29.74,West,281,3.0,6.0,81,0.00,,OVC016,0.00,VWS V14.01,2013-02-23 18:27:00,
2013-02-23 12:28:00,22.4,17.5,29.74,West,281,3.0,6.0,81,0.00,,OVC016,0.00,VWS V14.01,2013-02-23 18:28:00,
2013-02-23 12:29:00,22.4,17.5,29.74,West,280,0.0,7.0,81,0.00,,OVC016,0.00,VWS V14.01,2013-02-23 18:29:00,
2013-02-23 12:30:00,22.4,17.8,29.74,West,280,6.0,7.0,82,0.00,,OVC016,0.00,VWS V14.01,2013-02-23 18:30:00,
2013-02-23 12:31:00,22.4,17.8,29.74,West,280,2.0,6.0,82,0.00,,OVC016,0.00,VWS V14.01,2013-02-23 18:31:00,
2013-02-23 12:32:00,22.5,17.9,29.74,West,280,1.0,6.0,82,0.00,,OVC016,0.00,VWS V14.01,2013-02-23 18:32:00,
2013-02-23 12:33:00,22.5,17.9,29.74,West,280,0.0,6.0,82,0.00,,OVC016,0.00,VWS V14.01,2013-02-23 18:33:00,
2013-02-23 12:34:00,22.5,17.6,29.74,West,280,0.0,6.0,81,0.00,,OVC016,0.00,VWS V14.01,2013-02-23 18:34:00,
2013-02-23 12:35:00,22.7,17.8,29.74,West,280,1.0,6.0,81,0.00,,OVC016,0.00,VWS V14.01,2013-02-23 18:35:00,
2013-02-23 12:36:00,22.7,17.8,29.74,West,280,1.0,6.0,81,0.00,,OVC016,0.00,VWS V14.01,2013-02-23 18:36:00,
2013-02-23 12:37:00,22.5,17.6,29.74,West,280,0.0,6.0,81,0.00,,OVC016,0.00,VWS V14.01,2013-02-23 18:37:00,
2013-02-23 12:38:00,22.5,17.6,29.74,West,280,3.0,6.0,81,0.00,,OVC016,0.00,VWS V14.01,2013-02-23 18:38:00,
2013-02-23 12:39:00,22.7,18.0,29.74,West,280,0.0,6.0,82,0.00,,OVC016,0.00,VWS V14.01,2013-02-23 18:39:00,
2013-02-23 12:40:00,22.7,18.0,29.74,West,280,0.0,6.0,82,0.00,,OVC016,0.00,VWS V14.01,2013-02-23 18:40:00,
2013-02-23 12:41:00,22.7,17.8,29.74,West,280,0.0,6.0,81,0.00,,OVC016,0.00,VWS V14.01,2013-02-23 18:41:00,
2013-02-23 12:42:00,22.7,18.0,29.74,West,280,2.0,6.0,82,0.00,,OVC016,0.00,VWS V14.01,2013-02-23 18:42:00,
2013-02-23 12:43:00,22.7,18.0,29.74,West,280,3.0,6.0,82,0.00,,OVC016,0.00,VWS V14.01,2013-02-23 18:43:00,
2013-02-23 12:44:00,22.9,18.2,29.74,West,280,0.0,6.0,82,0.00,,OVC016,0.00,VWS V14.01,2013-02-23 18:44:00,
2013-02-23 12:45:00,22.9,18.2,29.74,West,280,1.0,6.0,82,0.00,,OVC016,0.00,VWS V14.01,2013-02-23 18:45:00,
2013-02-23 12:46:00,23.0,18.3,29.74,West,280,0.0,6.0,82,0.00,,OVC016,0.00,VWS V14.01,2013-02-23 18:46:00,
2013-02-23 12:47:00,23.2,18.5,29.74,West,280,1.0,6.0,82,0.00,,OVC016,0.00,VWS V14.01,2013-02-23 18:47:00,
2013-02-23 12:48:00,23.2,18.5,29.74,West,280,0.0,6.0,82,0.00,,OVC016,0.00,VWS V14.01,2013-02-23 18:48:00,
2013-02-23 12:49:00,23.3,18.3,29.74,West,280,3.0,6.0,81,0.00,,OVC016,0.00,VWS V14.01,2013-02-23 18:49:00,
2013-02-23 12:50:00,23.3,18.3,29.74,West,280,0.0,6.0,81,0.00,,OVC016,0.00,VWS V14.01,2013-02-23 18:50:00,
2013-02-23 12:51:00,23.3,18.3,29.74,West,280,1.0,6.0,81,0.00,,OVC016,0.00,VWS V14.01,2013-02-23 18:51:00,
2013-02-23 12:52:00,23.3,18.3,29.74,West,280,2.0,6.0,81,0.00,,OVC016,0.00,VWS V14.01,2013-02-23 18:52:00,
2013-02-23 12:53:00,23.3,18.3,29.74,West,280,2.0,6.0,81,0.00,,OVC016,0.00,VWS V14.01,2013-02-23 18:53:00,
2013-02-23 12:54:00,23.3,18.1,29.74,West,280,2.0,6.0,80,0.00,,OVC016,0.00,VWS V14.01,2013-02-23 18:54:00,
2013-02-23 12:55:00,23.3,18.1,29.74,West,280,2.0,6.0,80,0.00,,OVC016,0.00,VWS V14.01,2013-02-23 18:55:00,
2013-02-23 12:56:00,23.5,18.2,29.74,West,280,2.0,6.0,80,0.00,,OVC016,0.00,VWS V14.01,2013-02-23 18:56:00,
2013-02-23 12:57:00,23.5,18.2,29.74,West,280,1.0,6.0,80,0.00,,OVC016,0.00,VWS V14.01,2013-02-23 18:57:00,
2013-02-23 12:58:00,23.5,18.2,29.74,West,280,0.0,6.0,80,0.00,,OVC016,0.00,VWS V14.01,2013-02-23 18:58:00,
2013-02-23 12:59:00,23.5,18.2,29.74,West,280,3.0,6.0,80,0.00,,OVC016,0.00,VWS V14.01,2013-02-23 18:59:00,
2013-02-23 13:00:00,23.5,18.2,29.74,West,280,0.0,6.0,80,0.00,,OVC016,0.00,VWS V14.01,2013-02-23 19:00:00,
2013-02-23 13:01:00,23.5,18.2,29.74,West,280,0.0,3.0,80,0.00,,OVC016,0.00,VWS V14.01,2013-02-23 19:01:00,
2013-02-23 13:02:00,23.5,18.2,29.74,West,280,1.0,3.0,80,0.00,,OVC016,0.00,VWS V14.01,2013-02-23 19:02:00,
2013-02-23 13:03:00,23.6,18.4,29.74,West,280,3.0,5.0,80,0.00,,OVC016,0.00,VWS V14.01,2013-02-23 19:03:00,
2013-02-23 13:04:00,23.6,18.4,29.74,West,280,0.0,5.0,80,0.00,,OVC016,0.00,VWS V14.01,2013-02-23 19:04:00,
2013-02-23 13:05:00,23.8,18.5,29.74,West,280,1.0,5.0,80,0.00,,OVC016,0.00,VWS V14.01,2013-02-23 19:05:00,
2013-02-23 13:06:00,23.8,18.5,29.74,West,280,3.0,6.0,80,0.00,,OVC016,0.00,VWS V14.01,2013-02-23 19:06:00,
2013-02-23 13:07:00,23.9,18.4,29.74,West,280,4.0,6.0,79,0.00,,OVC016,0.00,VWS V14.01,2013-02-23 19:07:00,
2013-02-23 13:08:00,23.9,18.4,29.74,West,280,3.0,6.0,79,0.00,,OVC016,0.00,VWS V14.01,2013-02-23 19:08:00,
2013-02-23 13:09:00,23.9,18.4,29.74,West,280,3.0,6.0,79,0.00,,OVC016,0.00,VWS V14.01,2013-02-23 19:09:00,
2013-02-23 13:10:00,23.9,18.4,29.74,West,280,1.0,6.0,79,0.00,,OVC016,0.00,VWS V14.01,2013-02-23 19:10:00,
2013-02-23 13:11:00,23.9,18.4,29.74,West,280,2.0,6.0,79,0.00,,OVC016,0.00,VWS V14.01,2013-02-23 19:11:00,
2013-02-23 13:12:00,24.1,18.5,29.74,West,280,0.0,6.0,79,0.00,,OVC016,0.00,VWS V14.01,2013-02-23 19:12:00,
2013-02-23 13:13:00,24.1,18.5,29.74,West,280,3.0,6.0,79,0.00,,OVC016,0.00,VWS V14.01,2013-02-23 19:13:00,
2013-02-23 13:14:00,24.1,18.5,29.74,West,280,0.0,6.0,79,0.00,,OVC016,0.00,VWS V14.01,2013-02-23 19:14:00,
2013-02-23 13:15:00,24.1,18.5,29.74,West,280,0.0,6.0,79,0.00,,OVC016,0.00,VWS V14.01,2013-02-23 19:15:00,
2013-02-23 13:16:00,24.2,18.6,29.74,West,280,3.0,6.0,79,0.00,,OVC016,0.00,VWS V14.01,2013-02-23 19:16:00,
2013-02-23 13:17:00,24.2,18.6,29.74,West,280,3.0,6.0,79,0.00,,OVC016,0.00,VWS V14.01,2013-02-23 19:17:00,
2013-02-23 13:18:00,24.2,18.3,29.74,West,280,5.0,6.0,78,0.00,,OVC016,0.00,VWS V14.01,2013-02-23 19:18:00,
2013-02-23 13:19:00,24.2,18.6,29.74,West,280,2.0,6.0,79,0.00,,OVC016,0.00,VWS V14.01,2013-02-23 19:19:00,
2013-02-23 13:20:00,24.2,18.6,29.74,West,280,2.0,6.0,79,0.00,,OVC016,0.00,VWS V14.01,2013-02-23 19:20:00,
2013-02-23 13:21:00,24.2,18.6,29.74,West,280,5.0,6.0,79,0.00,,OVC016,0.00,VWS V14.01,2013-02-23 19:21:00,
2013-02-23 13:22:00,24.2,18.6,29.74,West,280,0.0,8.0,79,0.00,,OVC016,0.00,VWS V14.01,2013-02-23 19:22:00,
2013-02-23 13:23:00,24.2,18.6,29.74,West,280,2.0,8.0,79,0.00,,OVC016,0.00,VWS V14.01,2013-02-23 19:23:00,
2013-02-23 13:24:00,24.2,18.6,29.74,West,280,0.0,8.0,79,0.00,,OVC016,0.00,VWS V14.01,2013-02-23 19:24:00,
2013-02-23 13:25:00,24.2,18.6,29.74,West,280,2.0,8.0,79,0.00,,OVC016,0.00,VWS V14.01,2013-02-23 19:25:00,
2013-02-23 13:26:00,24.1,18.5,29.74,West,280,2.0,8.0,79,0.00,,OVC016,0.00,VWS V14.01,2013-02-23 19:26:00,
2013-02-23 13:27:00,24.1,18.5,29.74,West,280,2.0,8.0,79,0.00,,OVC016,0.00,VWS V14.01,2013-02-23 19:27:00,
2013-02-23 13:28:00,24.1,18.5,29.74,West,280,4.0,8.0,79,0.00,,OVC016,0.00,VWS V14.01,2013-02-23 19:28:00,
2013-02-23 13:29:00,24.1,18.5,29.74,West,280,0.0,8.0,79,0.00,,OVC016,0.00,VWS V14.01,2013-02-23 19:29:00,
2013-02-23 13:30:00,24.1,18.5,29.73,West,280,0.0,8.0,79,0.00,,OVC016,0.00,VWS V14.01,2013-02-23 19:30:00,
2013-02-23 13:31:00,24.2,18.6,29.73,West,280,0.0,4.0,79,0.00,,OVC016,0.00,VWS V14.01,2013-02-23 19:31:00,
2013-02-23 13:32:00,24.2,18.6,29.73,West,280,5.0,5.0,79,0.00,,OVC016,0.00,VWS V14.01,2013-02-23 19:32:00,
2013-02-23 13:33:00,24.4,19.1,29.73,West,280,0.0,5.0,80,0.00,,OVC016,0.00,VWS V14.01,2013-02-23 19:33:00,
2013-02-23 13:34:00,24.5,19.2,29.73,West,280,3.0,6.0,80,0.00,,OVC016,0.00,VWS V14.01,2013-02-23 19:34:00,
2013-02-23 13:35:00,24.7,19.1,29.73,West,280,1.0,6.0,79,0.00,,OVC016,0.00,VWS V14.01,2013-02-23 19:35:00,
2013-02-23 13:36:00,24.7,19.1,29.73,West,280,0.0,6.0,79,0.00,,OVC016,0.00,VWS V14.01,2013-02-23 19:36:00,
2013-02-23 13:37:00,24.7,19.1,29.73,West,280,0.0,6.0,79,0.00,,OVC016,0.00,VWS V14.01,2013-02-23 19:37:00,
2013-02-23 13:38:00,24.5,18.9,29.73,West,280,0.0,6.0,79,0.00,,OVC016,0.00,VWS V14.01,2013-02-23 19:38:00,
2013-02-23 13:39:00,24.5,18.9,29.73,West,280,1.0,6.0,79,0.00,,OVC016,0.00,VWS V14.01,2013-02-23 19:39:00,
2013-02-23 13:40:00,24.5,18.9,29.73,West,280,0.0,6.0,79,0.00,,OVC016,0.00,VWS V14.01,2013-02-23 19:40:00,
2013-02-23 13:41:00,24.4,18.8,29.73,West,280,0.0,6.0,79,0.00,,OVC016,0.00,VWS V14.01,2013-02-23 19:41:00,
2013-02-23 13:42:00,24.5,19.2,29.73,West,280,1.0,6.0,80,0.00,,OVC016,0.00,VWS V14.01,2013-02-23 19:42:00,
2013-02-23 13:43:00,24.7,19.1,29.73,West,280,0.0,6.0,79,0.00,,BKN022,0.00,VWS V14.01,2013-02-23 19:43:00,
2013-02-23 13:44:00,24.7,19.1,29.73,West,280,6.0,7.0,79,0.00,,BKN022,0.00,VWS V14.01,2013-02-23 19:44:00,
2013-02-23 13:45:00,24.7,19.1,29.73,West,280,2.0,7.0,79,0.00,,BKN022,0.00,VWS V14.01,2013-02-23 19:45:00,
2013-02-23 13:46:00,24.8,19.2,29.73,West,280,2.0,7.0,79,0.00,,BKN022,0.00,VWS V14.01,2013-02-23 19:46:00,
2013-02-23 13:47:00,25.0,19.4,29.73,West,280,0.0,7.0,79,0.00,,BKN022,0.00,VWS V14.01,2013-02-23 19:47:00,
2013-02-23 13:48:00,25.0,19.4,29.73,West,280,3.0,7.0,79,0.00,,BKN022,0.00,VWS V14.01,2013-02-23 19:48:00,
2013-02-23 13:49:00,25.1,19.2,29.73,West,280,3.0,7.0,78,0.00,,BKN022,0.00,VWS V14.01,2013-02-23 19:49:00,
2013-02-23 13:50:00,25.1,19.2,29.73,West,280,0.0,7.0,78,0.00,,BKN022,0.00,VWS V14.01,2013-02-23 19:50:00,
2013-02-23 13:51:00,25.1,19.2,29.73,West,280,3.0,7.0,78,0.00,,BKN022,0.00,VWS V14.01,2013-02-23 19:51:00,
2013-02-23 13:52:00,25.1,19.2,29.73,West,280,3.0,7.0,78,0.00,,BKN022,0.00,VWS V14.01,2013-02-23 19:52:00,
2013-02-23 13:53:00,25.1,19.2,29.73,West,280,0.0,7.0,78,0.00,,BKN022,0.00,VWS V14.01,2013-02-23 19:53:00,
2013-02-23 13:54:00,25.1,18.9,29.73,West,280,0.0,7.0,77,0.00,,BKN022,0.00,VWS V14.01,2013-02-23 19:54:00,
2013-02-23 13:55:00,25.1,19.2,29.73,West,280,1.0,7.0,78,0.00,,BKN022,0.00,VWS V14.01,2013-02-23 19:55:00,
2013-02-23 13:56:00,25.1,19.2,29.73,West,280,0.0,7.0,78,0.00,,BKN022,0.00,VWS V14.01,2013-02-23 19:56:00,
2013-02-23 13:57:00,25.1,19.2,29.73,West,280,5.0,7.0,78,0.00,,BKN022,0.00,VWS V14.01,2013-02-23 19:57:00,
2013-02-23 13:58:00,25.3,19.4,29.73,West,280,2.0,7.0,78,0.00,,BKN022,0.00,VWS V14.01,2013-02-23 19:58:00,
2013-02-23 13:59:00,25.1,18.9,29.73,West,280,3.0,7.0,77,0.00,,BKN022,0.00,VWS V14.01,2013-02-23 19:59:00,
2013-02-23 14:00:00,25.3,19.4,29.74,West,280,1.0,7.0,78,0.00,,BKN022,0.00,VWS V14.01,2013-02-23 20:00:00,
2013-02-23 14:01:00,25.3,19.4,29.74,West,280,0.0,2.0,78,0.00,,BKN022,0.00,VWS V14.01,2013-02-23 20:01:00,
2013-02-23 14:02:00,25.3,19.4,29.74,West,280,2.0,2.0,78,0.00,,BKN022,0.00,VWS V14.01,2013-02-23 20:02:00,
2013-02-23 14:03:00,25.3,19.4,29.74,West,278,6.0,6.0,78,0.00,,BKN022,0.00,VWS V14.01,2013-02-23 20:03:00,
2013-02-23 14:04:00,25.3,19.4,29.74,West,277,0.0,8.0,78,0.00,,BKN022,0.00,VWS V14.01,2013-02-23 20:04:00,
2013-02-23 14:05:00,25.3,19.4,29.74,West,277,4.0,8.0,78,0.00,,BKN022,0.00,VWS V14.01,2013-02-23 20:05:00,
2013-02-23 14:06:00,25.3,19.4,29.74,West,277,0.0,8.0,78,0.00,,BKN022,0.00,VWS V14.01,2013-02-23 20:06:00,
2013-02-23 14:07:00,25.3,19.4,29.74,West,277,0.0,8.0,78,0.00,,BKN022,0.00,VWS V14.01,2013-02-23 20:07:00,
2013-02-23 14:08:00,25.4,19.5,29.74,West,277,0.0,8.0,78,0.00,,BKN022,0.00,VWS V14.01,2013-02-23 20:08:00,
2013-02-23 14:09:00,25.4,19.2,29.74,West,277,2.0,8.0,77,0.00,,BKN022,0.00,VWS V14.01,2013-02-23 20:09:00,
2013-02-23 14:10:00,25.4,19.2,29.74,West,277,3.0,8.0,77,0.00,,BKN022,0.00,VWS V14.01,2013-02-23 20:10:00,
2013-02-23 14:11:00,25.4,19.5,29.74,West,277,0.0,8.0,78,0.00,,BKN022,0.00,VWS V14.01,2013-02-23 20:11:00,
2013-02-23 14:12:00,25.3,19.1,29.74,West,277,1.0,8.0,77,0.00,,BKN022,0.00,VWS V14.01,2013-02-23 20:12:00,
2013-02-23 14:13:00,25.3,19.1,29.74,West,277,4.0,8.0,77,0.00,,BKN022,0.00,VWS V14.01,2013-02-23 20:13:00,
2013-02-23 14:14:00,25.1,18.9,29.74,West,277,0.0,8.0,77,0.00,,BKN022,0.00,VWS V14.01,2013-02-23 20:14:00,
2013-02-23 14:15:00,25.1,19.2,29.74,West,277,0.0,8.0,78,0.00,,BKN022,0.00,VWS V14.01,2013-02-23 20:15:00,
2013-02-23 14:16:00,25.0,19.1,29.74,West,277,0.0,8.0,78,0.00,,BKN022,0.00,VWS V14.01,2013-02-23 20:16:00,
2013-02-23 14:17:00,25.0,19.1,29.74,West,277,5.0,8.0,78,0.00,,BKN022,0.00,VWS V14.01,2013-02-23 20:17:00,
2013-02-23 14:18:00,25.0,19.1,29.74,West,277,6.0,8.0,78,0.00,,BKN022,0.00,VWS V14.01,2013-02-23 20:18:00,
2013-02-23 14:19:00,25.0,19.1,29.74,West,277,1.0,8.0,78,0.00,,BKN022,0.00,VWS V14.01,2013-02-23 20:19:00,
2013-02-23 14:20:00,25.0,19.1,29.74,West,277,0.0,8.0,78,0.00,,BKN022,0.00,VWS V14.01,2013-02-23 20:20:00,
2013-02-23 14:21:00,25.0,19.4,29.74,West,277,3.0,8.0,79,0.00,,BKN022,0.00,VWS V14.01,2013-02-23 20:21:00,
2013-02-23 14:22:00,25.1,19.5,29.74,West,277,0.0,8.0,79,0.00,,BKN022,0.00,VWS V14.01,2013-02-23 20:22:00,
2013-02-23 14:23:00,25.1,19.5,29.74,West,277,6.0,8.0,79,0.00,,BKN022,0.00,VWS V14.01,2013-02-23 20:23:00,
2013-02-23 14:24:00,25.1,19.2,29.74,West,277,0.0,8.0,78,0.00,,BKN022,0.00,VWS V14.01,2013-02-23 20:24:00,
2013-02-23 14:25:00,25.1,19.2,29.74,West,277,1.0,8.0,78,0.00,,BKN022,0.00,VWS V14.01,2013-02-23 20:25:00,
2013-02-23 14:26:00,25.1,19.2,29.74,West,277,0.0,8.0,78,0.00,,BKN022,0.00,VWS V14.01,2013-02-23 20:26:00,
2013-02-23 14:27:00,25.3,19.4,29.74,West,277,6.0,8.0,78,0.00,,BKN022,0.00,VWS V14.01,2013-02-23 20:27:00,
2013-02-23 14:28:00,25.3,19.4,29.74,West,277,5.0,8.0,78,0.00,,BKN022,0.00,VWS V14.01,2013-02-23 20:28:00,
2013-02-23 14:29:00,25.1,18.9,29.74,West,277,3.0,8.0,77,0.00,,BKN022,0.00,VWS V14.01,2013-02-23 20:29:00,
2013-02-23 14:30:00,25.1,18.9,29.74,West,277,1.0,8.0,77,0.00,,BKN022,0.00,VWS V14.01,2013-02-23 20:30:00,
2013-02-23 14:31:00,25.0,19.1,29.74,West,277,0.0,3.0,78,0.00,,BKN022,0.00,VWS V14.01,2013-02-23 20:31:00,
2013-02-23 14:32:00,25.0,19.1,29.74,West,277,2.0,3.0,78,0.00,,BKN022,0.00,VWS V14.01,2013-02-23 20:32:00,
2013-02-23 14:33:00,24.8,18.9,29.74,West,277,0.0,3.0,78,0.00,,BKN022,0.00,VWS V14.01,2013-02-23 20:33:00,
2013-02-23 14:34:00,25.0,19.4,29.74,West,277,1.0,3.0,79,0.00,,BKN022,0.00,VWS V14.01,2013-02-23 20:34:00,
2013-02-23 14:35:00,25.0,19.4,29.74,West,277,0.0,6.0,79,0.00,,BKN022,0.00,VWS V14.01,2013-02-23 20:35:00,
2013-02-23 14:36:00,25.1,19.5,29.74,West,277,1.0,7.0,79,0.00,,BKN022,0.00,VWS V14.01,2013-02-23 20:36:00,
2013-02-23 14:37:00,25.1,19.2,29.74,West,277,1.0,7.0,78,0.00,,BKN022,0.00,VWS V14.01,2013-02-23 20:37:00,
2013-02-23 14:38:00,25.1,19.2,29.74,West,277,0.0,7.0,78,0.00,,BKN022,0.00,VWS V14.01,2013-02-23 20:38:00,
2013-02-23 14:39:00,25.1,19.5,29.74,West,277,0.0,7.0,79,0.00,,BKN022,0.00,VWS V14.01,2013-02-23 20:39:00,
2013-02-23 14:40:00,25.3,19.7,29.74,West,277,1.0,7.0,79,0.00,,BKN022,0.00,VWS V14.01,2013-02-23 20:40:00,
2013-02-23 14:41:00,25.3,19.4,29.74,West,273,1.0,8.0,78,0.00,,BKN022,0.00,VWS V14.01,2013-02-23 20:41:00,
2013-02-23 14:42:00,25.4,19.5,29.74,West,273,0.0,8.0,78,0.00,,BKN022,0.00,VWS V14.01,2013-02-23 20:42:00,
2013-02-23 14:43:00,25.4,19.5,29.74,West,273,6.0,8.0,78,0.00,,BKN026,0.00,VWS V14.01,2013-02-23 20:43:00,
2013-02-23 14:44:00,25.4,19.2,29.74,West,273,4.0,8.0,77,0.00,,BKN026,0.00,VWS V14.01,2013-02-23 20:44:00,
2013-02-23 14:45:00,25.4,19.2,29.74,West,273,3.0,8.0,77,0.00,,BKN026,0.00,VWS V14.01,2013-02-23 20:45:00,
2013-02-23 14:46:00,25.4,19.2,29.74,West,273,2.0,8.0,77,0.00,,BKN026,0.00,VWS V14.01,2013-02-23 20:46:00,
2013-02-23 14:47:00,25.4,19.2,29.74,West,273,0.0,8.0,77,0.00,,BKN026,0.00,VWS V14.01,2013-02-23 20:47:00,
2013-02-23 14:48:00,25.4,19.2,29.74,West,273,1.0,8.0,77,0.00,,BKN026,0.00,VWS V14.01,2013-02-23 20:48:00,
2013-02-23 14:49:00,25.4,19.2,29.74,West,273,0.0,8.0,77,0.00,,BKN026,0.00,VWS V14.01,2013-02-23 20:49:00,
2013-02-23 14:50:00,25.4,19.2,29.74,West,273,5.0,8.0,77,0.00,,BKN026,0.00,VWS V14.01,2013-02-23 20:50:00,
2013-02-23 14:51:00,25.4,19.5,29.74,West,273,2.0,8.0,78,0.00,,BKN026,0.00,VWS V14.01,2013-02-23 20:51:00,
2013-02-23 14:52:00,25.3,19.1,29.74,West,273,2.0,8.0,77,0.00,,BKN026,0.00,VWS V14.01,2013-02-23 20:52:00,
2013-02-23 14:53:00,25.3,19.1,29.74,West,273,0.0,8.0,77,0.00,,BKN026,0.00,VWS V14.01,2013-02-23 20:53:00,
2013-02-23 14:54:00,25.1,18.9,29.74,West,273,0.0,8.0,77,0.00,,BKN026,0.00,VWS V14.01,2013-02-23 20:54:00,
2013-02-23 14:55:00,25.1,19.2,29.74,West,273,0.0,8.0,78,0.00,,BKN026,0.00,VWS V14.01,2013-02-23 20:55:00,
2013-02-23 14:56:00,25.1,19.2,29.74,West,273,5.0,8.0,78,0.00,,BKN026,0.00,VWS V14.01,2013-02-23 20:56:00,
2013-02-23 14:57:00,25.1,19.2,29.74,West,273,1.0,8.0,78,0.00,,BKN026,0.00,VWS V14.01,2013-02-23 20:57:00,
2013-02-23 14:58:00,25.0,19.1,29.74,West,273,0.0,8.0,78,0.00,,BKN026,0.00,VWS V14.01,2013-02-23 20:58:00,
2013-02-23 14:59:00,25.0,19.1,29.74,West,273,3.0,8.0,78,0.00,,BKN026,0.00,VWS V14.01,2013-02-23 20:59:00,
2013-02-23 15:00:00,25.0,19.1,29.74,West,273,0.0,8.0,78,0.00,,BKN026,0.00,VWS V14.01,2013-02-23 21:00:00,
2013-02-23 15:01:00,25.0,19.1,29.74,West,273,0.0,3.0,78,0.00,,BKN026,0.00,VWS V14.01,2013-02-23 21:01:00,
2013-02-23 15:02:00,25.0,19.1,29.74,West,273,0.0,3.0,78,0.00,,BKN026,0.00,VWS V14.01,2013-02-23 21:02:00,
2013-02-23 15:03:00,24.8,18.9,29.74,West,273,0.0,3.0,78,0.00,,BKN026,0.00,VWS V14.01,2013-02-23 21:03:00,
2013-02-23 15:04:00,24.8,18.9,29.74,West,273,0.0,3.0,78,0.00,,BKN026,0.00,VWS V14.01,2013-02-23 21:04:00,
2013-02-23 15:05:00,24.8,18.9,29.74,West,273,0.0,3.0,78,0.00,,BKN026,0.00,VWS V14.01,2013-02-23 21:05:00,
2013-02-23 15:06:00,24.7,18.8,29.74,West,273,0.0,4.0,78,0.00,,BKN026,0.00,VWS V14.01,2013-02-23 21:06:00,
2013-02-23 15:07:00,24.7,18.8,29.74,West,273,1.0,4.0,78,0.00,,BKN026,0.00,VWS V14.01,2013-02-23 21:07:00,
2013-02-23 15:08:00,24.7,18.8,29.74,West,273,1.0,4.0,78,0.00,,BKN026,0.00,VWS V14.01,2013-02-23 21:08:00,
2013-02-23 15:09:00,24.7,18.8,29.74,West,273,0.0,4.0,78,0.00,,BKN026,0.00,VWS V14.01,2013-02-23 21:09:00,
2013-02-23 15:10:00,24.8,19.2,29.74,West,273,0.0,4.0,79,0.00,,BKN026,0.00,VWS V14.01,2013-02-23 21:10:00,
2013-02-23 15:11:00,24.8,19.2,29.74,West,273,0.0,4.0,79,0.00,,BKN026,0.00,VWS V14.01,2013-02-23 21:11:00,
2013-02-23 15:12:00,25.0,19.4,29.74,West,273,1.0,7.0,79,0.00,,BKN026,0.00,VWS V14.01,2013-02-23 21:12:00,
2013-02-23 15:13:00,25.0,19.1,29.74,West,273,0.0,7.0,78,0.00,,BKN026,0.00,VWS V14.01,2013-02-23 21:13:00,
2013-02-23 15:14:00,25.0,19.1,29.74,West,273,1.0,7.0,78,0.00,,BKN026,0.00,VWS V14.01,2013-02-23 21:14:00,
2013-02-23 15:15:00,25.1,19.2,29.74,West,273,0.0,7.0,78,0.00,,BKN026,0.00,VWS V14.01,2013-02-23 21:15:00,
2013-02-23 15:16:00,25.1,19.2,29.74,West,273,6.0,7.0,78,0.00,,BKN026,0.00,VWS V14.01,2013-02-23 21:16:00,
2013-02-23 15:17:00,25.1,18.9,29.74,West,273,2.0,7.0,77,0.00,,BKN026,0.00,VWS V14.01,2013-02-23 21:17:00,
2013-02-23 15:18:00,25.1,18.9,29.74,West,273,0.0,7.0,77,0.00,,BKN026,0.00,VWS V14.01,2013-02-23 21:18:00,
2013-02-23 15:19:00,25.1,18.9,29.74,West,273,1.0,7.0,77,0.00,,BKN026,0.00,VWS V14.01,2013-02-23 21:19:00,
2013-02-23 15:20:00,25.1,18.9,29.74,West,273,0.0,7.0,77,0.00,,BKN026,0.00,VWS V14.01,2013-02-23 21:20:00,
2013-02-23 15:21:00,25.3,19.1,29.74,West,273,0.0,7.0,77,0.00,,BKN026,0.00,VWS V14.01,2013-02-23 21:21:00,
2013-02-23 15:22:00,25.3,19.1,29.74,West,273,0.0,7.0,77,0.00,,BKN026,0.00,VWS V14.01,2013-02-23 21:22:00,
2013-02-23 15:23:00,25.3,19.1,29.74,West,273,0.0,7.0,77,0.00,,BKN026,0.00,VWS V14.01,2013-02-23 21:23:00,
2013-02-23 15:24:00,25.3,19.1,29.74,West,273,0.0,7.0,77,0.00,,BKN026,0.00,VWS V14.01,2013-02-23 21:24:00,
2013-02-23 15:25:00,25.3,19.1,29.74,West,273,2.0,7.0,77,0.00,,BKN026,0.00,VWS V14.01,2013-02-23 21:25:00,
2013-02-23 15:26:00,25.3,19.1,29.74,West,273,0.0,7.0,77,0.00,,BKN026,0.00,VWS V14.01,2013-02-23 21:26:00,
2013-02-23 15:27:00,25.3,18.8,29.74,West,273,0.0,7.0,76,0.00,,BKN026,0.00,VWS V14.01,2013-02-23 21:27:00,
2013-02-23 15:28:00,25.3,18.8,29.74,West,273,0.0,7.0,76,0.00,,BKN026,0.00,VWS V14.01,2013-02-23 21:28:00,
2013-02-23 15:29:00,25.3,19.1,29.74,West,273,0.0,7.0,77,0.00,,BKN026,0.00,VWS V14.01,2013-02-23 21:29:00,
2013-02-23 15:30:00,25.3,19.1,29.74,West,273,0.0,7.0,77,0.00,,BKN026,0.00,VWS V14.01,2013-02-23 21:30:00,
2013-02-23 15:31:00,25.1,18.9,29.74,West,273,1.0,4.0,77,0.00,,BKN026,0.00,VWS V14.01,2013-02-23 21:31:00,
2013-02-23 15:32:00,25.1,18.9,29.74,West,273,2.0,5.0,77,0.00,,BKN026,0.00,VWS V14.01,2013-02-23 21:32:00,
2013-02-23 15:33:00,25.1,18.6,29.74,West,273,0.0,5.0,76,0.00,,BKN026,0.00,VWS V14.01,2013-02-23 21:33:00,
2013-02-23 15:34:00,25.0,18.8,29.74,West,273,0.0,5.0,77,0.00,,BKN026,0.00,VWS V14.01,2013-02-23 21:34:00,
2013-02-23 15:35:00,25.0,18.8,29.74,West,273,0.0,5.0,77,0.00,,BKN026,0.00,VWS V14.01,2013-02-23 21:35:00,
2013-02-23 15:36:00,25.0,18.8,29.74,West,273,0.0,5.0,77,0.00,,BKN026,0.00,VWS V14.01,2013-02-23 21:36:00,
2013-02-23 15:37:00,25.0,18.8,29.74,West,273,5.0,6.0,77,0.00,,BKN026,0.00,VWS V14.01,2013-02-23 21:37:00,
2013-02-23 15:38:00,25.0,18.8,29.74,West,273,0.0,6.0,77,0.00,,BKN026,0.00,VWS V14.01,2013-02-23 21:38:00,
2013-02-23 15:39:00,25.0,18.8,29.74,West,273,3.0,6.0,77,0.00,,BKN026,0.00,VWS V14.01,2013-02-23 21:39:00,
2013-02-23 15:40:00,25.0,18.8,29.74,West,273,0.0,6.0,77,0.00,,BKN026,0.00,VWS V14.01,2013-02-23 21:40:00,
2013-02-23 15:41:00,25.0,18.8,29.74,West,273,0.0,6.0,77,0.00,,BKN026,0.00,VWS V14.01,2013-02-23 21:41:00,
2013-02-23 15:42:00,25.0,18.8,29.74,West,273,0.0,6.0,77,0.00,,BKN026,0.00,VWS V14.01,2013-02-23 21:42:00,
2013-02-23 15:43:00,24.8,18.6,29.74,West,273,1.0,6.0,77,0.00,,BKN028,0.00,VWS V14.01,2013-02-23 21:43:00,
2013-02-23 15:44:00,24.8,18.6,29.74,West,273,5.0,6.0,77,0.00,,BKN028,0.00,VWS V14.01,2013-02-23 21:44:00,
2013-02-23 15:45:00,24.8,18.6,29.74,West,273,0.0,6.0,77,0.00,,BKN028,0.00,VWS V14.01,2013-02-23 21:45:00,
2013-02-23 15:46:00,24.8,18.6,29.74,West,273,0.0,6.0,77,0.00,,BKN028,0.00,VWS V14.01,2013-02-23 21:46:00,
2013-02-23 15:47:00,24.8,18.6,29.74,West,273,1.0,6.0,77,0.00,,BKN028,0.00,VWS V14.01,2013-02-23 21:47:00,
2013-02-23 15:48:00,24.7,18.5,29.74,West,273,5.0,6.0,77,0.00,,BKN028,0.00,VWS V14.01,2013-02-23 21:48:00,
2013-02-23 15:49:00,24.7,18.5,29.74,West,273,0.0,6.0,77,0.00,,BKN028,0.00,VWS V14.01,2013-02-23 21:49:00,
2013-02-23 15:50:00,24.8,18.9,29.74,West,273,1.0,6.0,78,0.00,,BKN028,0.00,VWS V14.01,2013-02-23 21:50:00,
2013-02-23 15:51:00,24.8,18.6,29.74,West,273,1.0,6.0,77,0.00,,BKN028,0.00,VWS V14.01,2013-02-23 21:51:00,
2013-02-23 15:52:00,24.8,18.6,29.74,West,273,1.0,6.0,77,0.00,,BKN028,0.00,VWS V14.01,2013-02-23 21:52:00,
2013-02-23 15:53:00,24.8,18.6,29.74,West,273,0.0,6.0,77,0.00,,BKN028,0.00,VWS V14.01,2013-02-23 21:53:00,
2013-02-23 15:54:00,24.8,18.6,29.74,West,273,2.0,6.0,77,0.00,,BKN028,0.00,VWS V14.01,2013-02-23 21:54:00,
2013-02-23 15:55:00,24.8,18.6,29.74,West,273,5.0,7.0,77,0.00,,BKN028,0.00,VWS V14.01,2013-02-23 21:55:00,
2013-02-23 15:56:00,24.8,18.6,29.74,West,273,2.0,7.0,77,0.00,,BKN028,0.00,VWS V14.01,2013-02-23 21:56:00,
2013-02-23 15:57:00,24.8,18.6,29.74,West,273,0.0,7.0,77,0.00,,BKN028,0.00,VWS V14.01,2013-02-23 21:57:00,
2013-02-23 15:58:00,24.8,18.6,29.74,West,273,0.0,7.0,77,0.00,,BKN028,0.00,VWS V14.01,2013-02-23 21:58:00,
2013-02-23 15:59:00,24.8,18.6,29.74,West,273,0.0,7.0,77,0.00,,BKN028,0.00,VWS V14.01,2013-02-23 21:59:00,
2013-02-23 16:00:00,24.8,18.9,29.74,West,273,0.0,7.0,78,0.00,,BKN028,0.00,VWS V14.01,2013-02-23 22:00:00,
2013-02-23 16:01:00,24.8,18.6,29.74,West,273,3.0,3.0,77,0.00,,BKN028,0.00,VWS V14.01,2013-02-23 22:01:00,
2013-02-23 16:02:00,24.8,18.6,29.74,West,273,3.0,3.0,77,0.00,,BKN028,0.00,VWS V14.01,2013-02-23 22:02:00,
2013-02-23 16:03:00,24.8,18.6,29.74,West,273,2.0,3.0,77,0.00,,BKN028,0.00,VWS V14.01,2013-02-23 22:03:00,
2013-02-23 16:04:00,24.8,18.6,29.74,West,273,0.0,4.0,77,0.00,,BKN028,0.00,VWS V14.01,2013-02-23 22:04:00,
2013-02-23 16:05:00,24.8,18.6,29.74,West,273,0.0,4.0,77,0.00,,BKN028,0.00,VWS V14.01,2013-02-23 22:05:00,
2013-02-23 16:06:00,24.7,18.5,29.74,West,273,0.0,4.0,77,0.00,,BKN028,0.00,VWS V14.01,2013-02-23 22:06:00,
2013-02-23 16:07:00,24.7,18.5,29.74,West,273,2.0,4.0,77,0.00,,BKN028,0.00,VWS V14.01,2013-02-23 22:07:00,
2013-02-23 16:08:00,24.7,18.5,29.74,West,273,1.0,4.0,77,0.00,,BKN028,0.00,VWS V14.01,2013-02-23 22:08:00,
2013-02-23 16:09:00,24.7,18.8,29.74,West,273,3.0,6.0,78,0.00,,BKN028,0.00,VWS V14.01,2013-02-23 22:09:00,
2013-02-23 16:10:00,24.7,18.8,29.74,West,273,1.0,6.0,78,0.00,,BKN028,0.00,VWS V14.01,2013-02-23 22:10:00,
2013-02-23 16:11:00,24.7,18.8,29.74,West,273,0.0,6.0,78,0.00,,BKN028,0.00,VWS V14.01,2013-02-23 22:11:00,
2013-02-23 16:12:00,24.5,18.6,29.74,West,273,2.0,6.0,78,0.00,,BKN028,0.00,VWS V14.01,2013-02-23 22:12:00,
2013-02-23 16:13:00,24.5,18.6,29.74,West,273,3.0,6.0,78,0.00,,BKN028,0.00,VWS V14.01,2013-02-23 22:13:00,
2013-02-23 16:14:00,24.5,18.6,29.74,West,273,0.0,6.0,78,0.00,,BKN028,0.00,VWS V14.01,2013-02-23 22:14:00,
2013-02-23 16:15:00,24.5,18.6,29.75,West,273,0.0,6.0,78,0.00,,BKN028,0.00,VWS V14.01,2013-02-23 22:15:00,
2013-02-23 16:16:00,24.4,18.5,29.75,West,273,0.0,6.0,78,0.00,,BKN028,0.00,VWS V14.01,2013-02-23 22:16:00,
2013-02-23 16:17:00,24.4,18.5,29.75,West,273,0.0,6.0,78,0.00,,BKN028,0.00,VWS V14.01,2013-02-23 22:17:00,
2013-02-23 16:18:00,24.4,18.5,29.75,West,273,2.0,6.0,78,0.00,,BKN028,0.00,VWS V14.01,2013-02-23 22:18:00,
2013-02-23 16:19:00,24.4,18.5,29.75,West,273,0.0,6.0,78,0.00,,BKN028,0.00,VWS V14.01,2013-02-23 22:19:00,
2013-02-23 16:20:00,24.4,18.5,29.75,West,273,3.0,6.0,78,0.00,,BKN028,0.00,VWS V14.01,2013-02-23 22:20:00,
2013-02-23 16:21:00,24.2,18.3,29.75,West,273,0.0,6.0,78,0.00,,BKN028,0.00,VWS V14.01,2013-02-23 22:21:00,
2013-02-23 16:22:00,24.2,18.3,29.75,West,273,0.0,7.0,78,0.00,,BKN028,0.00,VWS V14.01,2013-02-23 22:22:00,
2013-02-23 16:23:00,24.2,18.3,29.75,West,273,1.0,7.0,78,0.00,,BKN028,0.00,VWS V14.01,2013-02-23 22:23:00,
2013-02-23 16:24:00,24.2,18.6,29.75,West,273,1.0,7.0,79,0.00,,BKN028,0.00,VWS V14.01,2013-02-23 22:24:00,
2013-02-23 16:25:00,24.2,18.3,29.75,West,273,0.0,7.0,78,0.00,,BKN028,0.00,VWS V14.01,2013-02-23 22:25:00,
2013-02-23 16:26:00,24.2,18.3,29.75,West,273,0.0,7.0,78,0.00,,BKN028,0.00,VWS V14.01,2013-02-23 22:26:00,
2013-02-23 16:27:00,24.2,18.3,29.75,West,273,1.0,7.0,78,0.00,,BKN028,0.00,VWS V14.01,2013-02-23 22:27:00,
2013-02-23 16:28:00,24.4,18.8,29.75,West,273,0.0,7.0,79,0.00,,BKN028,0.00,VWS V14.01,2013-02-23 22:28:00,
2013-02-23 16:29:00,24.4,18.5,29.75,West,273,0.0,7.0,78,0.00,,BKN028,0.00,VWS V14.01,2013-02-23 22:29:00,
2013-02-23 16:30:00,24.4,18.5,29.75,West,273,2.0,7.0,78,0.00,,BKN028,0.00,VWS V14.01,2013-02-23 22:30:00,
2013-02-23 16:31:00,24.5,18.6,29.75,West,273,0.0,3.0,78,0.00,,BKN028,0.00,VWS V14.01,2013-02-23 22:31:00,
2013-02-23 16:32:00,24.5,18.6,29.75,West,273,0.0,3.0,78,0.00,,BKN028,0.00,VWS V14.01,2013-02-23 22:32:00,
2013-02-23 16:33:00,24.7,18.8,29.75,West,273,0.0,3.0,78,0.00,,BKN028,0.00,VWS V14.01,2013-02-23 22:33:00,
2013-02-23 16:34:00,24.7,18.8,29.75,West,273,0.0,3.0,78,0.00,,BKN028,0.00,VWS V14.01,2013-02-23 22:34:00,
2013-02-23 16:35:00,24.7,18.5,29.75,West,273,0.0,3.0,77,0.00,,BKN028,0.00,VWS V14.01,2013-02-23 22:35:00,
2013-02-23 16:36:00,24.7,18.5,29.75,West,273,0.0,3.0,77,0.00,,BKN028,0.00,VWS V14.01,2013-02-23 22:36:00,
2013-02-23 16:37:00,24.7,18.5,29.75,West,273,0.0,3.0,77,0.00,,BKN028,0.00,VWS V14.01,2013-02-23 22:37:00,
2013-02-23 16:38:00,24.7,18.5,29.75,West,273,0.0,3.0,77,0.00,,BKN028,0.00,VWS V14.01,2013-02-23 22:38:00,
2013-02-23 16:39:00,24.7,18.5,29.75,West,273,2.0,3.0,77,0.00,,BKN028,0.00,VWS V14.01,2013-02-23 22:39:00,
2013-02-23 16:40:00,24.7,18.5,29.75,West,273,0.0,3.0,77,0.00,,BKN028,0.00,VWS V14.01,2013-02-23 22:40:00,
2013-02-23 16:41:00,24.8,18.6,29.75,West,273,0.0,3.0,77,0.00,,BKN028,0.00,VWS V14.01,2013-02-23 22:41:00,
2013-02-23 16:42:00,24.8,18.6,29.75,West,273,6.0,6.0,77,0.00,,BKN028,0.00,VWS V14.01,2013-02-23 22:42:00,
2013-02-23 16:43:00,24.8,18.3,29.75,West,273,0.0,6.0,76,0.00,,BKN028,0.00,VWS V14.01,2013-02-23 22:43:00,
2013-02-23 16:44:00,24.8,18.3,29.75,West,273,1.0,6.0,76,0.00,,BKN028,0.00,VWS V14.01,2013-02-23 22:44:00,
2013-02-23 16:45:00,24.8,18.3,29.75,West,273,0.0,6.0,76,0.00,,BKN028,0.00,VWS V14.01,2013-02-23 22:45:00,
2013-02-23 16:46:00,24.8,18.0,29.75,West,273,0.0,6.0,75,0.00,,BKN028,0.00,VWS V14.01,2013-02-23 22:46:00,
2013-02-23 16:47:00,24.8,18.0,29.75,West,273,0.0,6.0,75,0.00,,BKN028,0.00,VWS V14.01,2013-02-23 22:47:00,
2013-02-23 16:48:00,24.8,18.0,29.75,West,273,0.0,6.0,75,0.00,,BKN028,0.00,VWS V14.01,2013-02-23 22:48:00,
2013-02-23 16:49:00,24.8,18.0,29.75,West,273,0.0,6.0,75,0.00,,BKN028,0.00,VWS V14.01,2013-02-23 22:49:00,
2013-02-23 16:50:00,24.8,17.7,29.75,West,273,1.0,6.0,74,0.00,,BKN028,0.00,VWS V14.01,2013-02-23 22:50:00,
2013-02-23 16:51:00,24.8,17.7,29.75,West,273,0.0,6.0,74,0.00,,BKN028,0.00,VWS V14.01,2013-02-23 22:51:00,
2013-02-23 16:52:00,24.8,17.7,29.75,West,273,0.0,6.0,74,0.00,,BKN028,0.00,VWS V14.01,2013-02-23 22:52:00,
2013-02-23 16:53:00,24.7,17.6,29.75,West,273,3.0,6.0,74,0.00,,BKN028,0.00,VWS V14.01,2013-02-23 22:53:00,
2013-02-23 16:54:00,24.7,17.6,29.75,West,273,0.0,6.0,74,0.00,,BKN028,0.00,VWS V14.01,2013-02-23 22:54:00,
2013-02-23 16:55:00,24.7,17.6,29.75,West,273,0.0,6.0,74,0.00,,BKN028,0.00,VWS V14.01,2013-02-23 22:55:00,
2013-02-23 16:56:00,24.5,17.4,29.75,West,273,3.0,6.0,74,0.00,,BKN028,0.00,VWS V14.01,2013-02-23 22:56:00,
2013-02-23 16:57:00,24.4,17.3,29.75,West,273,0.0,6.0,74,0.00,,BKN028,0.00,VWS V14.01,2013-02-23 22:57:00,
2013-02-23 16:58:00,24.4,17.3,29.75,West,273,0.0,6.0,74,0.00,,SCT028,0.00,VWS V14.01,2013-02-23 22:58:00,
2013-02-23 16:59:00,24.2,17.1,29.75,West,273,1.0,6.0,74,0.00,,SCT028,0.00,VWS V14.01,2013-02-23 22:59:00,
2013-02-23 17:00:00,24.2,17.1,29.76,West,273,0.0,6.0,74,0.00,,SCT028,0.00,VWS V14.01,2013-02-23 23:00:00,
2013-02-23 17:01:00,24.1,17.0,29.76,West,273,0.0,1.0,74,0.00,,SCT028,0.00,VWS V14.01,2013-02-23 23:01:00,
2013-02-23 17:02:00,24.1,17.0,29.76,West,273,0.0,2.0,74,0.00,,SCT028,0.00,VWS V14.01,2013-02-23 23:02:00,
2013-02-23 17:03:00,23.9,16.8,29.76,West,273,2.0,3.0,74,0.00,,SCT028,0.00,VWS V14.01,2013-02-23 23:03:00,
2013-02-23 17:04:00,23.8,17.0,29.76,West,273,0.0,3.0,75,0.00,,SCT028,0.00,VWS V14.01,2013-02-23 23:04:00,
2013-02-23 17:05:00,23.8,17.0,29.76,West,273,0.0,3.0,75,0.00,,SCT028,0.00,VWS V14.01,2013-02-23 23:05:00,
2013-02-23 17:06:00,23.6,16.9,29.76,West,273,0.0,3.0,75,0.00,,SCT028,0.00,VWS V14.01,2013-02-23 23:06:00,
2013-02-23 17:07:00,23.6,16.9,29.76,West,273,2.0,3.0,75,0.00,,SCT028,0.00,VWS V14.01,2013-02-23 23:07:00,
2013-02-23 17:08:00,23.6,16.9,29.76,West,273,1.0,3.0,75,0.00,,SCT028,0.00,VWS V14.01,2013-02-23 23:08:00,
2013-02-23 17:09:00,23.5,16.8,29.76,West,273,0.0,3.0,75,0.00,,SCT028,0.00,VWS V14.01,2013-02-23 23:09:00,
2013-02-23 17:10:00,23.5,16.8,29.76,West,273,0.0,3.0,75,0.00,,SCT028,0.00,VWS V14.01,2013-02-23 23:10:00,
2013-02-23 17:11:00,23.3,16.6,29.76,West,273,0.0,3.0,75,0.00,,SCT028,0.00,VWS V14.01,2013-02-23 23:11:00,
2013-02-23 17:12:00,23.3,16.6,29.76,West,273,0.0,3.0,75,0.00,,SCT028,0.00,VWS V14.01,2013-02-23 23:12:00,
2013-02-23 17:13:00,23.3,16.6,29.76,West,273,0.0,3.0,75,0.00,,BKN028,0.00,VWS V14.01,2013-02-23 23:13:00,
2013-02-23 17:14:00,23.3,16.6,29.76,West,273,0.0,3.0,75,0.00,,BKN028,0.00,VWS V14.01,2013-02-23 23:14:00,
2013-02-23 17:15:00,23.2,16.5,29.76,West,273,0.0,3.0,75,0.00,,BKN028,0.00,VWS V14.01,2013-02-23 23:15:00,
2013-02-23 17:16:00,23.2,16.5,29.76,West,273,0.0,3.0,75,0.00,,BKN028,0.00,VWS V14.01,2013-02-23 23:16:00,
2013-02-23 17:17:00,23.2,16.8,29.76,West,273,0.0,3.0,76,0.00,,BKN028,0.00,VWS V14.01,2013-02-23 23:17:00,
2013-02-23 17:18:00,23.2,16.5,29.76,West,273,0.0,3.0,75,0.00,,BKN028,0.00,VWS V14.01,2013-02-23 23:18:00,
2013-02-23 17:19:00,23.0,16.3,29.76,West,273,0.0,3.0,75,0.00,,BKN028,0.00,VWS V14.01,2013-02-23 23:19:00,
2013-02-23 17:20:00,23.0,16.3,29.76,West,273,0.0,3.0,75,0.00,,BKN028,0.00,VWS V14.01,2013-02-23 23:20:00,
2013-02-23 17:21:00,22.9,16.2,29.76,West,273,0.0,3.0,75,0.00,,BKN028,0.00,VWS V14.01,2013-02-23 23:21:00,
2013-02-23 17:22:00,22.9,16.2,29.76,West,273,0.0,3.0,75,0.00,,BKN028,0.00,VWS V14.01,2013-02-23 23:22:00,
2013-02-23 17:23:00,22.7,16.0,29.76,West,273,0.0,3.0,75,0.00,,BKN028,0.00,VWS V14.01,2013-02-23 23:23:00,
2013-02-23 17:24:00,22.5,16.1,29.76,West,273,0.0,3.0,76,0.00,,BKN028,0.00,VWS V14.01,2013-02-23 23:24:00,
2013-02-23 17:25:00,22.4,16.0,29.76,West,273,0.0,3.0,76,0.00,,BKN028,0.00,VWS V14.01,2013-02-23 23:25:00,
2013-02-23 17:26:00,22.4,16.0,29.76,West,273,0.0,3.0,76,0.00,,BKN028,0.00,VWS V14.01,2013-02-23 23:26:00,
2013-02-23 17:27:00,22.2,16.1,29.76,West,273,0.0,3.0,77,0.00,,BKN028,0.00,VWS V14.01,2013-02-23 23:27:00,
2013-02-23 17:28:00,22.1,16.0,29.76,West,273,0.0,3.0,77,0.00,,BKN028,0.00,VWS V14.01,2013-02-23 23:28:00,
2013-02-23 17:29:00,22.1,16.0,29.76,West,273,0.0,3.0,77,0.00,,BKN028,0.00,VWS V14.01,2013-02-23 23:29:00,
2013-02-23 17:30:00,21.9,15.8,29.76,West,273,0.0,3.0,77,0.00,,BKN028,0.00,VWS V14.01,2013-02-23 23:30:00,
2013-02-23 17:31:00,21.9,15.8,29.76,West,273,0.0,1.0,77,0.00,,BKN028,0.00,VWS V14.01,2013-02-23 23:31:00,
2013-02-23 17:32:00,21.8,15.7,29.76,West,273,0.0,1.0,77,0.00,,BKN028,0.00,VWS V14.01,2013-02-23 23:32:00,
2013-02-23 17:33:00,21.8,16.0,29.76,West,273,0.0,1.0,78,0.00,,BKN028,0.00,VWS V14.01,2013-02-23 23:33:00,
2013-02-23 17:34:00,21.6,15.8,29.76,West,273,0.0,1.0,78,0.00,,BKN028,0.00,VWS V14.01,2013-02-23 23:34:00,
2013-02-23 17:35:00,21.6,15.8,29.76,West,273,0.0,1.0,78,0.00,,BKN028,0.00,VWS V14.01,2013-02-23 23:35:00,
2013-02-23 17:36:00,21.4,15.6,29.76,West,273,0.0,1.0,78,0.00,,BKN028,0.00,VWS V14.01,2013-02-23 23:36:00,
2013-02-23 17:37:00,21.4,15.6,29.76,West,273,0.0,1.0,78,0.00,,BKN028,0.00,VWS V14.01,2013-02-23 23:37:00,
2013-02-23 17:38:00,21.3,15.5,29.76,West,273,0.0,1.0,78,0.00,,BKN028,0.00,VWS V14.01,2013-02-23 23:38:00,
2013-02-23 17:39:00,21.3,15.8,29.76,West,273,0.0,1.0,79,0.00,,BKN028,0.00,VWS V14.01,2013-02-23 23:39:00,
2013-02-23 17:40:00,21.3,15.8,29.76,West,273,0.0,1.0,79,0.00,,BKN028,0.00,VWS V14.01,2013-02-23 23:40:00,
2013-02-23 17:41:00,21.1,15.6,29.76,West,273,0.0,1.0,79,0.00,,BKN028,0.00,VWS V14.01,2013-02-23 23:41:00,
2013-02-23 17:42:00,21.1,15.6,29.76,West,273,0.0,1.0,79,0.00,,BKN028,0.00,VWS V14.01,2013-02-23 23:42:00,
2013-02-23 17:43:00,21.1,15.6,29.76,West,273,0.0,1.0,79,0.00,,BKN031,0.00,VWS V14.01,2013-02-23 23:43:00,
2013-02-23 17:44:00,21.0,15.5,29.76,West,273,0.0,1.0,79,0.00,,BKN031,0.00,VWS V14.01,2013-02-23 23:44:00,
2013-02-23 17:45:00,21.0,15.5,29.77,West,273,0.0,1.0,79,0.00,,BKN031,0.00,VWS V14.01,2013-02-23 23:45:00,
2013-02-23 17:46:00,20.8,15.3,29.77,West,273,0.0,1.0,79,0.00,,BKN031,0.00,VWS V14.01,2013-02-23 23:46:00,
2013-02-23 17:47:00,20.8,15.3,29.77,West,273,0.0,1.0,79,0.00,,BKN031,0.00,VWS V14.01,2013-02-23 23:47:00,
2013-02-23 17:48:00,20.8,15.3,29.77,West,273,0.0,1.0,79,0.00,,BKN031,0.00,VWS V14.01,2013-02-23 23:48:00,
2013-02-23 17:49:00,20.6,15.1,29.77,West,273,0.0,1.0,79,0.00,,BKN031,0.00,VWS V14.01,2013-02-23 23:49:00,
2013-02-23 17:50:00,20.6,15.4,29.77,West,273,0.0,1.0,80,0.00,,BKN031,0.00,VWS V14.01,2013-02-23 23:50:00,
2013-02-23 17:51:00,20.6,15.4,29.77,West,273,0.0,1.0,80,0.00,,BKN031,0.00,VWS V14.01,2013-02-23 23:51:00,
2013-02-23 17:52:00,20.6,15.4,29.77,West,273,1.0,1.0,80,0.00,,BKN031,0.00,VWS V14.01,2013-02-23 23:52:00,
2013-02-23 17:53:00,20.5,15.3,29.77,West,273,0.0,1.0,80,0.00,,BKN031,0.00,VWS V14.01,2013-02-23 23:53:00,
2013-02-23 17:54:00,20.5,15.3,29.77,West,273,0.0,1.0,80,0.00,,BKN031,0.00,VWS V14.01,2013-02-23 23:54:00,
2013-02-23 17:55:00,20.5,15.3,29.77,West,273,1.0,2.0,80,0.00,,BKN031,0.00,VWS V14.01,2013-02-23 23:55:00,
2013-02-23 17:56:00,20.3,15.1,29.77,West,273,0.0,2.0,80,0.00,,BKN031,0.00,VWS V14.01,2013-02-23 23:56:00,
2013-02-23 17:57:00,20.3,15.1,29.77,West,273,0.0,2.0,80,0.00,,BKN031,0.00,VWS V14.01,2013-02-23 23:57:00,
2013-02-23 17:58:00,20.3,15.1,29.77,West,273,0.0,2.0,80,0.00,,BKN031,0.00,VWS V14.01,2013-02-23 23:58:00,
2013-02-23 17:59:00,20.2,15.0,29.77,West,273,2.0,2.0,80,0.00,,BKN031,0.00,VWS V14.01,2013-02-23 23:59:00,
2013-02-23 18:00:00,20.2,15.0,29.78,West,273,1.0,2.0,80,0.00,,BKN031,0.00,VWS V14.01,2013-02-24 00:00:00,
2013-02-23 18:01:00,20.2,15.0,29.78,West,273,1.0,2.0,80,0.00,,BKN031,0.00,VWS V14.01,2013-02-24 00:01:00,
2013-02-23 18:02:00,20.0,14.8,29.78,West,273,0.0,2.0,80,0.00,,BKN031,0.00,VWS V14.01,2013-02-24 00:02:00,
2013-02-23 18:03:00,20.0,14.8,29.78,West,273,0.0,2.0,80,0.00,,BKN031,0.00,VWS V14.01,2013-02-24 00:03:00,
2013-02-23 18:04:00,20.0,14.8,29.78,West,273,0.0,2.0,80,0.00,,BKN031,0.00,VWS V14.01,2013-02-24 00:04:00,
2013-02-23 18:05:00,20.0,14.8,29.78,West,273,0.0,2.0,80,0.00,,BKN031,0.00,VWS V14.01,2013-02-24 00:05:00,
2013-02-23 18:06:00,19.9,14.7,29.78,West,273,0.0,2.0,80,0.00,,BKN031,0.00,VWS V14.01,2013-02-24 00:06:00,
2013-02-23 18:07:00,19.9,14.7,29.78,West,273,0.0,2.0,80,0.00,,BKN031,0.00,VWS V14.01,2013-02-24 00:07:00,
2013-02-23 18:08:00,19.9,14.7,29.78,West,273,0.0,2.0,80,0.00,,BKN031,0.00,VWS V14.01,2013-02-24 00:08:00,
2013-02-23 18:09:00,19.9,14.7,29.78,West,273,0.0,2.0,80,0.00,,BKN031,0.00,VWS V14.01,2013-02-24 00:09:00,
2013-02-23 18:10:00,19.9,14.7,29.78,West,273,0.0,2.0,80,0.00,,BKN031,0.00,VWS V14.01,2013-02-24 00:10:00,
2013-02-23 18:11:00,19.7,14.5,29.78,West,273,1.0,2.0,80,0.00,,BKN031,0.00,VWS V14.01,2013-02-24 00:11:00,
2013-02-23 18:12:00,19.7,14.5,29.78,West,273,0.0,2.0,80,0.00,,BKN031,0.00,VWS V14.01,2013-02-24 00:12:00,
2013-02-23 18:13:00,19.7,14.5,29.78,West,273,0.0,2.0,80,0.00,,BKN031,0.00,VWS V14.01,2013-02-24 00:13:00,
2013-02-23 18:14:00,19.7,14.5,29.78,West,273,0.0,2.0,80,0.00,,BKN031,0.00,VWS V14.01,2013-02-24 00:14:00,
2013-02-23 18:15:00,19.7,14.5,29.78,West,273,0.0,2.0,80,0.00,,BKN031,0.00,VWS V14.01,2013-02-24 00:15:00,
2013-02-23 18:16:00,19.7,14.5,29.78,West,273,0.0,2.0,80,0.00,,BKN031,0.00,VWS V14.01,2013-02-24 00:16:00,
2013-02-23 18:17:00,19.5,14.4,29.78,West,273,0.0,2.0,80,0.00,,BKN031,0.00,VWS V14.01,2013-02-24 00:17:00,
2013-02-23 18:18:00,19.5,14.4,29.78,West,273,0.0,2.0,80,0.00,,BKN031,0.00,VWS V14.01,2013-02-24 00:18:00,
2013-02-23 18:19:00,19.5,14.4,29.78,West,273,0.0,2.0,80,0.00,,BKN031,0.00,VWS V14.01,2013-02-24 00:19:00,
2013-02-23 18:20:00,19.4,14.2,29.78,West,273,0.0,2.0,80,0.00,,BKN031,0.00,VWS V14.01,2013-02-24 00:20:00,
2013-02-23 18:21:00,19.4,14.2,29.78,West,273,0.0,2.0,80,0.00,,BKN031,0.00,VWS V14.01,2013-02-24 00:21:00,
2013-02-23 18:22:00,19.4,14.2,29.78,West,273,0.0,2.0,80,0.00,,BKN031,0.00,VWS V14.01,2013-02-24 00:22:00,
2013-02-23 18:23:00,19.4,14.2,29.78,West,273,0.0,2.0,80,0.00,,BKN031,0.00,VWS V14.01,2013-02-24 00:23:00,
2013-02-23 18:24:00,19.2,14.1,29.78,West,273,0.0,2.0,80,0.00,,BKN031,0.00,VWS V14.01,2013-02-24 00:24:00,
2013-02-23 18:25:00,19.2,14.3,29.78,West,273,1.0,2.0,81,0.00,,BKN031,0.00,VWS V14.01,2013-02-24 00:25:00,
2013-02-23 18:26:00,19.2,14.3,29.78,West,273,0.0,2.0,81,0.00,,BKN031,0.00,VWS V14.01,2013-02-24 00:26:00,
2013-02-23 18:27:00,19.2,14.3,29.78,West,273,0.0,2.0,81,0.00,,BKN031,0.00,VWS V14.01,2013-02-24 00:27:00,
2013-02-23 18:28:00,19.1,14.2,29.78,West,273,0.0,2.0,81,0.00,,OVC029,0.00,VWS V14.01,2013-02-24 00:28:00,
2013-02-23 18:29:00,19.1,14.2,29.78,West,273,0.0,2.0,81,0.00,,OVC029,0.00,VWS V14.01,2013-02-24 00:29:00,
2013-02-23 18:30:00,19.1,14.2,29.79,West,273,0.0,2.0,81,0.00,,OVC029,0.00,VWS V14.01,2013-02-24 00:30:00,
2013-02-23 18:31:00,18.9,14.0,29.79,West,273,0.0,0.0,81,0.00,,OVC029,0.00,VWS V14.01,2013-02-24 00:31:00,
2013-02-23 18:32:00,18.9,14.0,29.79,West,273,0.0,0.0,81,0.00,,OVC029,0.00,VWS V14.01,2013-02-24 00:32:00,
2013-02-23 18:33:00,18.9,14.0,29.79,West,273,0.0,0.0,81,0.00,,OVC029,0.00,VWS V14.01,2013-02-24 00:33:00,
2013-02-23 18:34:00,18.8,13.9,29.79,West,273,0.0,0.0,81,0.00,,OVC029,0.00,VWS V14.01,2013-02-24 00:34:00,
2013-02-23 18:35:00,18.8,13.9,29.79,West,273,0.0,0.0,81,0.00,,OVC029,0.00,VWS V14.01,2013-02-24 00:35:00,
2013-02-23 18:36:00,18.8,13.9,29.79,West,273,0.0,0.0,81,0.00,,OVC029,0.00,VWS V14.01,2013-02-24 00:36:00,
2013-02-23 18:37:00,18.6,13.8,29.79,West,273,0.0,0.0,81,0.00,,OVC029,0.00,VWS V14.01,2013-02-24 00:37:00,
2013-02-23 18:38:00,18.6,13.8,29.79,West,273,0.0,0.0,81,0.00,,OVC029,0.00,VWS V14.01,2013-02-24 00:38:00,
2013-02-23 18:39:00,18.4,13.3,29.79,West,273,0.0,0.0,80,0.00,,OVC029,0.00,VWS V14.01,2013-02-24 00:39:00,
2013-02-23 18:40:00,18.3,13.5,29.79,West,273,0.0,0.0,81,0.00,,OVC029,0.00,VWS V14.01,2013-02-24 00:40:00,
2013-02-23 18:41:00,18.3,13.5,29.79,West,273,0.0,0.0,81,0.00,,OVC029,0.00,VWS V14.01,2013-02-24 00:41:00,
2013-02-23 18:42:00,18.1,13.3,29.79,West,273,0.0,0.0,81,0.00,,OVC029,0.00,VWS V14.01,2013-02-24 00:42:00,
2013-02-23 18:43:00,18.0,13.2,29.79,West,273,0.0,0.0,81,0.00,,OVC029,0.00,VWS V14.01,2013-02-24 00:43:00,
2013-02-23 18:44:00,18.0,13.4,29.79,West,273,0.0,0.0,82,0.00,,OVC029,0.00,VWS V14.01,2013-02-24 00:44:00,
2013-02-23 18:45:00,18.0,13.4,29.79,West,273,0.0,0.0,82,0.00,,OVC029,0.00,VWS V14.01,2013-02-24 00:45:00,
2013-02-23 18:46:00,17.8,13.2,29.79,West,273,0.0,0.0,82,0.00,,OVC029,0.00,VWS V14.01,2013-02-24 00:46:00,
2013-02-23 18:47:00,17.8,13.2,29.79,West,273,0.0,0.0,82,0.00,,OVC029,0.00,VWS V14.01,2013-02-24 00:47:00,
2013-02-23 18:48:00,17.8,13.2,29.79,West,273,0.0,0.0,82,0.00,,OVC029,0.00,VWS V14.01,2013-02-24 00:48:00,
2013-02-23 18:49:00,17.8,13.5,29.79,West,273,0.0,0.0,83,0.00,,OVC029,0.00,VWS V14.01,2013-02-24 00:49:00,
2013-02-23 18:50:00,17.8,13.5,29.79,West,273,0.0,0.0,83,0.00,,OVC029,0.00,VWS V14.01,2013-02-24 00:50:00,
2013-02-23 18:51:00,17.8,13.5,29.79,West,273,0.0,0.0,83,0.00,,OVC029,0.00,VWS V14.01,2013-02-24 00:51:00,
2013-02-23 18:52:00,17.8,13.5,29.79,West,273,0.0,0.0,83,0.00,,OVC029,0.00,VWS V14.01,2013-02-24 00:52:00,
2013-02-23 18:53:00,17.7,13.4,29.79,West,273,0.0,0.0,83,0.00,,OVC029,0.00,VWS V14.01,2013-02-24 00:53:00,
2013-02-23 18:54:00,17.7,13.4,29.79,West,273,0.0,0.0,83,0.00,,OVC029,0.00,VWS V14.01,2013-02-24 00:54:00,
2013-02-23 18:55:00,17.7,13.4,29.79,West,273,0.0,0.0,83,0.00,,OVC029,0.00,VWS V14.01,2013-02-24 00:55:00,
2013-02-23 18:56:00,17.7,13.4,29.79,West,273,0.0,0.0,83,0.00,,OVC029,0.00,VWS V14.01,2013-02-24 00:56:00,
2013-02-23 18:57:00,17.5,13.2,29.79,West,273,0.0,0.0,83,0.00,,OVC029,0.00,VWS V14.01,2013-02-24 00:57:00,
2013-02-23 18:58:00,17.5,13.2,29.79,West,273,0.0,0.0,83,0.00,,OVC029,0.00,VWS V14.01,2013-02-24 00:58:00,
2013-02-23 18:59:00,17.5,13.2,29.79,West,273,0.0,0.0,83,0.00,,OVC029,0.00,VWS V14.01,2013-02-24 00:59:00,
2013-02-23 19:00:00,17.5,13.2,29.79,West,273,0.0,0.0,83,0.00,,OVC029,0.00,VWS V14.01,2013-02-24 01:00:00,
2013-02-23 19:01:00,17.5,13.2,29.79,West,273,0.0,0.0,83,0.00,,OVC029,0.00,VWS V14.01,2013-02-24 01:01:00,
2013-02-23 19:02:00,17.3,13.0,29.79,West,273,0.0,0.0,83,0.00,,OVC029,0.00,VWS V14.01,2013-02-24 01:02:00,
2013-02-23 19:03:00,17.3,13.0,29.79,West,273,0.0,0.0,83,0.00,,OVC029,0.00,VWS V14.01,2013-02-24 01:03:00,
2013-02-23 19:04:00,17.3,13.0,29.79,West,273,0.0,0.0,83,0.00,,OVC029,0.00,VWS V14.01,2013-02-24 01:04:00,
2013-02-23 19:05:00,17.3,13.0,29.79,West,273,0.0,0.0,83,0.00,,OVC029,0.00,VWS V14.01,2013-02-24 01:05:00,
2013-02-23 19:06:00,17.2,12.9,29.79,West,273,0.0,0.0,83,0.00,,OVC029,0.00,VWS V14.01,2013-02-24 01:06:00,
2013-02-23 19:07:00,17.2,12.9,29.79,West,273,0.0,0.0,83,0.00,,OVC029,0.00,VWS V14.01,2013-02-24 01:07:00,
2013-02-23 19:08:00,17.2,12.9,29.79,West,273,0.0,0.0,83,0.00,,OVC029,0.00,VWS V14.01,2013-02-24 01:08:00,
2013-02-23 19:09:00,17.0,12.7,29.79,West,273,0.0,0.0,83,0.00,,OVC029,0.00,VWS V14.01,2013-02-24 01:09:00,
2013-02-23 19:10:00,17.0,12.7,29.79,West,273,0.0,0.0,83,0.00,,OVC029,0.00,VWS V14.01,2013-02-24 01:10:00,
2013-02-23 19:11:00,17.0,12.7,29.79,West,273,0.0,0.0,83,0.00,,OVC029,0.00,VWS V14.01,2013-02-24 01:11:00,
2013-02-23 19:12:00,17.0,12.7,29.79,West,273,0.0,0.0,83,0.00,,OVC029,0.00,VWS V14.01,2013-02-24 01:12:00,
2013-02-23 19:13:00,16.9,12.6,29.79,West,273,0.0,0.0,83,0.00,,OVC029,0.00,VWS V14.01,2013-02-24 01:13:00,
2013-02-23 19:14:00,16.9,12.6,29.79,West,273,0.0,0.0,83,0.00,,OVC029,0.00,VWS V14.01,2013-02-24 01:14:00,
2013-02-23 19:15:00,16.9,12.6,29.79,West,273,0.0,0.0,83,0.00,,OVC029,0.00,VWS V14.01,2013-02-24 01:15:00,
2013-02-23 19:16:00,16.7,12.4,29.79,West,273,0.0,0.0,83,0.00,,OVC029,0.00,VWS V14.01,2013-02-24 01:16:00,
2013-02-23 19:17:00,16.7,12.4,29.79,West,273,0.0,0.0,83,0.00,,OVC029,0.00,VWS V14.01,2013-02-24 01:17:00,
2013-02-23 19:18:00,16.7,12.4,29.79,West,273,0.0,0.0,83,0.00,,OVC029,0.00,VWS V14.01,2013-02-24 01:18:00,
2013-02-23 19:19:00,16.7,12.4,29.79,West,273,0.0,0.0,83,0.00,,OVC029,0.00,VWS V14.01,2013-02-24 01:19:00,
2013-02-23 19:20:00,16.5,12.2,29.79,West,273,0.0,0.0,83,0.00,,OVC029,0.00,VWS V14.01,2013-02-24 01:20:00,
2013-02-23 19:21:00,16.5,12.2,29.79,West,273,0.0,0.0,83,0.00,,OVC029,0.00,VWS V14.01,2013-02-24 01:21:00,
2013-02-23 19:22:00,16.5,12.2,29.79,West,273,0.0,0.0,83,0.00,,OVC029,0.00,VWS V14.01,2013-02-24 01:22:00,
2013-02-23 19:23:00,16.5,12.2,29.79,West,273,0.0,0.0,83,0.00,,OVC029,0.00,VWS V14.01,2013-02-24 01:23:00,
2013-02-23 19:24:00,16.4,11.9,29.79,West,273,0.0,0.0,82,0.00,,OVC029,0.00,VWS V14.01,2013-02-24 01:24:00,
2013-02-23 19:25:00,16.4,11.9,29.79,West,273,0.0,0.0,82,0.00,,OVC029,0.00,VWS V14.01,2013-02-24 01:25:00,
2013-02-23 19:26:00,16.4,11.9,29.79,West,273,0.0,0.0,82,0.00,,OVC029,0.00,VWS V14.01,2013-02-24 01:26:00,
2013-02-23 19:27:00,16.2,11.7,29.79,West,273,0.0,0.0,82,0.00,,OVC029,0.00,VWS V14.01,2013-02-24 01:27:00,
2013-02-23 19:28:00,16.2,11.7,29.79,West,273,0.0,0.0,82,0.00,,OVC029,0.00,VWS V14.01,2013-02-24 01:28:00,
2013-02-23 19:29:00,16.1,11.6,29.79,West,273,0.0,0.0,82,0.00,,OVC029,0.00,VWS V14.01,2013-02-24 01:29:00,
2013-02-23 19:30:00,16.1,11.9,29.80,West,273,0.0,0.0,83,0.00,,OVC029,0.00,VWS V14.01,2013-02-24 01:30:00,
2013-02-23 19:31:00,16.1,11.9,29.80,West,273,0.0,0.0,83,0.00,,OVC029,0.00,VWS V14.01,2013-02-24 01:31:00,
2013-02-23 19:32:00,16.1,11.9,29.80,West,273,0.0,0.0,83,0.00,,OVC029,0.00,VWS V14.01,2013-02-24 01:32:00,
2013-02-23 19:33:00,15.9,11.7,29.80,West,273,0.0,0.0,83,0.00,,OVC029,0.00,VWS V14.01,2013-02-24 01:33:00,
2013-02-23 19:34:00,15.9,11.7,29.80,West,273,0.0,0.0,83,0.00,,OVC029,0.00,VWS V14.01,2013-02-24 01:34:00,
2013-02-23 19:35:00,15.9,11.7,29.80,West,273,0.0,0.0,83,0.00,,OVC029,0.00,VWS V14.01,2013-02-24 01:35:00,
2013-02-23 19:36:00,15.9,11.7,29.80,West,273,0.0,0.0,83,0.00,,OVC029,0.00,VWS V14.01,2013-02-24 01:36:00,
2013-02-23 19:37:00,15.9,11.7,29.80,West,273,0.0,0.0,83,0.00,,OVC029,0.00,VWS V14.01,2013-02-24 01:37:00,
2013-02-23 19:38:00,15.9,11.7,29.80,West,273,0.0,0.0,83,0.00,,OVC029,0.00,VWS V14.01,2013-02-24 01:38:00,
2013-02-23 19:39:00,15.9,11.7,29.80,West,273,0.0,0.0,83,0.00,,OVC029,0.00,VWS V14.01,2013-02-24 01:39:00,
2013-02-23 19:40:00,15.9,11.9,29.80,West,273,0.0,0.0,84,0.00,,OVC029,0.00,VWS V14.01,2013-02-24 01:40:00,
2013-02-23 19:41:00,15.9,11.9,29.80,West,273,0.0,0.0,84,0.00,,OVC029,0.00,VWS V14.01,2013-02-24 01:41:00,
2013-02-23 19:42:00,15.7,11.7,29.80,West,273,0.0,0.0,84,0.00,,OVC029,0.00,VWS V14.01,2013-02-24 01:42:00,
2013-02-23 19:43:00,15.7,11.7,29.80,West,273,0.0,0.0,84,0.00,,OVC029,0.00,VWS V14.01,2013-02-24 01:43:00,
2013-02-23 19:44:00,15.7,11.7,29.80,West,273,0.0,0.0,84,0.00,,OVC029,0.00,VWS V14.01,2013-02-24 01:44:00,
2013-02-23 19:45:00,15.7,11.7,29.80,West,273,0.0,0.0,84,0.00,,OVC029,0.00,VWS V14.01,2013-02-24 01:45:00,
2013-02-23 19:46:00,15.6,11.6,29.80,West,273,0.0,0.0,84,0.00,,OVC029,0.00,VWS V14.01,2013-02-24 01:46:00,
2013-02-23 19:47:00,15.6,11.6,29.80,West,273,0.0,0.0,84,0.00,,OVC029,0.00,VWS V14.01,2013-02-24 01:47:00,
2013-02-23 19:48:00,15.6,11.6,29.80,West,273,0.0,0.0,84,0.00,,OVC029,0.00,VWS V14.01,2013-02-24 01:48:00,
2013-02-23 19:49:00,15.6,11.6,29.80,West,273,0.0,0.0,84,0.00,,OVC029,0.00,VWS V14.01,2013-02-24 01:49:00,
2013-02-23 19:50:00,15.6,11.6,29.80,West,273,0.0,0.0,84,0.00,,OVC029,0.00,VWS V14.01,2013-02-24 01:50:00,
2013-02-23 19:51:00,15.4,11.4,29.80,West,273,0.0,0.0,84,0.00,,OVC029,0.00,VWS V14.01,2013-02-24 01:51:00,
2013-02-23 19:52:00,15.4,11.4,29.80,West,273,0.0,0.0,84,0.00,,OVC029,0.00,VWS V14.01,2013-02-24 01:52:00,
2013-02-23 19:53:00,15.4,11.4,29.80,West,273,0.0,0.0,84,0.00,,OVC029,0.00,VWS V14.01,2013-02-24 01:53:00,
2013-02-23 19:54:00,15.4,11.4,29.80,West,273,0.0,0.0,84,0.00,,OVC029,0.00,VWS V14.01,2013-02-24 01:54:00,
2013-02-23 19:55:00,15.2,11.2,29.80,West,273,0.0,0.0,84,0.00,,OVC029,0.00,VWS V14.01,2013-02-24 01:55:00,
2013-02-23 19:56:00,15.2,11.2,29.80,West,273,0.0,0.0,84,0.00,,OVC029,0.00,VWS V14.01,2013-02-24 01:56:00,
2013-02-23 19:57:00,15.2,11.2,29.80,West,273,0.0,0.0,84,0.00,,OVC029,0.00,VWS V14.01,2013-02-24 01:57:00,
2013-02-23 19:58:00,15.2,11.2,29.80,West,273,0.0,0.0,84,0.00,,OVC029,0.00,VWS V14.01,2013-02-24 01:58:00,
2013-02-23 19:59:00,15.2,11.2,29.80,West,273,0.0,0.0,84,0.00,,OVC029,0.00,VWS V14.01,2013-02-24 01:59:00,
2013-02-23 20:00:00,15.1,11.1,29.80,West,273,0.0,0.0,84,0.00,,OVC029,0.00,VWS V14.01,2013-02-24 02:00:00,
2013-02-23 20:01:00,14.9,10.9,29.80,West,273,0.0,0.0,84,0.00,,OVC029,0.00,VWS V14.01,2013-02-24 02:01:00,
2013-02-23 20:02:00,14.8,10.6,29.80,West,273,0.0,0.0,83,0.00,,OVC029,0.00,VWS V14.01,2013-02-24 02:02:00,
2013-02-23 20:03:00,14.8,10.6,29.80,West,273,0.0,0.0,83,0.00,,OVC029,0.00,VWS V14.01,2013-02-24 02:03:00,
2013-02-23 20:04:00,14.6,10.7,29.80,West,273,0.0,0.0,84,0.00,,OVC029,0.00,VWS V14.01,2013-02-24 02:04:00,
2013-02-23 20:05:00,14.6,10.7,29.80,West,273,0.0,0.0,84,0.00,,OVC029,0.00,VWS V14.01,2013-02-24 02:05:00,
2013-02-23 20:06:00,14.6,10.9,29.80,West,273,0.0,0.0,85,0.00,,OVC029,0.00,VWS V14.01,2013-02-24 02:06:00,
2013-02-23 20:07:00,14.6,10.9,29.80,West,273,0.0,0.0,85,0.00,,OVC029,0.00,VWS V14.01,2013-02-24 02:07:00,
2013-02-23 20:08:00,14.6,10.9,29.80,West,273,0.0,0.0,85,0.00,,OVC029,0.00,VWS V14.01,2013-02-24 02:08:00,
2013-02-23 20:09:00,14.6,10.9,29.80,West,273,0.0,0.0,85,0.00,,OVC029,0.00,VWS V14.01,2013-02-24 02:09:00,
2013-02-23 20:10:00,14.6,10.9,29.80,West,273,0.0,0.0,85,0.00,,OVC029,0.00,VWS V14.01,2013-02-24 02:10:00,
2013-02-23 20:11:00,14.6,10.9,29.80,West,273,0.0,0.0,85,0.00,,OVC029,0.00,VWS V14.01,2013-02-24 02:11:00,
2013-02-23 20:12:00,14.4,10.7,29.80,West,273,0.0,0.0,85,0.00,,OVC029,0.00,VWS V14.01,2013-02-24 02:12:00,
2013-02-23 20:13:00,14.4,10.7,29.80,West,273,0.0,0.0,85,0.00,,OVC029,0.00,VWS V14.01,2013-02-24 02:13:00,
2013-02-23 20:14:00,14.4,10.7,29.80,West,273,0.0,0.0,85,0.00,,OVC029,0.00,VWS V14.01,2013-02-24 02:14:00,
2013-02-23 20:15:00,14.4,10.7,29.80,West,273,0.0,0.0,85,0.00,,OVC029,0.00,VWS V14.01,2013-02-24 02:15:00,
2013-02-23 20:16:00,14.4,10.7,29.80,West,273,0.0,0.0,85,0.00,,OVC029,0.00,VWS V14.01,2013-02-24 02:16:00,
2013-02-23 20:17:00,14.4,11.0,29.80,West,273,0.0,0.0,86,0.00,,OVC029,0.00,VWS V14.01,2013-02-24 02:17:00,
2013-02-23 20:18:00,14.4,11.0,29.80,West,273,0.0,0.0,86,0.00,,OVC029,0.00,VWS V14.01,2013-02-24 02:18:00,
2013-02-23 20:19:00,14.4,10.7,29.80,West,273,0.0,0.0,85,0.00,,OVC029,0.00,VWS V14.01,2013-02-24 02:19:00,
2013-02-23 20:20:00,14.3,10.6,29.80,West,273,0.0,0.0,85,0.00,,OVC029,0.00,VWS V14.01,2013-02-24 02:20:00,
2013-02-23 20:21:00,14.3,10.6,29.80,West,273,0.0,0.0,85,0.00,,OVC029,0.00,VWS V14.01,2013-02-24 02:21:00,
2013-02-23 20:22:00,14.3,10.6,29.80,West,273,0.0,0.0,85,0.00,,OVC029,0.00,VWS V14.01,2013-02-24 02:22:00,
2013-02-23 20:23:00,14.1,10.4,29.80,West,273,0.0,0.0,85,0.00,,OVC029,0.00,VWS V14.01,2013-02-24 02:23:00,
2013-02-23 20:24:00,14.0,10.1,29.80,West,273,0.0,0.0,84,0.00,,OVC029,0.00,VWS V14.01,2013-02-24 02:24:00,
2013-02-23 20:25:00,13.8,9.9,29.80,West,273,0.0,0.0,84,0.00,,OVC029,0.00,VWS V14.01,2013-02-24 02:25:00,
2013-02-23 20:26:00,13.5,9.3,29.80,West,273,0.0,0.0,83,0.00,,OVC029,0.00,VWS V14.01,2013-02-24 02:26:00,
2013-02-23 20:27:00,13.5,9.3,29.80,West,273,0.0,0.0,83,0.00,,OVC029,0.00,VWS V14.01,2013-02-24 02:27:00,
2013-02-23 20:28:00,13.3,9.4,29.80,West,273,0.0,0.0,84,0.00,,OVC029,0.00,VWS V14.01,2013-02-24 02:28:00,
2013-02-23 20:29:00,13.1,9.2,29.80,West,273,0.0,0.0,84,0.00,,OVC029,0.00,VWS V14.01,2013-02-24 02:29:00,
2013-02-23 20:30:00,13.1,8.9,29.81,West,273,0.0,0.0,83,0.00,,OVC029,0.00,VWS V14.01,2013-02-24 02:30:00,
2013-02-23 20:31:00,12.9,8.7,29.81,West,273,0.0,0.0,83,0.00,,OVC029,0.00,VWS V14.01,2013-02-24 02:31:00,
2013-02-23 20:32:00,12.8,8.6,29.81,West,273,0.0,0.0,83,0.00,,OVC029,0.00,VWS V14.01,2013-02-24 02:32:00,
2013-02-23 20:33:00,12.8,8.6,29.81,West,273,0.0,0.0,83,0.00,,OVC029,0.00,VWS V14.01,2013-02-24 02:33:00,
2013-02-23 20:34:00,12.6,8.4,29.81,West,273,0.0,0.0,83,0.00,,OVC029,0.00,VWS V14.01,2013-02-24 02:34:00,
2013-02-23 20:35:00,12.6,8.4,29.81,West,273,0.0,0.0,83,0.00,,OVC029,0.00,VWS V14.01,2013-02-24 02:35:00,
2013-02-23 20:36:00,12.4,8.5,29.81,West,273,0.0,0.0,84,0.00,,OVC029,0.00,VWS V14.01,2013-02-24 02:36:00,
2013-02-23 20:37:00,12.4,8.5,29.81,West,273,0.0,0.0,84,0.00,,OVC029,0.00,VWS V14.01,2013-02-24 02:37:00,
2013-02-23 20:38:00,12.4,8.5,29.81,West,273,0.0,0.0,84,0.00,,OVC029,0.00,VWS V14.01,2013-02-24 02:38:00,
2013-02-23 20:39:00,12.3,8.1,29.81,West,273,0.0,0.0,83,0.00,,OVC029,0.00,VWS V14.01,2013-02-24 02:39:00,
2013-02-23 20:40:00,12.3,8.4,29.81,West,273,0.0,0.0,84,0.00,,OVC029,0.00,VWS V14.01,2013-02-24 02:40:00,
2013-02-23 20:41:00,12.3,8.4,29.81,West,273,0.0,0.0,84,0.00,,OVC029,0.00,VWS V14.01,2013-02-24 02:41:00,
2013-02-23 20:42:00,12.1,8.2,29.81,West,273,0.0,0.0,84,0.00,,OVC029,0.00,VWS V14.01,2013-02-24 02:42:00,
2013-02-23 20:43:00,12.1,8.2,29.81,West,273,0.0,0.0,84,0.00,,OVC029,0.00,VWS V14.01,2013-02-24 02:43:00,
2013-02-23 20:44:00,11.9,7.7,29.81,West,273,0.0,0.0,83,0.00,,OVC029,0.00,VWS V14.01,2013-02-24 02:44:00,
2013-02-23 20:45:00,11.7,7.6,29.82,West,273,0.0,0.0,83,0.00,,OVC029,0.00,VWS V14.01,2013-02-24 02:45:00,
2013-02-23 20:46:00,11.6,7.4,29.82,West,273,0.0,0.0,83,0.00,,OVC029,0.00,VWS V14.01,2013-02-24 02:46:00,
2013-02-23 20:47:00,11.4,7.2,29.82,West,273,0.0,0.0,83,0.00,,OVC029,0.00,VWS V14.01,2013-02-24 02:47:00,
2013-02-23 20:48:00,11.4,7.2,29.82,West,273,0.0,0.0,83,0.00,,OVC029,0.00,VWS V14.01,2013-02-24 02:48:00,
2013-02-23 20:49:00,11.2,7.1,29.82,West,273,0.0,0.0,83,0.00,,OVC029,0.00,VWS V14.01,2013-02-24 02:49:00,
2013-02-23 20:50:00,11.2,7.1,29.82,West,273,0.0,0.0,83,0.00,,OVC029,0.00,VWS V14.01,2013-02-24 02:50:00,
2013-02-23 20:51:00,11.2,7.3,29.82,West,273,0.0,0.0,84,0.00,,OVC029,0.00,VWS V14.01,2013-02-24 02:51:00,
2013-02-23 20:52:00,11.1,7.2,29.82,West,273,0.0,0.0,84,0.00,,OVC029,0.00,VWS V14.01,2013-02-24 02:52:00,
2013-02-23 20:53:00,11.1,7.2,29.82,West,273,0.0,0.0,84,0.00,,OVC029,0.00,VWS V14.01,2013-02-24 02:53:00,
2013-02-23 20:54:00,11.1,7.2,29.82,West,273,0.0,0.0,84,0.00,,OVC029,0.00,VWS V14.01,2013-02-24 02:54:00,
2013-02-23 20:55:00,11.1,7.2,29.82,West,273,0.0,0.0,84,0.00,,OVC029,0.00,VWS V14.01,2013-02-24 02:55:00,
2013-02-23 20:56:00,11.1,7.2,29.82,West,273,0.0,0.0,84,0.00,,OVC029,0.00,VWS V14.01,2013-02-24 02:56:00,
2013-02-23 20:57:00,10.9,7.0,29.82,West,273,0.0,0.0,84,0.00,,OVC029,0.00,VWS V14.01,2013-02-24 02:57:00,
2013-02-23 20:58:00,10.9,7.0,29.82,West,273,0.0,0.0,84,0.00,,OVC029,0.00,VWS V14.01,2013-02-24 02:58:00,
2013-02-23 20:59:00,10.9,7.0,29.82,West,273,0.0,0.0,84,0.00,,OVC029,0.00,VWS V14.01,2013-02-24 02:59:00,
2013-02-23 21:00:00,10.7,6.8,29.82,West,273,0.0,0.0,84,0.00,,OVC029,0.00,VWS V14.01,2013-02-24 03:00:00,
2013-02-23 21:01:00,10.7,6.8,29.82,West,273,0.0,0.0,84,0.00,,OVC029,0.00,VWS V14.01,2013-02-24 03:01:00,
2013-02-23 21:02:00,10.7,6.8,29.82,West,273,0.0,0.0,84,0.00,,OVC029,0.00,VWS V14.01,2013-02-24 03:02:00,
2013-02-23 21:03:00,10.7,6.8,29.82,West,273,0.0,0.0,84,0.00,,OVC029,0.00,VWS V14.01,2013-02-24 03:03:00,
2013-02-23 21:04:00,10.7,7.1,29.82,West,273,0.0,0.0,85,0.00,,OVC029,0.00,VWS V14.01,2013-02-24 03:04:00,
2013-02-23 21:05:00,10.7,7.1,29.82,West,273,0.0,0.0,85,0.00,,OVC029,0.00,VWS V14.01,2013-02-24 03:05:00,
2013-02-23 21:06:00,10.7,7.1,29.82,West,273,0.0,0.0,85,0.00,,OVC029,0.00,VWS V14.01,2013-02-24 03:06:00,
2013-02-23 21:07:00,10.7,7.1,29.82,West,273,0.0,0.0,85,0.00,,OVC029,0.00,VWS V14.01,2013-02-24 03:07:00,
2013-02-23 21:08:00,10.9,7.3,29.82,West,273,0.0,0.0,85,0.00,,OVC029,0.00,VWS V14.01,2013-02-24 03:08:00,
2013-02-23 21:09:00,10.9,7.5,29.82,West,273,0.0,0.0,86,0.00,,OVC029,0.00,VWS V14.01,2013-02-24 03:09:00,
2013-02-23 21:10:00,10.9,7.5,29.82,West,273,0.0,0.0,86,0.00,,OVC029,0.00,VWS V14.01,2013-02-24 03:10:00,
2013-02-23 21:11:00,11.1,7.7,29.82,West,273,0.0,0.0,86,0.00,,OVC029,0.00,VWS V14.01,2013-02-24 03:11:00,
2013-02-23 21:12:00,11.1,7.7,29.82,West,273,0.0,0.0,86,0.00,,OVC029,0.00,VWS V14.01,2013-02-24 03:12:00,
2013-02-23 21:13:00,11.2,7.8,29.82,West,273,0.0,0.0,86,0.00,,OVC029,0.00,VWS V14.01,2013-02-24 03:13:00,
2013-02-23 21:14:00,11.2,8.1,29.82,West,273,0.0,0.0,87,0.00,,OVC029,0.00,VWS V14.01,2013-02-24 03:14:00,
2013-02-23 21:15:00,11.2,8.1,29.82,West,273,0.0,0.0,87,0.00,,OVC029,0.00,VWS V14.01,2013-02-24 03:15:00,
2013-02-23 21:16:00,11.2,7.8,29.82,West,273,0.0,0.0,86,0.00,,OVC029,0.00,VWS V14.01,2013-02-24 03:16:00,
2013-02-23 21:17:00,11.2,7.8,29.82,West,273,0.0,0.0,86,0.00,,OVC029,0.00,VWS V14.01,2013-02-24 03:17:00,
2013-02-23 21:18:00,11.2,7.8,29.82,West,273,0.0,0.0,86,0.00,,OVC029,0.00,VWS V14.01,2013-02-24 03:18:00,
2013-02-23 21:19:00,11.2,7.8,29.82,West,273,0.0,0.0,86,0.00,,OVC029,0.00,VWS V14.01,2013-02-24 03:19:00,
2013-02-23 21:20:00,11.2,7.8,29.82,West,273,0.0,0.0,86,0.00,,OVC029,0.00,VWS V14.01,2013-02-24 03:20:00,
2013-02-23 21:21:00,11.2,8.1,29.82,West,273,0.0,0.0,87,0.00,,OVC029,0.00,VWS V14.01,2013-02-24 03:21:00,
2013-02-23 21:22:00,11.4,8.3,29.82,West,273,0.0,0.0,87,0.00,,OVC029,0.00,VWS V14.01,2013-02-24 03:22:00,
2013-02-23 21:23:00,11.4,8.3,29.82,West,273,0.0,0.0,87,0.00,,OVC029,0.00,VWS V14.01,2013-02-24 03:23:00,
2013-02-23 21:24:00,11.4,8.3,29.82,West,273,0.0,0.0,87,0.00,,OVC029,0.00,VWS V14.01,2013-02-24 03:24:00,
2013-02-23 21:25:00,11.4,8.3,29.82,West,273,0.0,0.0,87,0.00,,OVC029,0.00,VWS V14.01,2013-02-24 03:25:00,
2013-02-23 21:26:00,11.4,8.3,29.82,West,273,0.0,0.0,87,0.00,,OVC029,0.00,VWS V14.01,2013-02-24 03:26:00,
2013-02-23 21:27:00,11.6,8.5,29.82,West,273,0.0,0.0,87,0.00,,OVC029,0.00,VWS V14.01,2013-02-24 03:27:00,
2013-02-23 21:28:00,11.6,8.5,29.82,West,273,0.0,0.0,87,0.00,,OVC029,0.00,VWS V14.01,2013-02-24 03:28:00,
2013-02-23 21:29:00,11.6,8.5,29.82,West,273,0.0,0.0,87,0.00,,OVC029,0.00,VWS V14.01,2013-02-24 03:29:00,
2013-02-23 21:30:00,11.6,8.5,29.82,West,273,0.0,0.0,87,0.00,,OVC029,0.00,VWS V14.01,2013-02-24 03:30:00,
2013-02-23 21:31:00,11.4,8.3,29.82,West,273,0.0,0.0,87,0.00,,OVC029,0.00,VWS V14.01,2013-02-24 03:31:00,
2013-02-23 21:32:00,11.4,8.3,29.82,West,273,0.0,0.0,87,0.00,,OVC029,0.00,VWS V14.01,2013-02-24 03:32:00,
2013-02-23 21:33:00,11.4,8.3,29.82,West,273,0.0,0.0,87,0.00,,OVC029,0.00,VWS V14.01,2013-02-24 03:33:00,
2013-02-23 21:34:00,11.4,8.3,29.82,West,273,0.0,0.0,87,0.00,,OVC029,0.00,VWS V14.01,2013-02-24 03:34:00,
2013-02-23 21:35:00,11.4,8.3,29.82,West,273,0.0,0.0,87,0.00,,OVC029,0.00,VWS V14.01,2013-02-24 03:35:00,
2013-02-23 21:36:00,11.2,8.1,29.82,West,273,0.0,0.0,87,0.00,,OVC029,0.00,VWS V14.01,2013-02-24 03:36:00,
2013-02-23 21:37:00,11.2,7.8,29.82,West,273,0.0,0.0,86,0.00,,OVC029,0.00,VWS V14.01,2013-02-24 03:37:00,
2013-02-23 21:38:00,11.2,7.8,29.82,West,273,0.0,0.0,86,0.00,,OVC029,0.00,VWS V14.01,2013-02-24 03:38:00,
2013-02-23 21:39:00,11.1,7.7,29.82,West,273,0.0,0.0,86,0.00,,OVC029,0.00,VWS V14.01,2013-02-24 03:39:00,
2013-02-23 21:40:00,10.9,7.5,29.82,West,273,0.0,0.0,86,0.00,,OVC029,0.00,VWS V14.01,2013-02-24 03:40:00,
2013-02-23 21:41:00,10.9,7.3,29.82,West,273,0.0,0.0,85,0.00,,OVC029,0.00,VWS V14.01,2013-02-24 03:41:00,
2013-02-23 21:42:00,10.7,7.1,29.82,West,273,0.0,0.0,85,0.00,,OVC029,0.00,VWS V14.01,2013-02-24 03:42:00,
2013-02-23 21:43:00,10.7,7.1,29.82,West,273,0.0,0.0,85,0.00,,BKN029,0.00,VWS V14.01,2013-02-24 03:43:00,
2013-02-23 21:44:00,10.7,7.1,29.82,West,273,0.0,0.0,85,0.00,,BKN029,0.00,VWS V14.01,2013-02-24 03:44:00,
2013-02-23 21:45:00,10.5,6.9,29.83,West,273,0.0,0.0,85,0.00,,BKN029,0.00,VWS V14.01,2013-02-24 03:45:00,
2013-02-23 21:46:00,10.5,6.9,29.83,West,273,0.0,0.0,85,0.00,,BKN029,0.00,VWS V14.01,2013-02-24 03:46:00,
2013-02-23 21:47:00,10.5,6.9,29.83,West,273,0.0,0.0,85,0.00,,BKN029,0.00,VWS V14.01,2013-02-24 03:47:00,
2013-02-23 21:48:00,10.4,6.8,29.83,West,273,0.0,0.0,85,0.00,,BKN029,0.00,VWS V14.01,2013-02-24 03:48:00,
2013-02-23 21:49:00,10.4,6.8,29.83,West,273,0.0,0.0,85,0.00,,BKN029,0.00,VWS V14.01,2013-02-24 03:49:00,
2013-02-23 21:50:00,10.4,6.8,29.83,West,273,0.0,0.0,85,0.00,,BKN029,0.00,VWS V14.01,2013-02-24 03:50:00,
2013-02-23 21:51:00,10.2,6.6,29.83,West,273,0.0,0.0,85,0.00,,BKN029,0.00,VWS V14.01,2013-02-24 03:51:00,
2013-02-23 21:52:00,10.2,6.6,29.83,West,273,0.0,0.0,85,0.00,,BKN029,0.00,VWS V14.01,2013-02-24 03:52:00,
2013-02-23 21:53:00,10.2,6.6,29.83,West,273,0.0,0.0,85,0.00,,BKN029,0.00,VWS V14.01,2013-02-24 03:53:00,
2013-02-23 21:54:00,10.2,6.6,29.83,West,273,0.0,0.0,85,0.00,,BKN029,0.00,VWS V14.01,2013-02-24 03:54:00,
2013-02-23 21:55:00,10.2,6.6,29.83,West,273,0.0,0.0,85,0.00,,BKN029,0.00,VWS V14.01,2013-02-24 03:55:00,
2013-02-23 21:56:00,10.0,6.4,29.83,West,273,0.0,0.0,85,0.00,,BKN029,0.00,VWS V14.01,2013-02-24 03:56:00,
2013-02-23 21:57:00,10.2,6.6,29.83,West,273,0.0,0.0,85,0.00,,BKN029,0.00,VWS V14.01,2013-02-24 03:57:00,
2013-02-23 21:58:00,10.2,6.6,29.83,West,273,0.0,0.0,85,0.00,,BKN029,0.00,VWS V14.01,2013-02-24 03:58:00,
2013-02-23 21:59:00,10.2,6.8,29.83,West,273,0.0,0.0,86,0.00,,BKN029,0.00,VWS V14.01,2013-02-24 03:59:00,
2013-02-23 22:00:00,10.2,6.8,29.83,West,273,0.0,0.0,86,0.00,,BKN029,0.00,VWS V14.01,2013-02-24 04:00:00,
2013-02-23 22:01:00,10.2,6.8,29.83,West,273,0.0,0.0,86,0.00,,BKN029,0.00,VWS V14.01,2013-02-24 04:01:00,
2013-02-23 22:02:00,10.0,6.7,29.83,West,273,0.0,0.0,86,0.00,,BKN029,0.00,VWS V14.01,2013-02-24 04:02:00,
2013-02-23 22:03:00,10.0,6.4,29.83,West,273,0.0,0.0,85,0.00,,BKN029,0.00,VWS V14.01,2013-02-24 04:03:00,
2013-02-23 22:04:00,10.0,6.4,29.83,West,273,0.0,0.0,85,0.00,,BKN029,0.00,VWS V14.01,2013-02-24 04:04:00,
2013-02-23 22:05:00,10.0,6.4,29.83,West,273,0.0,0.0,85,0.00,,BKN029,0.00,VWS V14.01,2013-02-24 04:05:00,
2013-02-23 22:06:00,10.0,6.4,29.83,West,273,0.0,0.0,85,0.00,,BKN029,0.00,VWS V14.01,2013-02-24 04:06:00,
2013-02-23 22:07:00,10.0,6.7,29.83,West,273,0.0,0.0,86,0.00,,BKN029,0.00,VWS V14.01,2013-02-24 04:07:00,
2013-02-23 22:08:00,10.0,6.7,29.83,West,273,0.0,0.0,86,0.00,,BKN029,0.00,VWS V14.01,2013-02-24 04:08:00,
2013-02-23 22:09:00,10.0,6.7,29.83,West,273,0.0,0.0,86,0.00,,BKN029,0.00,VWS V14.01,2013-02-24 04:09:00,
2013-02-23 22:10:00,10.0,6.7,29.83,West,273,0.0,0.0,86,0.00,,BKN029,0.00,VWS V14.01,2013-02-24 04:10:00,
2013-02-23 22:11:00,10.0,6.7,29.83,West,273,0.0,0.0,86,0.00,,BKN029,0.00,VWS V14.01,2013-02-24 04:11:00,
2013-02-23 22:12:00,10.2,6.8,29.83,West,273,0.0,0.0,86,0.00,,BKN029,0.00,VWS V14.01,2013-02-24 04:12:00,
2013-02-23 22:13:00,10.2,7.1,29.83,West,273,0.0,0.0,87,0.00,,BKN029,0.00,VWS V14.01,2013-02-24 04:13:00,
2013-02-23 22:14:00,10.2,6.8,29.83,West,273,0.0,0.0,86,0.00,,BKN029,0.00,VWS V14.01,2013-02-24 04:14:00,
2013-02-23 22:15:00,10.2,6.8,29.83,West,273,0.0,0.0,86,0.00,,BKN029,0.00,VWS V14.01,2013-02-24 04:15:00,
2013-02-23 22:16:00,10.2,6.8,29.83,West,273,0.0,0.0,86,0.00,,BKN029,0.00,VWS V14.01,2013-02-24 04:16:00,
2013-02-23 22:17:00,10.2,6.8,29.83,West,273,0.0,0.0,86,0.00,,BKN029,0.00,VWS V14.01,2013-02-24 04:17:00,
2013-02-23 22:18:00,10.2,6.8,29.83,West,273,0.0,0.0,86,0.00,,BKN029,0.00,VWS V14.01,2013-02-24 04:18:00,
2013-02-23 22:19:00,10.2,6.8,29.83,West,273,0.0,0.0,86,0.00,,BKN029,0.00,VWS V14.01,2013-02-24 04:19:00,
2013-02-23 22:20:00,10.2,6.8,29.83,West,273,0.0,0.0,86,0.00,,BKN029,0.00,VWS V14.01,2013-02-24 04:20:00,
2013-02-23 22:21:00,10.2,6.8,29.83,West,273,0.0,0.0,86,0.00,,BKN029,0.00,VWS V14.01,2013-02-24 04:21:00,
2013-02-23 22:22:00,10.2,6.8,29.83,West,273,0.0,0.0,86,0.00,,BKN029,0.00,VWS V14.01,2013-02-24 04:22:00,
2013-02-23 22:23:00,10.0,6.7,29.83,West,273,0.0,0.0,86,0.00,,BKN029,0.00,VWS V14.01,2013-02-24 04:23:00,
2013-02-23 22:24:00,10.0,6.7,29.83,West,273,0.0,0.0,86,0.00,,BKN029,0.00,VWS V14.01,2013-02-24 04:24:00,
2013-02-23 22:25:00,10.0,6.7,29.83,West,273,0.0,0.0,86,0.00,,BKN029,0.00,VWS V14.01,2013-02-24 04:25:00,
2013-02-23 22:26:00,10.0,6.7,29.83,West,273,0.0,0.0,86,0.00,,BKN029,0.00,VWS V14.01,2013-02-24 04:26:00,
2013-02-23 22:27:00,10.0,6.7,29.83,West,273,0.0,0.0,86,0.00,,BKN029,0.00,VWS V14.01,2013-02-24 04:27:00,
2013-02-23 22:28:00,10.0,6.7,29.83,West,273,0.0,0.0,86,0.00,,BKN029,0.00,VWS V14.01,2013-02-24 04:28:00,
2013-02-23 22:29:00,10.0,6.7,29.83,West,273,0.0,0.0,86,0.00,,BKN029,0.00,VWS V14.01,2013-02-24 04:29:00,
2013-02-23 22:30:00,10.0,6.7,29.84,West,273,0.0,0.0,86,0.00,,BKN029,0.00,VWS V14.01,2013-02-24 04:30:00,
2013-02-23 22:31:00,10.0,6.7,29.84,West,273,0.0,0.0,86,0.00,,BKN029,0.00,VWS V14.01,2013-02-24 04:31:00,
2013-02-23 22:32:00,10.0,6.7,29.84,West,273,0.0,0.0,86,0.00,,BKN029,0.00,VWS V14.01,2013-02-24 04:32:00,
2013-02-23 22:33:00,10.0,6.7,29.84,West,273,0.0,0.0,86,0.00,,BKN029,0.00,VWS V14.01,2013-02-24 04:33:00,
2013-02-23 22:34:00,9.9,6.6,29.84,West,273,0.0,0.0,86,0.00,,BKN029,0.00,VWS V14.01,2013-02-24 04:34:00,
2013-02-23 22:35:00,9.9,6.6,29.84,West,273,0.0,0.0,86,0.00,,BKN029,0.00,VWS V14.01,2013-02-24 04:35:00,
2013-02-23 22:36:00,9.9,6.6,29.84,West,273,0.0,0.0,86,0.00,,BKN029,0.00,VWS V14.01,2013-02-24 04:36:00,
2013-02-23 22:37:00,9.9,6.6,29.84,West,273,0.0,0.0,86,0.00,,BKN029,0.00,VWS V14.01,2013-02-24 04:37:00,
2013-02-23 22:38:00,9.9,6.6,29.84,West,273,0.0,0.0,86,0.00,,BKN029,0.00,VWS V14.01,2013-02-24 04:38:00,
2013-02-23 22:39:00,9.9,6.6,29.84,West,273,0.0,0.0,86,0.00,,BKN029,0.00,VWS V14.01,2013-02-24 04:39:00,
2013-02-23 22:40:00,9.9,6.6,29.84,West,273,0.0,0.0,86,0.00,,BKN029,0.00,VWS V14.01,2013-02-24 04:40:00,
2013-02-23 22:41:00,9.9,6.6,29.84,West,273,0.0,0.0,86,0.00,,BKN029,0.00,VWS V14.01,2013-02-24 04:41:00,
2013-02-23 22:42:00,9.9,6.6,29.84,West,273,0.0,0.0,86,0.00,,BKN029,0.00,VWS V14.01,2013-02-24 04:42:00,
2013-02-23 22:43:00,9.9,6.6,29.84,West,273,0.0,0.0,86,0.00,,OVC031,0.00,VWS V14.01,2013-02-24 04:43:00,
2013-02-23 22:44:00,9.9,6.6,29.84,West,273,0.0,1.0,86,0.00,,OVC031,0.00,VWS V14.01,2013-02-24 04:44:00,
2013-02-23 22:45:00,9.7,6.4,29.84,West,273,0.0,1.0,86,0.00,,OVC031,0.00,VWS V14.01,2013-02-24 04:45:00,
2013-02-23 22:46:00,9.7,6.4,29.84,West,273,0.0,1.0,86,0.00,,OVC031,0.00,VWS V14.01,2013-02-24 04:46:00,
2013-02-23 22:47:00,9.7,6.4,29.84,West,273,0.0,1.0,86,0.00,,OVC031,0.00,VWS V14.01,2013-02-24 04:47:00,
2013-02-23 22:48:00,9.7,6.4,29.84,West,273,0.0,1.0,86,0.00,,OVC031,0.00,VWS V14.01,2013-02-24 04:48:00,
2013-02-23 22:49:00,9.7,6.4,29.84,West,273,0.0,1.0,86,0.00,,OVC031,0.00,VWS V14.01,2013-02-24 04:49:00,
2013-02-23 22:50:00,9.7,6.4,29.84,West,273,0.0,1.0,86,0.00,,OVC031,0.00,VWS V14.01,2013-02-24 04:50:00,
2013-02-23 22:51:00,9.7,6.4,29.84,West,273,0.0,1.0,86,0.00,,OVC031,0.00,VWS V14.01,2013-02-24 04:51:00,
2013-02-23 22:52:00,9.5,6.2,29.84,West,273,0.0,1.0,86,0.00,,OVC031,0.00,VWS V14.01,2013-02-24 04:52:00,
2013-02-23 22:53:00,9.5,5.9,29.84,West,273,0.0,1.0,85,0.00,,OVC031,0.00,VWS V14.01,2013-02-24 04:53:00,
2013-02-23 22:54:00,9.5,5.9,29.84,West,273,0.0,1.0,85,0.00,,OVC031,0.00,VWS V14.01,2013-02-24 04:54:00,
2013-02-23 22:55:00,9.3,5.7,29.84,West,273,0.0,1.0,85,0.00,,OVC031,0.00,VWS V14.01,2013-02-24 04:55:00,
2013-02-23 22:56:00,9.3,5.7,29.84,West,273,0.0,1.0,85,0.00,,OVC031,0.00,VWS V14.01,2013-02-24 04:56:00,
2013-02-23 22:57:00,9.3,5.7,29.84,West,273,0.0,1.0,85,0.00,,OVC031,0.00,VWS V14.01,2013-02-24 04:57:00,
2013-02-23 22:58:00,9.3,5.7,29.84,West,273,0.0,1.0,85,0.00,,OVC031,0.00,VWS V14.01,2013-02-24 04:58:00,
2013-02-23 22:59:00,9.3,6.0,29.84,West,273,0.0,1.0,86,0.00,,OVC031,0.00,VWS V14.01,2013-02-24 04:59:00,
2013-02-23 23:00:00,9.3,6.0,29.85,West,273,0.0,1.0,86,0.00,,OVC031,0.00,VWS V14.01,2013-02-24 05:00:00,
2013-02-23 23:01:00,9.5,6.2,29.85,West,273,0.0,0.0,86,0.00,,OVC031,0.00,VWS V14.01,2013-02-24 05:01:00,
2013-02-23 23:02:00,9.5,6.4,29.85,West,273,0.0,0.0,87,0.00,,OVC031,0.00,VWS V14.01,2013-02-24 05:02:00,
2013-02-23 23:03:00,9.7,6.6,29.85,West,273,0.0,0.0,87,0.00,,OVC031,0.00,VWS V14.01,2013-02-24 05:03:00,
2013-02-23 23:04:00,9.7,6.6,29.85,West,273,0.0,0.0,87,0.00,,OVC031,0.00,VWS V14.01,2013-02-24 05:04:00,
2013-02-23 23:05:00,9.9,6.8,29.85,West,273,0.0,0.0,87,0.00,,OVC031,0.00,VWS V14.01,2013-02-24 05:05:00,
2013-02-23 23:06:00,9.9,6.8,29.85,West,273,0.0,0.0,87,0.00,,OVC031,0.00,VWS V14.01,2013-02-24 05:06:00,
2013-02-23 23:07:00,10.0,6.9,29.85,West,273,0.0,0.0,87,0.00,,OVC031,0.00,VWS V14.01,2013-02-24 05:07:00,
2013-02-23 23:08:00,10.0,6.9,29.85,West,273,0.0,0.0,87,0.00,,OVC031,0.00,VWS V14.01,2013-02-24 05:08:00,
2013-02-23 23:09:00,10.0,6.9,29.85,West,273,0.0,0.0,87,0.00,,OVC031,0.00,VWS V14.01,2013-02-24 05:09:00,
2013-02-23 23:10:00,10.2,7.1,29.85,West,273,0.0,0.0,87,0.00,,OVC031,0.00,VWS V14.01,2013-02-24 05:10:00,
2013-02-23 23:11:00,10.2,7.1,29.85,West,273,0.0,2.0,87,0.00,,OVC031,0.00,VWS V14.01,2013-02-24 05:11:00,
2013-02-23 23:12:00,10.2,7.1,29.85,West,273,0.0,2.0,87,0.00,,OVC031,0.00,VWS V14.01,2013-02-24 05:12:00,
2013-02-23 23:13:00,10.4,7.3,29.85,West,273,0.0,2.0,87,0.00,,OVC031,0.00,VWS V14.01,2013-02-24 05:13:00,
2013-02-23 23:14:00,10.4,7.3,29.85,West,273,0.0,2.0,87,0.00,,OVC031,0.00,VWS V14.01,2013-02-24 05:14:00,
2013-02-23 23:15:00,10.4,7.3,29.84,West,273,0.0,2.0,87,0.00,,OVC031,0.00,VWS V14.01,2013-02-24 05:15:00,
2013-02-23 23:16:00,10.5,7.4,29.84,West,273,0.0,2.0,87,0.00,,OVC031,0.00,VWS V14.01,2013-02-24 05:16:00,
2013-02-23 23:17:00,10.5,7.4,29.84,West,273,0.0,2.0,87,0.00,,OVC031,0.00,VWS V14.01,2013-02-24 05:17:00,
2013-02-23 23:18:00,10.5,7.4,29.84,West,273,0.0,2.0,87,0.00,,OVC031,0.00,VWS V14.01,2013-02-24 05:18:00,
2013-02-23 23:19:00,10.5,7.4,29.84,West,273,0.0,2.0,87,0.00,,OVC031,0.00,VWS V14.01,2013-02-24 05:19:00,
2013-02-23 23:20:00,10.5,7.4,29.84,West,273,0.0,2.0,87,0.00,,OVC031,0.00,VWS V14.01,2013-02-24 05:20:00,
2013-02-23 23:21:00,10.5,7.4,29.84,West,273,0.0,2.0,87,0.00,,OVC031,0.00,VWS V14.01,2013-02-24 05:21:00,
2013-02-23 23:22:00,10.5,7.4,29.84,West,273,0.0,2.0,87,0.00,,OVC031,0.00,VWS V14.01,2013-02-24 05:22:00,
2013-02-23 23:23:00,10.7,7.6,29.84,West,273,0.0,2.0,87,0.00,,OVC031,0.00,VWS V14.01,2013-02-24 05:23:00,
2013-02-23 23:24:00,10.7,7.6,29.84,West,273,0.0,2.0,87,0.00,,OVC031,0.00,VWS V14.01,2013-02-24 05:24:00,
2013-02-23 23:25:00,10.7,7.6,29.84,West,273,0.0,2.0,87,0.00,,OVC031,0.00,VWS V14.01,2013-02-24 05:25:00,
2013-02-23 23:26:00,10.7,7.6,29.84,West,273,0.0,2.0,87,0.00,,OVC031,0.00,VWS V14.01,2013-02-24 05:26:00,
2013-02-23 23:27:00,10.7,7.6,29.84,West,273,0.0,2.0,87,0.00,,OVC031,0.00,VWS V14.01,2013-02-24 05:27:00,
2013-02-23 23:28:00,10.7,7.6,29.84,West,273,0.0,2.0,87,0.00,,OVC031,0.00,VWS V14.01,2013-02-24 05:28:00,
2013-02-23 23:29:00,10.5,7.4,29.84,West,273,0.0,2.0,87,0.00,,OVC031,0.00,VWS V14.01,2013-02-24 05:29:00,
2013-02-23 23:30:00,10.5,7.4,29.84,West,273,0.0,2.0,87,0.00,,OVC031,0.00,VWS V14.01,2013-02-24 05:30:00,
2013-02-23 23:31:00,10.5,7.4,29.84,West,273,0.0,0.0,87,0.00,,OVC031,0.00,VWS V14.01,2013-02-24 05:31:00,
2013-02-23 23:32:00,10.5,7.4,29.84,West,273,0.0,0.0,87,0.00,,OVC031,0.00,VWS V14.01,2013-02-24 05:32:00,
2013-02-23 23:33:00,10.5,7.4,29.84,West,273,0.0,0.0,87,0.00,,OVC031,0.00,VWS V14.01,2013-02-24 05:33:00,
2013-02-23 23:34:00,10.5,7.4,29.84,West,273,0.0,0.0,87,0.00,,OVC031,0.00,VWS V14.01,2013-02-24 05:34:00,
2013-02-23 23:35:00,10.4,7.3,29.84,West,273,0.0,0.0,87,0.00,,OVC031,0.00,VWS V14.01,2013-02-24 05:35:00,
2013-02-23 23:36:00,10.4,7.3,29.84,West,273,0.0,0.0,87,0.00,,OVC031,0.00,VWS V14.01,2013-02-24 05:36:00,
2013-02-23 23:37:00,10.4,7.3,29.84,West,273,0.0,0.0,87,0.00,,OVC031,0.00,VWS V14.01,2013-02-24 05:37:00,
2013-02-23 23:38:00,10.4,7.3,29.84,West,273,0.0,0.0,87,0.00,,OVC031,0.00,VWS V14.01,2013-02-24 05:38:00,
2013-02-23 23:39:00,10.4,7.3,29.84,West,273,0.0,0.0,87,0.00,,OVC031,0.00,VWS V14.01,2013-02-24 05:39:00,
2013-02-23 23:40:00,10.4,7.3,29.84,West,273,0.0,0.0,87,0.00,,OVC031,0.00,VWS V14.01,2013-02-24 05:40:00,
2013-02-23 23:41:00,10.4,7.1,29.84,West,273,0.0,0.0,86,0.00,,OVC031,0.00,VWS V14.01,2013-02-24 05:41:00,
2013-02-23 23:42:00,10.2,6.8,29.84,West,273,0.0,0.0,86,0.00,,OVC031,0.00,VWS V14.01,2013-02-24 05:42:00,
2013-02-23 23:43:00,10.2,6.8,29.84,West,273,0.0,0.0,86,0.00,,OVC031,0.00,VWS V14.01,2013-02-24 05:43:00,
2013-02-23 23:44:00,10.2,6.8,29.84,West,273,0.0,0.0,86,0.00,,OVC031,0.00,VWS V14.01,2013-02-24 05:44:00,
2013-02-23 23:45:00,10.2,6.8,29.84,West,273,0.0,0.0,86,0.00,,OVC031,0.00,VWS V14.01,2013-02-24 05:45:00,
2013-02-23 23:46:00,10.2,6.8,29.84,West,273,0.0,0.0,86,0.00,,OVC031,0.00,VWS V14.01,2013-02-24 05:46:00,
2013-02-23 23:47:00,10.2,6.8,29.84,West,273,0.0,0.0,86,0.00,,OVC031,0.00,VWS V14.01,2013-02-24 05:47:00,
2013-02-23 23:48:00,10.2,6.8,29.84,West,273,0.0,0.0,86,0.00,,OVC031,0.00,VWS V14.01,2013-02-24 05:48:00,
2013-02-23 23:49:00,10.2,6.8,29.84,West,273,0.0,0.0,86,0.00,,OVC031,0.00,VWS V14.01,2013-02-24 05:49:00,
2013-02-23 23:50:00,10.2,7.1,29.84,West,273,0.0,0.0,87,0.00,,OVC031,0.00,VWS V14.01,2013-02-24 05:50:00,
2013-02-23 23:51:00,10.2,7.1,29.84,West,273,0.0,0.0,87,0.00,,OVC031,0.00,VWS V14.01,2013-02-24 05:51:00,
2013-02-23 23:52:00,10.4,7.3,29.84,West,273,0.0,0.0,87,0.00,,OVC031,0.00,VWS V14.01,2013-02-24 05:52:00,
2013-02-23 23:53:00,10.4,7.3,29.84,West,273,0.0,0.0,87,0.00,,OVC031,0.00,VWS V14.01,2013-02-24 05:53:00,
2013-02-23 23:54:00,10.4,7.3,29.84,West,273,0.0,0.0,87,0.00,,OVC031,0.00,VWS V14.01,2013-02-24 05:54:00,
2013-02-23 23:55:00,10.4,7.3,29.84,West,273,0.0,0.0,87,0.00,,OVC031,0.00,VWS V14.01,2013-02-24 05:55:00,
2013-02-23 23:56:00,10.4,7.3,29.84,West,273,0.0,0.0,87,0.00,,OVC031,0.00,VWS V14.01,2013-02-24 05:56:00,
2013-02-23 23:57:00,10.4,7.3,29.84,West,273,0.0,0.0,87,0.00,,OVC031,0.00,VWS V14.01,2013-02-24 05:57:00,
2013-02-23 23:58:00,10.4,7.3,29.84,West,273,0.0,0.0,87,0.00,,OVC031,0.00,VWS V14.01,2013-02-24 05:58:00,
2013-02-23 23:59:00,10.4,7.1,29.84,West,273,0.0,0.0,86,0.00,,OVC031,0.00,VWS V14.01,2013-02-24 05:59:00,